<?xml version='1.0' encoding='UTF-8'?>
<gpx version="1.1" creator="https://www.komoot.de" xmlns="http://www.topografix.com/GPX/1/1" xmlns:xsi="http://www.w3.org/2001/XMLSchema-instance" xsi:schemaLocation="http://www.topografix.com/GPX/1/1 http://www.topografix.com/GPX/1/1/gpx.xsd">
  <metadata>
    <name>33178 - Rad-Treff Borchen - RTF "Durch das Hochstift PB" - 18.06.22 - 153 km</name>
    <author>
      <link href="https://www.komoot.de">
        <text>komoot</text>
        <type>text/html</type>
      </link>
    </author>
  </metadata>
  <trk>
    <name>33178 - Rad-Treff Borchen - RTF "Durch das Hochstift PB" - 18.06.22 - 153 km</name>
    <trkseg>
      <trkpt lat="51.658877" lon="8.720652">
        <ele>135.002498</ele>
        <time>2022-04-09T14:47:41.847Z</time>
      </trkpt>
      <trkpt lat="51.658911" lon="8.720945">
        <ele>135.002498</ele>
        <time>2022-04-09T14:47:54.071Z</time>
      </trkpt>
      <trkpt lat="51.658934" lon="8.721142">
        <ele>135.002498</ele>
        <time>2022-04-09T14:48:02.290Z</time>
      </trkpt>
      <trkpt lat="51.659098" lon="8.720961">
        <ele>135.002498</ele>
        <time>2022-04-09T14:48:04.001Z</time>
      </trkpt>
      <trkpt lat="51.659155" lon="8.720899">
        <ele>135.002498</ele>
        <time>2022-04-09T14:48:04.559Z</time>
      </trkpt>
      <trkpt lat="51.659359" lon="8.720648">
        <ele>135.002498</ele>
        <time>2022-04-09T14:48:06.753Z</time>
      </trkpt>
      <trkpt lat="51.659643" lon="8.720298">
        <ele>135.096583</ele>
        <time>2022-04-09T14:48:09.803Z</time>
      </trkpt>
      <trkpt lat="51.659772" lon="8.720140">
        <ele>135.148859</ele>
        <time>2022-04-09T14:48:11.318Z</time>
      </trkpt>
      <trkpt lat="51.660373" lon="8.719338">
        <ele>135.400608</ele>
        <time>2022-04-09T14:48:19.895Z</time>
      </trkpt>
      <trkpt lat="51.660670" lon="8.718705">
        <ele>135.559472</ele>
        <time>2022-04-09T14:48:24.648Z</time>
      </trkpt>
      <trkpt lat="51.660894" lon="8.717829">
        <ele>135.551295</ele>
        <time>2022-04-09T14:48:29.502Z</time>
      </trkpt>
      <trkpt lat="51.660925" lon="8.717712">
        <ele>135.546458</ele>
        <time>2022-04-09T14:48:30.156Z</time>
      </trkpt>
      <trkpt lat="51.661015" lon="8.717707">
        <ele>135.540938</ele>
        <time>2022-04-09T14:48:30.881Z</time>
      </trkpt>
      <trkpt lat="51.661070" lon="8.717619">
        <ele>135.536189</ele>
        <time>2022-04-09T14:48:31.586Z</time>
      </trkpt>
      <trkpt lat="51.661161" lon="8.717681">
        <ele>135.530134</ele>
        <time>2022-04-09T14:48:32.680Z</time>
      </trkpt>
      <trkpt lat="51.661560" lon="8.717952">
        <ele>135.503598</ele>
        <time>2022-04-09T14:48:37.911Z</time>
      </trkpt>
      <trkpt lat="51.661825" lon="8.718132">
        <ele>135.485973</ele>
        <time>2022-04-09T14:48:41.568Z</time>
      </trkpt>
      <trkpt lat="51.662245" lon="8.718456">
        <ele>135.508267</ele>
        <time>2022-04-09T14:48:47.494Z</time>
      </trkpt>
      <trkpt lat="51.662601" lon="8.718823">
        <ele>135.568984</ele>
        <time>2022-04-09T14:48:52.227Z</time>
      </trkpt>
      <trkpt lat="51.662747" lon="8.718998">
        <ele>135.595125</ele>
        <time>2022-04-09T14:48:54.207Z</time>
      </trkpt>
      <trkpt lat="51.662794" lon="8.719054">
        <ele>135.603523</ele>
        <time>2022-04-09T14:48:54.969Z</time>
      </trkpt>
      <trkpt lat="51.663047" lon="8.719306">
        <ele>135.646254</ele>
        <time>2022-04-09T14:48:58.490Z</time>
      </trkpt>
      <trkpt lat="51.663193" lon="8.719399">
        <ele>135.668811</ele>
        <time>2022-04-09T14:49:00.668Z</time>
      </trkpt>
      <trkpt lat="51.663236" lon="8.719259">
        <ele>135.682735</ele>
        <time>2022-04-09T14:49:01.630Z</time>
      </trkpt>
      <trkpt lat="51.663333" lon="8.719153">
        <ele>135.699572</ele>
        <time>2022-04-09T14:49:02.779Z</time>
      </trkpt>
      <trkpt lat="51.664657" lon="8.718648">
        <ele>136.481752</ele>
        <time>2022-04-09T14:49:17.474Z</time>
      </trkpt>
      <trkpt lat="51.665085" lon="8.718308">
        <ele>136.795584</ele>
        <time>2022-04-09T14:49:22.136Z</time>
      </trkpt>
      <trkpt lat="51.665470" lon="8.717931">
        <ele>136.895634</ele>
        <time>2022-04-09T14:49:26.710Z</time>
      </trkpt>
      <trkpt lat="51.665642" lon="8.717932">
        <ele>136.883867</ele>
        <time>2022-04-09T14:49:28.652Z</time>
      </trkpt>
      <trkpt lat="51.666061" lon="8.718233">
        <ele>136.852485</ele>
        <time>2022-04-09T14:49:33.194Z</time>
      </trkpt>
      <trkpt lat="51.666739" lon="8.718936">
        <ele>136.797336</ele>
        <time>2022-04-09T14:49:39.945Z</time>
      </trkpt>
      <trkpt lat="51.666942" lon="8.719067">
        <ele>136.572651</ele>
        <time>2022-04-09T14:49:41.561Z</time>
      </trkpt>
      <trkpt lat="51.667039" lon="8.719131">
        <ele>136.392484</ele>
        <time>2022-04-09T14:49:42.256Z</time>
      </trkpt>
      <trkpt lat="51.667305" lon="8.719341">
        <ele>135.883351</ele>
        <time>2022-04-09T14:49:44.234Z</time>
      </trkpt>
      <trkpt lat="51.667633" lon="8.719623">
        <ele>135.244359</ele>
        <time>2022-04-09T14:49:46.666Z</time>
      </trkpt>
      <trkpt lat="51.667828" lon="8.719630">
        <ele>134.909067</ele>
        <time>2022-04-09T14:49:47.971Z</time>
      </trkpt>
      <trkpt lat="51.668276" lon="8.719444">
        <ele>134.113824</ele>
        <time>2022-04-09T14:49:51.064Z</time>
      </trkpt>
      <trkpt lat="51.668351" lon="8.719385">
        <ele>133.970371</ele>
        <time>2022-04-09T14:49:51.608Z</time>
      </trkpt>
      <trkpt lat="51.668611" lon="8.719452">
        <ele>133.525072</ele>
        <time>2022-04-09T14:49:53.322Z</time>
      </trkpt>
      <trkpt lat="51.668808" lon="8.719556">
        <ele>133.183109</ele>
        <time>2022-04-09T14:49:54.677Z</time>
      </trkpt>
      <trkpt lat="51.669174" lon="8.719747">
        <ele>132.548490</ele>
        <time>2022-04-09T14:49:57.215Z</time>
      </trkpt>
      <trkpt lat="51.669509" lon="8.719922">
        <ele>131.967567</ele>
        <time>2022-04-09T14:49:59.568Z</time>
      </trkpt>
      <trkpt lat="51.669739" lon="8.720040">
        <ele>131.569397</ele>
        <time>2022-04-09T14:50:01.208Z</time>
      </trkpt>
      <trkpt lat="51.669885" lon="8.720119">
        <ele>131.315344</ele>
        <time>2022-04-09T14:50:02.332Z</time>
      </trkpt>
      <trkpt lat="51.670247" lon="8.720313">
        <ele>130.707201</ele>
        <time>2022-04-09T14:50:05.132Z</time>
      </trkpt>
      <trkpt lat="51.670284" lon="8.720224">
        <ele>130.648069</ele>
        <time>2022-04-09T14:50:05.609Z</time>
      </trkpt>
      <trkpt lat="51.670389" lon="8.719921">
        <ele>130.456512</ele>
        <time>2022-04-09T14:50:07.216Z</time>
      </trkpt>
      <trkpt lat="51.670500" lon="8.719575">
        <ele>130.241524</ele>
        <time>2022-04-09T14:50:08.951Z</time>
      </trkpt>
      <trkpt lat="51.670583" lon="8.719315">
        <ele>130.080140</ele>
        <time>2022-04-09T14:50:10.274Z</time>
      </trkpt>
      <trkpt lat="51.670659" lon="8.719076">
        <ele>129.931911</ele>
        <time>2022-04-09T14:50:11.406Z</time>
      </trkpt>
      <trkpt lat="51.670937" lon="8.718706">
        <ele>129.611136</ele>
        <time>2022-04-09T14:50:13.892Z</time>
      </trkpt>
      <trkpt lat="51.671442" lon="8.718423">
        <ele>129.135381</ele>
        <time>2022-04-09T14:50:17.928Z</time>
      </trkpt>
      <trkpt lat="51.671497" lon="8.718397">
        <ele>129.216525</ele>
        <time>2022-04-09T14:50:18.453Z</time>
      </trkpt>
      <trkpt lat="51.671696" lon="8.718221">
        <ele>129.582014</ele>
        <time>2022-04-09T14:50:20.855Z</time>
      </trkpt>
      <trkpt lat="51.671754" lon="8.718000">
        <ele>129.821667</ele>
        <time>2022-04-09T14:50:22.504Z</time>
      </trkpt>
      <trkpt lat="51.671762" lon="8.717007">
        <ele>130.813420</ele>
        <time>2022-04-09T14:50:32.770Z</time>
      </trkpt>
      <trkpt lat="51.671843" lon="8.716580">
        <ele>131.259350</ele>
        <time>2022-04-09T14:50:37.820Z</time>
      </trkpt>
      <trkpt lat="51.671942" lon="8.716240">
        <ele>131.634456</ele>
        <time>2022-04-09T14:50:41.273Z</time>
      </trkpt>
      <trkpt lat="51.671972" lon="8.716088">
        <ele>131.793754</ele>
        <time>2022-04-09T14:50:42.706Z</time>
      </trkpt>
      <trkpt lat="51.671993" lon="8.715987">
        <ele>131.900136</ele>
        <time>2022-04-09T14:50:43.637Z</time>
      </trkpt>
      <trkpt lat="51.672227" lon="8.715119">
        <ele>133.080840</ele>
        <time>2022-04-09T14:50:52.127Z</time>
      </trkpt>
      <trkpt lat="51.672409" lon="8.714753">
        <ele>133.684300</ele>
        <time>2022-04-09T14:50:56.717Z</time>
      </trkpt>
      <trkpt lat="51.672634" lon="8.714299">
        <ele>134.431866</ele>
        <time>2022-04-09T14:51:02.597Z</time>
      </trkpt>
      <trkpt lat="51.672832" lon="8.713886">
        <ele>135.103356</ele>
        <time>2022-04-09T14:51:07.241Z</time>
      </trkpt>
      <trkpt lat="51.672969" lon="8.713505">
        <ele>135.669869</ele>
        <time>2022-04-09T14:51:10.366Z</time>
      </trkpt>
      <trkpt lat="51.673455" lon="8.712159">
        <ele>135.584117</ele>
        <time>2022-04-09T14:51:18.444Z</time>
      </trkpt>
      <trkpt lat="51.673873" lon="8.710970">
        <ele>135.423961</ele>
        <time>2022-04-09T14:51:25.085Z</time>
      </trkpt>
      <trkpt lat="51.674520" lon="8.709477">
        <ele>135.174391</ele>
        <time>2022-04-09T14:51:34.095Z</time>
      </trkpt>
      <trkpt lat="51.674686" lon="8.708800">
        <ele>135.074276</ele>
        <time>2022-04-09T14:51:38.034Z</time>
      </trkpt>
      <trkpt lat="51.674721" lon="8.708628">
        <ele>135.049381</ele>
        <time>2022-04-09T14:51:39.194Z</time>
      </trkpt>
      <trkpt lat="51.674766" lon="8.708402">
        <ele>135.024273</ele>
        <time>2022-04-09T14:51:40.653Z</time>
      </trkpt>
      <trkpt lat="51.675260" lon="8.705313">
        <ele>135.633080</ele>
        <time>2022-04-09T14:51:59.982Z</time>
      </trkpt>
      <trkpt lat="51.675318" lon="8.704951">
        <ele>135.674881</ele>
        <time>2022-04-09T14:52:02.015Z</time>
      </trkpt>
      <trkpt lat="51.675625" lon="8.703086">
        <ele>135.890615</ele>
        <time>2022-04-09T14:52:13.430Z</time>
      </trkpt>
      <trkpt lat="51.675834" lon="8.702115">
        <ele>135.236573</ele>
        <time>2022-04-09T14:52:19.247Z</time>
      </trkpt>
      <trkpt lat="51.676088" lon="8.701394">
        <ele>134.470825</ele>
        <time>2022-04-09T14:52:22.794Z</time>
      </trkpt>
      <trkpt lat="51.676332" lon="8.700862">
        <ele>133.859780</ele>
        <time>2022-04-09T14:52:25.483Z</time>
      </trkpt>
      <trkpt lat="51.676397" lon="8.700762">
        <ele>133.726001</ele>
        <time>2022-04-09T14:52:26.072Z</time>
      </trkpt>
      <trkpt lat="51.676647" lon="8.700446">
        <ele>133.252976</ele>
        <time>2022-04-09T14:52:28.093Z</time>
      </trkpt>
      <trkpt lat="51.676941" lon="8.700074">
        <ele>132.041087</ele>
        <time>2022-04-09T14:52:30.388Z</time>
      </trkpt>
      <trkpt lat="51.677241" lon="8.699819">
        <ele>130.931566</ele>
        <time>2022-04-09T14:52:32.418Z</time>
      </trkpt>
      <trkpt lat="51.677837" lon="8.699522">
        <ele>128.890626</ele>
        <time>2022-04-09T14:52:36.060Z</time>
      </trkpt>
      <trkpt lat="51.678341" lon="8.699367">
        <ele>127.335225</ele>
        <time>2022-04-09T14:52:39.087Z</time>
      </trkpt>
      <trkpt lat="51.679151" lon="8.699117">
        <ele>126.894790</ele>
        <time>2022-04-09T14:52:44.992Z</time>
      </trkpt>
      <trkpt lat="51.679907" lon="8.698849">
        <ele>126.481407</ele>
        <time>2022-04-09T14:52:52.710Z</time>
      </trkpt>
      <trkpt lat="51.679968" lon="8.698673">
        <ele>126.414639</ele>
        <time>2022-04-09T14:52:54.295Z</time>
      </trkpt>
      <trkpt lat="51.679989" lon="8.698281">
        <ele>126.774555</ele>
        <time>2022-04-09T14:52:56.948Z</time>
      </trkpt>
      <trkpt lat="51.680087" lon="8.696414">
        <ele>128.813849</ele>
        <time>2022-04-09T14:53:12.772Z</time>
      </trkpt>
      <trkpt lat="51.680433" lon="8.696491">
        <ele>129.426945</ele>
        <time>2022-04-09T14:53:17.671Z</time>
      </trkpt>
      <trkpt lat="51.680547" lon="8.696510">
        <ele>129.633231</ele>
        <time>2022-04-09T14:53:19.189Z</time>
      </trkpt>
      <trkpt lat="51.681156" lon="8.696557">
        <ele>130.779233</ele>
        <time>2022-04-09T14:53:27.614Z</time>
      </trkpt>
      <trkpt lat="51.681470" lon="8.696502">
        <ele>131.372906</ele>
        <time>2022-04-09T14:53:31.839Z</time>
      </trkpt>
      <trkpt lat="51.681889" lon="8.696369">
        <ele>132.175577</ele>
        <time>2022-04-09T14:53:37.657Z</time>
      </trkpt>
      <trkpt lat="51.682377" lon="8.696004">
        <ele>133.003101</ele>
        <time>2022-04-09T14:53:45.090Z</time>
      </trkpt>
      <trkpt lat="51.682470" lon="8.695866">
        <ele>133.066219</ele>
        <time>2022-04-09T14:53:46.582Z</time>
      </trkpt>
      <trkpt lat="51.682578" lon="8.695923">
        <ele>133.122975</ele>
        <time>2022-04-09T14:53:47.797Z</time>
      </trkpt>
      <trkpt lat="51.682650" lon="8.695782">
        <ele>133.179541</ele>
        <time>2022-04-09T14:53:48.978Z</time>
      </trkpt>
      <trkpt lat="51.682611" lon="8.695637">
        <ele>133.228486</ele>
        <time>2022-04-09T14:53:49.951Z</time>
      </trkpt>
      <trkpt lat="51.682513" lon="8.695616">
        <ele>133.277863</ele>
        <time>2022-04-09T14:53:50.837Z</time>
      </trkpt>
      <trkpt lat="51.682209" lon="8.695112">
        <ele>133.495609</ele>
        <time>2022-04-09T14:53:54.873Z</time>
      </trkpt>
      <trkpt lat="51.681619" lon="8.694544">
        <ele>133.850858</ele>
        <time>2022-04-09T14:54:00.649Z</time>
      </trkpt>
      <trkpt lat="51.680825" lon="8.694020">
        <ele>135.647982</ele>
        <time>2022-04-09T14:54:09.242Z</time>
      </trkpt>
      <trkpt lat="51.680254" lon="8.693351">
        <ele>137.126418</ele>
        <time>2022-04-09T14:54:19.629Z</time>
      </trkpt>
      <trkpt lat="51.679539" lon="8.692024">
        <ele>143.342998</ele>
        <time>2022-04-09T14:54:44.871Z</time>
      </trkpt>
      <trkpt lat="51.679058" lon="8.691059">
        <ele>148.451501</ele>
        <time>2022-04-09T14:55:06.128Z</time>
      </trkpt>
      <trkpt lat="51.678324" lon="8.689639">
        <ele>155.982249</ele>
        <time>2022-04-09T14:55:37.525Z</time>
      </trkpt>
      <trkpt lat="51.678037" lon="8.689085">
        <ele>158.916487</ele>
        <time>2022-04-09T14:55:47.835Z</time>
      </trkpt>
      <trkpt lat="51.677577" lon="8.688466">
        <ele>162.145884</ele>
        <time>2022-04-09T14:55:59.939Z</time>
      </trkpt>
      <trkpt lat="51.677062" lon="8.688048">
        <ele>164.146330</ele>
        <time>2022-04-09T14:56:11.132Z</time>
      </trkpt>
      <trkpt lat="51.676618" lon="8.687847">
        <ele>165.746421</ele>
        <time>2022-04-09T14:56:18.798Z</time>
      </trkpt>
      <trkpt lat="51.675483" lon="8.687626">
        <ele>168.299461</ele>
        <time>2022-04-09T14:56:34.553Z</time>
      </trkpt>
      <trkpt lat="51.674149" lon="8.687335">
        <ele>169.624823</ele>
        <time>2022-04-09T14:56:49.255Z</time>
      </trkpt>
      <trkpt lat="51.673948" lon="8.687276">
        <ele>169.573752</ele>
        <time>2022-04-09T14:56:50.915Z</time>
      </trkpt>
      <trkpt lat="51.672779" lon="8.686931">
        <ele>169.276674</ele>
        <time>2022-04-09T14:57:00.104Z</time>
      </trkpt>
      <trkpt lat="51.672023" lon="8.686631">
        <ele>169.630371</ele>
        <time>2022-04-09T14:57:06.728Z</time>
      </trkpt>
      <trkpt lat="51.671533" lon="8.686373">
        <ele>170.036211</ele>
        <time>2022-04-09T14:57:12.269Z</time>
      </trkpt>
      <trkpt lat="51.670731" lon="8.685744">
        <ele>170.773546</ele>
        <time>2022-04-09T14:57:23.550Z</time>
      </trkpt>
      <trkpt lat="51.669862" lon="8.684819">
        <ele>171.860145</ele>
        <time>2022-04-09T14:57:37.353Z</time>
      </trkpt>
      <trkpt lat="51.668544" lon="8.683151">
        <ele>171.521197</ele>
        <time>2022-04-09T14:57:51.330Z</time>
      </trkpt>
      <trkpt lat="51.668155" lon="8.682597">
        <ele>171.036278</ele>
        <time>2022-04-09T14:57:54.772Z</time>
      </trkpt>
      <trkpt lat="51.668045" lon="8.682457">
        <ele>170.905344</ele>
        <time>2022-04-09T14:57:55.696Z</time>
      </trkpt>
      <trkpt lat="51.667144" lon="8.681138">
        <ele>169.003778</ele>
        <time>2022-04-09T14:58:03.723Z</time>
      </trkpt>
      <trkpt lat="51.664469" lon="8.677224">
        <ele>164.863038</ele>
        <time>2022-04-09T14:58:30.122Z</time>
      </trkpt>
      <trkpt lat="51.663401" lon="8.675883">
        <ele>163.320181</ele>
        <time>2022-04-09T14:58:39.915Z</time>
      </trkpt>
      <trkpt lat="51.661014" lon="8.673550">
        <ele>159.941463</ele>
        <time>2022-04-09T14:58:59.676Z</time>
      </trkpt>
      <trkpt lat="51.660922" lon="8.673472">
        <ele>159.816893</ele>
        <time>2022-04-09T14:59:00.473Z</time>
      </trkpt>
      <trkpt lat="51.660038" lon="8.672723">
        <ele>159.363135</ele>
        <time>2022-04-09T14:59:08.176Z</time>
      </trkpt>
      <trkpt lat="51.659361" lon="8.672256">
        <ele>159.028551</ele>
        <time>2022-04-09T14:59:14.481Z</time>
      </trkpt>
      <trkpt lat="51.659200" lon="8.672167">
        <ele>159.057353</ele>
        <time>2022-04-09T14:59:16.062Z</time>
      </trkpt>
      <trkpt lat="51.659022" lon="8.672067">
        <ele>159.157491</ele>
        <time>2022-04-09T14:59:17.802Z</time>
      </trkpt>
      <trkpt lat="51.658826" lon="8.671919">
        <ele>159.272471</ele>
        <time>2022-04-09T14:59:19.865Z</time>
      </trkpt>
      <trkpt lat="51.658728" lon="8.671844">
        <ele>159.330101</ele>
        <time>2022-04-09T14:59:20.878Z</time>
      </trkpt>
      <trkpt lat="51.658662" lon="8.671662">
        <ele>159.399576</ele>
        <time>2022-04-09T14:59:22.167Z</time>
      </trkpt>
      <trkpt lat="51.658545" lon="8.671628">
        <ele>159.462733</ele>
        <time>2022-04-09T14:59:23.331Z</time>
      </trkpt>
      <trkpt lat="51.658458" lon="8.671725">
        <ele>159.518928</ele>
        <time>2022-04-09T14:59:24.374Z</time>
      </trkpt>
      <trkpt lat="51.658352" lon="8.671712">
        <ele>159.575402</ele>
        <time>2022-04-09T14:59:25.471Z</time>
      </trkpt>
      <trkpt lat="51.658207" lon="8.671709">
        <ele>159.652438</ele>
        <time>2022-04-09T14:59:26.966Z</time>
      </trkpt>
      <trkpt lat="51.658007" lon="8.671661">
        <ele>159.759857</ele>
        <time>2022-04-09T14:59:29.113Z</time>
      </trkpt>
      <trkpt lat="51.657333" lon="8.671507">
        <ele>160.258005</ele>
        <time>2022-04-09T14:59:36.895Z</time>
      </trkpt>
      <trkpt lat="51.657097" lon="8.671462">
        <ele>160.488176</ele>
        <time>2022-04-09T14:59:39.836Z</time>
      </trkpt>
      <trkpt lat="51.656440" lon="8.671328">
        <ele>161.129584</ele>
        <time>2022-04-09T14:59:47.581Z</time>
      </trkpt>
      <trkpt lat="51.655791" lon="8.671195">
        <ele>161.712718</ele>
        <time>2022-04-09T14:59:54.583Z</time>
      </trkpt>
      <trkpt lat="51.655320" lon="8.671050">
        <ele>161.819026</ele>
        <time>2022-04-09T14:59:59.437Z</time>
      </trkpt>
      <trkpt lat="51.655289" lon="8.671037">
        <ele>161.826128</ele>
        <time>2022-04-09T14:59:59.694Z</time>
      </trkpt>
      <trkpt lat="51.654797" lon="8.670825">
        <ele>161.939035</ele>
        <time>2022-04-09T15:00:04.496Z</time>
      </trkpt>
      <trkpt lat="51.653636" lon="8.670090">
        <ele>162.193950</ele>
        <time>2022-04-09T15:00:15.176Z</time>
      </trkpt>
      <trkpt lat="51.652809" lon="8.669494">
        <ele>162.358327</ele>
        <time>2022-04-09T15:00:23.636Z</time>
      </trkpt>
      <trkpt lat="51.652446" lon="8.669233">
        <ele>162.457934</ele>
        <time>2022-04-09T15:00:27.557Z</time>
      </trkpt>
      <trkpt lat="51.650489" lon="8.667876">
        <ele>164.541346</ele>
        <time>2022-04-09T15:00:51.003Z</time>
      </trkpt>
      <trkpt lat="51.650216" lon="8.667718">
        <ele>165.016511</ele>
        <time>2022-04-09T15:00:54.716Z</time>
      </trkpt>
      <trkpt lat="51.649737" lon="8.667549">
        <ele>165.819751</ele>
        <time>2022-04-09T15:01:01.198Z</time>
      </trkpt>
      <trkpt lat="51.648646" lon="8.667376">
        <ele>167.908314</ele>
        <time>2022-04-09T15:01:16.448Z</time>
      </trkpt>
      <trkpt lat="51.646963" lon="8.667110">
        <ele>171.894215</ele>
        <time>2022-04-09T15:01:41.105Z</time>
      </trkpt>
      <trkpt lat="51.646665" lon="8.667025">
        <ele>172.691411</ele>
        <time>2022-04-09T15:01:45.438Z</time>
      </trkpt>
      <trkpt lat="51.646043" lon="8.666790">
        <ele>174.374315</ele>
        <time>2022-04-09T15:01:55.083Z</time>
      </trkpt>
      <trkpt lat="51.645169" lon="8.666558">
        <ele>176.746470</ele>
        <time>2022-04-09T15:02:09.370Z</time>
      </trkpt>
      <trkpt lat="51.645086" lon="8.666611">
        <ele>176.990948</ele>
        <time>2022-04-09T15:02:10.833Z</time>
      </trkpt>
      <trkpt lat="51.644442" lon="8.667446">
        <ele>179.254401</ele>
        <time>2022-04-09T15:02:23.926Z</time>
      </trkpt>
      <trkpt lat="51.644251" lon="8.667594">
        <ele>179.834754</ele>
        <time>2022-04-09T15:02:26.894Z</time>
      </trkpt>
      <trkpt lat="51.644012" lon="8.667610">
        <ele>180.489791</ele>
        <time>2022-04-09T15:02:30.545Z</time>
      </trkpt>
      <trkpt lat="51.643735" lon="8.667451">
        <ele>181.016866</ele>
        <time>2022-04-09T15:02:34.816Z</time>
      </trkpt>
      <trkpt lat="51.643534" lon="8.667202">
        <ele>181.411257</ele>
        <time>2022-04-09T15:02:38.297Z</time>
      </trkpt>
      <trkpt lat="51.643172" lon="8.666551">
        <ele>182.255088</ele>
        <time>2022-04-09T15:02:45.446Z</time>
      </trkpt>
      <trkpt lat="51.642981" lon="8.666208">
        <ele>182.699968</ele>
        <time>2022-04-09T15:02:48.822Z</time>
      </trkpt>
      <trkpt lat="51.642748" lon="8.665989">
        <ele>183.119576</ele>
        <time>2022-04-09T15:02:51.837Z</time>
      </trkpt>
      <trkpt lat="51.642619" lon="8.665912">
        <ele>183.333574</ele>
        <time>2022-04-09T15:02:53.361Z</time>
      </trkpt>
      <trkpt lat="51.642462" lon="8.665828">
        <ele>183.476224</ele>
        <time>2022-04-09T15:02:55.056Z</time>
      </trkpt>
      <trkpt lat="51.642391" lon="8.665789">
        <ele>183.498584</ele>
        <time>2022-04-09T15:02:55.796Z</time>
      </trkpt>
      <trkpt lat="51.642266" lon="8.665725">
        <ele>183.537680</ele>
        <time>2022-04-09T15:02:57.185Z</time>
      </trkpt>
      <trkpt lat="51.641915" lon="8.665529">
        <ele>183.648411</ele>
        <time>2022-04-09T15:03:00.941Z</time>
      </trkpt>
      <trkpt lat="51.641843" lon="8.665493">
        <ele>183.670882</ele>
        <time>2022-04-09T15:03:01.701Z</time>
      </trkpt>
      <trkpt lat="51.641809" lon="8.665295">
        <ele>183.708885</ele>
        <time>2022-04-09T15:03:02.901Z</time>
      </trkpt>
      <trkpt lat="51.641742" lon="8.665261">
        <ele>183.729824</ele>
        <time>2022-04-09T15:03:03.638Z</time>
      </trkpt>
      <trkpt lat="51.641655" lon="8.665351">
        <ele>183.760641</ele>
        <time>2022-04-09T15:03:04.718Z</time>
      </trkpt>
      <trkpt lat="51.641645" lon="8.665275">
        <ele>183.775012</ele>
        <time>2022-04-09T15:03:05.201Z</time>
      </trkpt>
      <trkpt lat="51.641388" lon="8.665179">
        <ele>183.853651</ele>
        <time>2022-04-09T15:03:07.719Z</time>
      </trkpt>
      <trkpt lat="51.641110" lon="8.664923">
        <ele>183.949095</ele>
        <time>2022-04-09T15:03:10.561Z</time>
      </trkpt>
      <trkpt lat="51.640504" lon="8.664144">
        <ele>183.454553</ele>
        <time>2022-04-09T15:03:16.640Z</time>
      </trkpt>
      <trkpt lat="51.640589" lon="8.663825">
        <ele>183.279787</ele>
        <time>2022-04-09T15:03:18.242Z</time>
      </trkpt>
      <trkpt lat="51.640664" lon="8.662585">
        <ele>182.652595</ele>
        <time>2022-04-09T15:03:23.846Z</time>
      </trkpt>
      <trkpt lat="51.640754" lon="8.661105">
        <ele>182.002930</ele>
        <time>2022-04-09T15:03:30.567Z</time>
      </trkpt>
      <trkpt lat="51.640212" lon="8.659955">
        <ele>181.391597</ele>
        <time>2022-04-09T15:03:37.589Z</time>
      </trkpt>
      <trkpt lat="51.639735" lon="8.658954">
        <ele>181.543234</ele>
        <time>2022-04-09T15:03:44.700Z</time>
      </trkpt>
      <trkpt lat="51.637135" lon="8.653520">
        <ele>183.078721</ele>
        <time>2022-04-09T15:04:27.527Z</time>
      </trkpt>
      <trkpt lat="51.637056" lon="8.653485">
        <ele>183.105273</ele>
        <time>2022-04-09T15:04:28.271Z</time>
      </trkpt>
      <trkpt lat="51.636548" lon="8.651633">
        <ele>183.196340</ele>
        <time>2022-04-09T15:04:39.132Z</time>
      </trkpt>
      <trkpt lat="51.636533" lon="8.651581">
        <ele>183.194615</ele>
        <time>2022-04-09T15:04:39.407Z</time>
      </trkpt>
      <trkpt lat="51.636175" lon="8.650002">
        <ele>183.061268</ele>
        <time>2022-04-09T15:04:49.003Z</time>
      </trkpt>
      <trkpt lat="51.636051" lon="8.649376">
        <ele>182.779898</ele>
        <time>2022-04-09T15:04:52.254Z</time>
      </trkpt>
      <trkpt lat="51.635778" lon="8.648093">
        <ele>182.199136</ele>
        <time>2022-04-09T15:05:01.177Z</time>
      </trkpt>
      <trkpt lat="51.635404" lon="8.646310">
        <ele>180.865380</ele>
        <time>2022-04-09T15:05:13.185Z</time>
      </trkpt>
      <trkpt lat="51.635158" lon="8.645131">
        <ele>179.788109</ele>
        <time>2022-04-09T15:05:20.526Z</time>
      </trkpt>
      <trkpt lat="51.634685" lon="8.642821">
        <ele>178.297697</ele>
        <time>2022-04-09T15:05:36.132Z</time>
      </trkpt>
      <trkpt lat="51.634811" lon="8.638455">
        <ele>176.722460</ele>
        <time>2022-04-09T15:06:06.831Z</time>
      </trkpt>
      <trkpt lat="51.634755" lon="8.637413">
        <ele>176.135901</ele>
        <time>2022-04-09T15:06:14.042Z</time>
      </trkpt>
      <trkpt lat="51.634618" lon="8.634479">
        <ele>173.450682</ele>
        <time>2022-04-09T15:06:32.181Z</time>
      </trkpt>
      <trkpt lat="51.634577" lon="8.630272">
        <ele>167.844426</ele>
        <time>2022-04-09T15:06:55.974Z</time>
      </trkpt>
      <trkpt lat="51.634396" lon="8.628261">
        <ele>167.313672</ele>
        <time>2022-04-09T15:07:09.623Z</time>
      </trkpt>
      <trkpt lat="51.634227" lon="8.627679">
        <ele>167.145843</ele>
        <time>2022-04-09T15:07:14.847Z</time>
      </trkpt>
      <trkpt lat="51.634085" lon="8.622778">
        <ele>171.394129</ele>
        <time>2022-04-09T15:08:03.259Z</time>
      </trkpt>
      <trkpt lat="51.634056" lon="8.622135">
        <ele>171.987877</ele>
        <time>2022-04-09T15:08:10.062Z</time>
      </trkpt>
      <trkpt lat="51.634162" lon="8.621081">
        <ele>171.789305</ele>
        <time>2022-04-09T15:08:20.360Z</time>
      </trkpt>
      <trkpt lat="51.634937" lon="8.614283">
        <ele>165.343196</ele>
        <time>2022-04-09T15:09:01.402Z</time>
      </trkpt>
      <trkpt lat="51.635529" lon="8.608816">
        <ele>159.805167</ele>
        <time>2022-04-09T15:09:34.666Z</time>
      </trkpt>
      <trkpt lat="51.635707" lon="8.607333">
        <ele>158.729663</ele>
        <time>2022-04-09T15:09:41.926Z</time>
      </trkpt>
      <trkpt lat="51.636491" lon="8.600428">
        <ele>156.343581</ele>
        <time>2022-04-09T15:10:16.376Z</time>
      </trkpt>
      <trkpt lat="51.636672" lon="8.598768">
        <ele>155.638270</ele>
        <time>2022-04-09T15:10:24.758Z</time>
      </trkpt>
      <trkpt lat="51.636969" lon="8.596065">
        <ele>153.135807</ele>
        <time>2022-04-09T15:10:36.625Z</time>
      </trkpt>
      <trkpt lat="51.637040" lon="8.595513">
        <ele>151.830942</ele>
        <time>2022-04-09T15:10:38.847Z</time>
      </trkpt>
      <trkpt lat="51.637042" lon="8.595491">
        <ele>151.779475</ele>
        <time>2022-04-09T15:10:38.936Z</time>
      </trkpt>
      <trkpt lat="51.638127" lon="8.587137">
        <ele>131.629617</ele>
        <time>2022-04-09T15:11:10.005Z</time>
      </trkpt>
      <trkpt lat="51.638220" lon="8.586214">
        <ele>129.556202</ele>
        <time>2022-04-09T15:11:13.445Z</time>
      </trkpt>
      <trkpt lat="51.638243" lon="8.585984">
        <ele>129.039633</ele>
        <time>2022-04-09T15:11:14.268Z</time>
      </trkpt>
      <trkpt lat="51.639575" lon="8.586987">
        <ele>124.754872</ele>
        <time>2022-04-09T15:11:23.267Z</time>
      </trkpt>
      <trkpt lat="51.640230" lon="8.587439">
        <ele>123.251340</ele>
        <time>2022-04-09T15:11:28.092Z</time>
      </trkpt>
      <trkpt lat="51.640346" lon="8.587519">
        <ele>122.985091</ele>
        <time>2022-04-09T15:11:28.962Z</time>
      </trkpt>
      <trkpt lat="51.641168" lon="8.588161">
        <ele>121.789203</ele>
        <time>2022-04-09T15:11:35.395Z</time>
      </trkpt>
      <trkpt lat="51.643610" lon="8.589856">
        <ele>119.878687</ele>
        <time>2022-04-09T15:11:55.900Z</time>
      </trkpt>
      <trkpt lat="51.646047" lon="8.591416">
        <ele>119.020593</ele>
        <time>2022-04-09T15:12:18.337Z</time>
      </trkpt>
      <trkpt lat="51.647254" lon="8.592203">
        <ele>118.162413</ele>
        <time>2022-04-09T15:12:28.177Z</time>
      </trkpt>
      <trkpt lat="51.647814" lon="8.592569">
        <ele>117.227059</ele>
        <time>2022-04-09T15:12:32.433Z</time>
      </trkpt>
      <trkpt lat="51.649259" lon="8.593595">
        <ele>114.684902</ele>
        <time>2022-04-09T15:12:43.083Z</time>
      </trkpt>
      <trkpt lat="51.649766" lon="8.593914">
        <ele>113.705139</ele>
        <time>2022-04-09T15:12:46.689Z</time>
      </trkpt>
      <trkpt lat="51.650818" lon="8.594292">
        <ele>111.866334</ele>
        <time>2022-04-09T15:12:53.895Z</time>
      </trkpt>
      <trkpt lat="51.651714" lon="8.594302">
        <ele>110.681734</ele>
        <time>2022-04-09T15:13:00.125Z</time>
      </trkpt>
      <trkpt lat="51.652713" lon="8.593968">
        <ele>109.556626</ele>
        <time>2022-04-09T15:13:07.641Z</time>
      </trkpt>
      <trkpt lat="51.655060" lon="8.593014">
        <ele>107.968176</ele>
        <time>2022-04-09T15:13:26.714Z</time>
      </trkpt>
      <trkpt lat="51.656926" lon="8.592249">
        <ele>106.288005</ele>
        <time>2022-04-09T15:13:41.227Z</time>
      </trkpt>
      <trkpt lat="51.658989" lon="8.591407">
        <ele>103.844849</ele>
        <time>2022-04-09T15:13:56.229Z</time>
      </trkpt>
      <trkpt lat="51.661467" lon="8.590680">
        <ele>101.489521</ele>
        <time>2022-04-09T15:14:14.894Z</time>
      </trkpt>
      <trkpt lat="51.661937" lon="8.590542">
        <ele>101.172021</ele>
        <time>2022-04-09T15:14:18.560Z</time>
      </trkpt>
      <trkpt lat="51.662925" lon="8.590262">
        <ele>100.508989</ele>
        <time>2022-04-09T15:14:26.450Z</time>
      </trkpt>
      <trkpt lat="51.663965" lon="8.589827">
        <ele>100.135060</ele>
        <time>2022-04-09T15:14:35.120Z</time>
      </trkpt>
      <trkpt lat="51.665008" lon="8.589210">
        <ele>99.891789</ele>
        <time>2022-04-09T15:14:44.418Z</time>
      </trkpt>
      <trkpt lat="51.665197" lon="8.589085">
        <ele>99.894226</ele>
        <time>2022-04-09T15:14:46.240Z</time>
      </trkpt>
      <trkpt lat="51.665538" lon="8.588868">
        <ele>99.898597</ele>
        <time>2022-04-09T15:14:49.565Z</time>
      </trkpt>
      <trkpt lat="51.665689" lon="8.588848">
        <ele>99.900404</ele>
        <time>2022-04-09T15:14:50.940Z</time>
      </trkpt>
      <trkpt lat="51.665757" lon="8.588839">
        <ele>99.901218</ele>
        <time>2022-04-09T15:14:51.608Z</time>
      </trkpt>
      <trkpt lat="51.665914" lon="8.588909">
        <ele>99.903160</ele>
        <time>2022-04-09T15:14:53.129Z</time>
      </trkpt>
      <trkpt lat="51.666014" lon="8.588782">
        <ele>99.904678</ele>
        <time>2022-04-09T15:14:54.327Z</time>
      </trkpt>
      <trkpt lat="51.666034" lon="8.588643">
        <ele>99.905734</ele>
        <time>2022-04-09T15:14:55.185Z</time>
      </trkpt>
      <trkpt lat="51.666113" lon="8.588543">
        <ele>99.906931</ele>
        <time>2022-04-09T15:14:56.105Z</time>
      </trkpt>
      <trkpt lat="51.666188" lon="8.588448">
        <ele>99.908069</ele>
        <time>2022-04-09T15:14:56.972Z</time>
      </trkpt>
      <trkpt lat="51.666689" lon="8.588162">
        <ele>99.958001</ele>
        <time>2022-04-09T15:15:03.599Z</time>
      </trkpt>
      <trkpt lat="51.667308" lon="8.587948">
        <ele>100.021158</ele>
        <time>2022-04-09T15:15:11.316Z</time>
      </trkpt>
      <trkpt lat="51.667866" lon="8.587759">
        <ele>100.078040</ele>
        <time>2022-04-09T15:15:18.351Z</time>
      </trkpt>
      <trkpt lat="51.668157" lon="8.587671">
        <ele>100.142568</ele>
        <time>2022-04-09T15:15:21.917Z</time>
      </trkpt>
      <trkpt lat="51.668971" lon="8.587426">
        <ele>100.372263</ele>
        <time>2022-04-09T15:15:32.347Z</time>
      </trkpt>
      <trkpt lat="51.669587" lon="8.587285">
        <ele>100.544847</ele>
        <time>2022-04-09T15:15:40.496Z</time>
      </trkpt>
      <trkpt lat="51.669730" lon="8.587275">
        <ele>100.584551</ele>
        <time>2022-04-09T15:15:42.349Z</time>
      </trkpt>
      <trkpt lat="51.670225" lon="8.587345">
        <ele>101.029993</ele>
        <time>2022-04-09T15:15:49.126Z</time>
      </trkpt>
      <trkpt lat="51.670338" lon="8.587369">
        <ele>101.133361</ele>
        <time>2022-04-09T15:15:50.761Z</time>
      </trkpt>
      <trkpt lat="51.670653" lon="8.587457">
        <ele>101.423299</ele>
        <time>2022-04-09T15:15:55.406Z</time>
      </trkpt>
      <trkpt lat="51.670965" lon="8.587566">
        <ele>101.712827</ele>
        <time>2022-04-09T15:16:00.198Z</time>
      </trkpt>
      <trkpt lat="51.671224" lon="8.587656">
        <ele>101.953114</ele>
        <time>2022-04-09T15:16:04.234Z</time>
      </trkpt>
      <trkpt lat="51.671586" lon="8.587782">
        <ele>102.254073</ele>
        <time>2022-04-09T15:16:09.874Z</time>
      </trkpt>
      <trkpt lat="51.671769" lon="8.587823">
        <ele>102.339122</ele>
        <time>2022-04-09T15:16:12.522Z</time>
      </trkpt>
      <trkpt lat="51.672737" lon="8.588178">
        <ele>102.796101</ele>
        <time>2022-04-09T15:16:25.274Z</time>
      </trkpt>
      <trkpt lat="51.672909" lon="8.588244">
        <ele>102.877489</ele>
        <time>2022-04-09T15:16:27.680Z</time>
      </trkpt>
      <trkpt lat="51.673542" lon="8.588473">
        <ele>102.941478</ele>
        <time>2022-04-09T15:16:36.035Z</time>
      </trkpt>
      <trkpt lat="51.673697" lon="8.588529">
        <ele>102.882684</ele>
        <time>2022-04-09T15:16:37.831Z</time>
      </trkpt>
      <trkpt lat="51.673935" lon="8.588614">
        <ele>102.792456</ele>
        <time>2022-04-09T15:16:40.646Z</time>
      </trkpt>
      <trkpt lat="51.674210" lon="8.588714">
        <ele>102.688112</ele>
        <time>2022-04-09T15:16:43.805Z</time>
      </trkpt>
      <trkpt lat="51.674240" lon="8.588849">
        <ele>102.655196</ele>
        <time>2022-04-09T15:16:44.735Z</time>
      </trkpt>
      <trkpt lat="51.674279" lon="8.588890">
        <ele>102.637963</ele>
        <time>2022-04-09T15:16:45.209Z</time>
      </trkpt>
      <trkpt lat="51.674412" lon="8.588805">
        <ele>102.585010</ele>
        <time>2022-04-09T15:16:46.802Z</time>
      </trkpt>
      <trkpt lat="51.674391" lon="8.588606">
        <ele>102.538676</ele>
        <time>2022-04-09T15:16:48.109Z</time>
      </trkpt>
      <trkpt lat="51.674332" lon="8.588558">
        <ele>102.514216</ele>
        <time>2022-04-09T15:16:48.780Z</time>
      </trkpt>
      <trkpt lat="51.674352" lon="8.588330">
        <ele>102.461361</ele>
        <time>2022-04-09T15:16:50.415Z</time>
      </trkpt>
      <trkpt lat="51.674388" lon="8.587899">
        <ele>102.351376</ele>
        <time>2022-04-09T15:16:53.353Z</time>
      </trkpt>
      <trkpt lat="51.674644" lon="8.584892">
        <ele>101.282828</ele>
        <time>2022-04-09T15:17:14.135Z</time>
      </trkpt>
      <trkpt lat="51.674669" lon="8.584427">
        <ele>101.129082</ele>
        <time>2022-04-09T15:17:17.295Z</time>
      </trkpt>
      <trkpt lat="51.674524" lon="8.583581">
        <ele>100.839960</ele>
        <time>2022-04-09T15:17:23.264Z</time>
      </trkpt>
      <trkpt lat="51.674315" lon="8.582539">
        <ele>100.479214</ele>
        <time>2022-04-09T15:17:30.775Z</time>
      </trkpt>
      <trkpt lat="51.674219" lon="8.581709">
        <ele>100.348343</ele>
        <time>2022-04-09T15:17:36.643Z</time>
      </trkpt>
      <trkpt lat="51.673930" lon="8.579282">
        <ele>100.190094</ele>
        <time>2022-04-09T15:17:54.973Z</time>
      </trkpt>
      <trkpt lat="51.673861" lon="8.579100">
        <ele>100.233758</ele>
        <time>2022-04-09T15:17:56.663Z</time>
      </trkpt>
      <trkpt lat="51.673896" lon="8.578916">
        <ele>100.273152</ele>
        <time>2022-04-09T15:17:58.180Z</time>
      </trkpt>
      <trkpt lat="51.673489" lon="8.575399">
        <ele>101.023547</ele>
        <time>2022-04-09T15:18:27.424Z</time>
      </trkpt>
      <trkpt lat="51.673054" lon="8.571406">
        <ele>101.910926</ele>
        <time>2022-04-09T15:18:59.682Z</time>
      </trkpt>
      <trkpt lat="51.672764" lon="8.569878">
        <ele>102.476084</ele>
        <time>2022-04-09T15:19:13.093Z</time>
      </trkpt>
      <trkpt lat="51.671944" lon="8.565698">
        <ele>104.277961</ele>
        <time>2022-04-09T15:19:50.834Z</time>
      </trkpt>
      <trkpt lat="51.671751" lon="8.564716">
        <ele>104.429549</ele>
        <time>2022-04-09T15:19:59.049Z</time>
      </trkpt>
      <trkpt lat="51.671709" lon="8.564500">
        <ele>104.437218</ele>
        <time>2022-04-09T15:20:00.871Z</time>
      </trkpt>
      <trkpt lat="51.672304" lon="8.564251">
        <ele>104.470796</ele>
        <time>2022-04-09T15:20:06.446Z</time>
      </trkpt>
      <trkpt lat="51.673259" lon="8.563838">
        <ele>104.364270</ele>
        <time>2022-04-09T15:20:14.658Z</time>
      </trkpt>
      <trkpt lat="51.674450" lon="8.563392">
        <ele>103.929266</ele>
        <time>2022-04-09T15:20:24.607Z</time>
      </trkpt>
      <trkpt lat="51.674837" lon="8.563347">
        <ele>103.805111</ele>
        <time>2022-04-09T15:20:27.702Z</time>
      </trkpt>
      <trkpt lat="51.675732" lon="8.563243">
        <ele>103.547187</ele>
        <time>2022-04-09T15:20:35.134Z</time>
      </trkpt>
      <trkpt lat="51.676430" lon="8.563210">
        <ele>103.346393</ele>
        <time>2022-04-09T15:20:41.091Z</time>
      </trkpt>
      <trkpt lat="51.676721" lon="8.563167">
        <ele>103.149850</ele>
        <time>2022-04-09T15:20:43.538Z</time>
      </trkpt>
      <trkpt lat="51.677389" lon="8.563187">
        <ele>102.700484</ele>
        <time>2022-04-09T15:20:50.958Z</time>
      </trkpt>
      <trkpt lat="51.677604" lon="8.563290">
        <ele>102.549633</ele>
        <time>2022-04-09T15:20:53.351Z</time>
      </trkpt>
      <trkpt lat="51.677851" lon="8.563450">
        <ele>102.370603</ele>
        <time>2022-04-09T15:20:56.140Z</time>
      </trkpt>
      <trkpt lat="51.678322" lon="8.564065">
        <ele>101.945993</ele>
        <time>2022-04-09T15:21:02.365Z</time>
      </trkpt>
      <trkpt lat="51.678393" lon="8.564217">
        <ele>101.858861</ele>
        <time>2022-04-09T15:21:03.537Z</time>
      </trkpt>
      <trkpt lat="51.678843" lon="8.565138">
        <ele>101.321989</ele>
        <time>2022-04-09T15:21:11.124Z</time>
      </trkpt>
      <trkpt lat="51.679156" lon="8.565604">
        <ele>101.007443</ele>
        <time>2022-04-09T15:21:15.868Z</time>
      </trkpt>
      <trkpt lat="51.679422" lon="8.565824">
        <ele>100.810100</ele>
        <time>2022-04-09T15:21:19.271Z</time>
      </trkpt>
      <trkpt lat="51.679890" lon="8.565969">
        <ele>100.833065</ele>
        <time>2022-04-09T15:21:25.131Z</time>
      </trkpt>
      <trkpt lat="51.679983" lon="8.565973">
        <ele>100.837548</ele>
        <time>2022-04-09T15:21:26.304Z</time>
      </trkpt>
      <trkpt lat="51.680621" lon="8.565844">
        <ele>100.868534</ele>
        <time>2022-04-09T15:21:34.594Z</time>
      </trkpt>
      <trkpt lat="51.681435" lon="8.565664">
        <ele>100.803072</ele>
        <time>2022-04-09T15:21:44.691Z</time>
      </trkpt>
      <trkpt lat="51.681483" lon="8.566038">
        <ele>100.720712</ele>
        <time>2022-04-09T15:21:47.387Z</time>
      </trkpt>
      <trkpt lat="51.681441" lon="8.566046">
        <ele>100.706003</ele>
        <time>2022-04-09T15:21:47.869Z</time>
      </trkpt>
      <trkpt lat="51.681459" lon="8.566214">
        <ele>100.669237</ele>
        <time>2022-04-09T15:21:49.536Z</time>
      </trkpt>
      <trkpt lat="51.681468" lon="8.566299">
        <ele>100.650642</ele>
        <time>2022-04-09T15:21:50.379Z</time>
      </trkpt>
      <trkpt lat="51.681491" lon="8.566515">
        <ele>100.603381</ele>
        <time>2022-04-09T15:21:52.470Z</time>
      </trkpt>
      <trkpt lat="51.681541" lon="8.566504">
        <ele>100.585830</ele>
        <time>2022-04-09T15:21:55.823Z</time>
      </trkpt>
      <trkpt lat="51.681435" lon="8.567333">
        <ele>100.403299</ele>
        <time>2022-04-09T15:22:01.541Z</time>
      </trkpt>
      <trkpt lat="51.681923" lon="8.567235">
        <ele>100.275266</ele>
        <time>2022-04-09T15:22:06.986Z</time>
      </trkpt>
      <trkpt lat="51.682620" lon="8.567048">
        <ele>100.311192</ele>
        <time>2022-04-09T15:22:15.562Z</time>
      </trkpt>
      <trkpt lat="51.682961" lon="8.566957">
        <ele>100.328766</ele>
        <time>2022-04-09T15:22:20.021Z</time>
      </trkpt>
      <trkpt lat="51.683197" lon="8.566892">
        <ele>100.340939</ele>
        <time>2022-04-09T15:22:23.126Z</time>
      </trkpt>
      <trkpt lat="51.683072" lon="8.566079">
        <ele>100.249965</ele>
        <time>2022-04-09T15:22:28.294Z</time>
      </trkpt>
      <trkpt lat="51.683035" lon="8.565565">
        <ele>99.952962</ele>
        <time>2022-04-09T15:22:31.039Z</time>
      </trkpt>
      <trkpt lat="51.683028" lon="8.565448">
        <ele>99.885495</ele>
        <time>2022-04-09T15:22:31.651Z</time>
      </trkpt>
      <trkpt lat="51.683023" lon="8.565319">
        <ele>99.811308</ele>
        <time>2022-04-09T15:22:32.307Z</time>
      </trkpt>
      <trkpt lat="51.683261" lon="8.565008">
        <ele>99.527746</ele>
        <time>2022-04-09T15:22:34.762Z</time>
      </trkpt>
      <trkpt lat="51.683333" lon="8.564961">
        <ele>99.455840</ele>
        <time>2022-04-09T15:22:35.357Z</time>
      </trkpt>
      <trkpt lat="51.683712" lon="8.564711">
        <ele>99.076775</ele>
        <time>2022-04-09T15:22:38.365Z</time>
      </trkpt>
      <trkpt lat="51.683730" lon="8.564756">
        <ele>99.046038</ele>
        <time>2022-04-09T15:22:38.591Z</time>
      </trkpt>
      <trkpt lat="51.683897" lon="8.564853">
        <ele>98.881720</ele>
        <time>2022-04-09T15:22:39.775Z</time>
      </trkpt>
      <trkpt lat="51.684237" lon="8.564861">
        <ele>98.291972</ele>
        <time>2022-04-09T15:22:41.909Z</time>
      </trkpt>
      <trkpt lat="51.684189" lon="8.564117">
        <ele>96.949079</ele>
        <time>2022-04-09T15:22:44.804Z</time>
      </trkpt>
      <trkpt lat="51.684176" lon="8.563902">
        <ele>96.561264</ele>
        <time>2022-04-09T15:22:45.593Z</time>
      </trkpt>
      <trkpt lat="51.684306" lon="8.563565">
        <ele>95.848711</ele>
        <time>2022-04-09T15:22:47.116Z</time>
      </trkpt>
      <trkpt lat="51.684548" lon="8.563451">
        <ele>95.118696</ele>
        <time>2022-04-09T15:22:48.606Z</time>
      </trkpt>
      <trkpt lat="51.684829" lon="8.563569">
        <ele>94.277903</ele>
        <time>2022-04-09T15:22:50.353Z</time>
      </trkpt>
      <trkpt lat="51.684977" lon="8.563561">
        <ele>93.849111</ele>
        <time>2022-04-09T15:22:51.315Z</time>
      </trkpt>
      <trkpt lat="51.685371" lon="8.563444">
        <ele>92.907561</ele>
        <time>2022-04-09T15:22:53.812Z</time>
      </trkpt>
      <trkpt lat="51.685574" lon="8.563285">
        <ele>92.432828</ele>
        <time>2022-04-09T15:22:55.191Z</time>
      </trkpt>
      <trkpt lat="51.685962" lon="8.562776">
        <ele>91.380725</ele>
        <time>2022-04-09T15:22:58.398Z</time>
      </trkpt>
      <trkpt lat="51.686146" lon="8.562428">
        <ele>90.784216</ele>
        <time>2022-04-09T15:23:00.271Z</time>
      </trkpt>
      <trkpt lat="51.686598" lon="8.560617">
        <ele>89.310782</ele>
        <time>2022-04-09T15:23:09.076Z</time>
      </trkpt>
      <trkpt lat="51.686636" lon="8.560460">
        <ele>89.251797</ele>
        <time>2022-04-09T15:23:09.913Z</time>
      </trkpt>
      <trkpt lat="51.687269" lon="8.557589">
        <ele>88.475027</ele>
        <time>2022-04-09T15:23:25.860Z</time>
      </trkpt>
      <trkpt lat="51.687394" lon="8.557366">
        <ele>88.430342</ele>
        <time>2022-04-09T15:23:27.486Z</time>
      </trkpt>
      <trkpt lat="51.688029" lon="8.556727">
        <ele>88.249965</ele>
        <time>2022-04-09T15:23:33.761Z</time>
      </trkpt>
      <trkpt lat="51.688101" lon="8.556570">
        <ele>88.216888</ele>
        <time>2022-04-09T15:23:34.728Z</time>
      </trkpt>
      <trkpt lat="51.687968" lon="8.554867">
        <ele>87.926160</ele>
        <time>2022-04-09T15:23:43.385Z</time>
      </trkpt>
      <trkpt lat="51.687976" lon="8.554548">
        <ele>87.872085</ele>
        <time>2022-04-09T15:23:45.052Z</time>
      </trkpt>
      <trkpt lat="51.688385" lon="8.553845">
        <ele>87.780382</ele>
        <time>2022-04-09T15:23:50.133Z</time>
      </trkpt>
      <trkpt lat="51.689229" lon="8.552430">
        <ele>87.862402</ele>
        <time>2022-04-09T15:24:01.296Z</time>
      </trkpt>
      <trkpt lat="51.690882" lon="8.549640">
        <ele>88.138592</ele>
        <time>2022-04-09T15:24:23.849Z</time>
      </trkpt>
      <trkpt lat="51.691070" lon="8.549311">
        <ele>88.056162</ele>
        <time>2022-04-09T15:24:26.145Z</time>
      </trkpt>
      <trkpt lat="51.692197" lon="8.547471">
        <ele>87.641377</ele>
        <time>2022-04-09T15:24:38.908Z</time>
      </trkpt>
      <trkpt lat="51.692273" lon="8.547230">
        <ele>87.625503</ele>
        <time>2022-04-09T15:24:40.216Z</time>
      </trkpt>
      <trkpt lat="51.693838" lon="8.537662">
        <ele>87.060556</ele>
        <time>2022-04-09T15:25:34.120Z</time>
      </trkpt>
      <trkpt lat="51.694190" lon="8.535489">
        <ele>86.838431</ele>
        <time>2022-04-09T15:25:46.019Z</time>
      </trkpt>
      <trkpt lat="51.694824" lon="8.531566">
        <ele>86.327584</ele>
        <time>2022-04-09T15:26:07.018Z</time>
      </trkpt>
      <trkpt lat="51.694858" lon="8.531386">
        <ele>86.304894</ele>
        <time>2022-04-09T15:26:08.025Z</time>
      </trkpt>
      <trkpt lat="51.694430" lon="8.530644">
        <ele>86.291516</ele>
        <time>2022-04-09T15:26:13.748Z</time>
      </trkpt>
      <trkpt lat="51.692389" lon="8.527099">
        <ele>86.349723</ele>
        <time>2022-04-09T15:26:40.834Z</time>
      </trkpt>
      <trkpt lat="51.691901" lon="8.526251">
        <ele>86.235063</ele>
        <time>2022-04-09T15:26:46.809Z</time>
      </trkpt>
      <trkpt lat="51.690301" lon="8.523378">
        <ele>85.697488</ele>
        <time>2022-04-09T15:27:06.967Z</time>
      </trkpt>
      <trkpt lat="51.688445" lon="8.520153">
        <ele>85.144683</ele>
        <time>2022-04-09T15:27:29.735Z</time>
      </trkpt>
      <trkpt lat="51.686902" lon="8.517393">
        <ele>85.303199</ele>
        <time>2022-04-09T15:27:51.123Z</time>
      </trkpt>
      <trkpt lat="51.686653" lon="8.516957">
        <ele>85.323516</ele>
        <time>2022-04-09T15:27:54.451Z</time>
      </trkpt>
      <trkpt lat="51.683603" lon="8.511596">
        <ele>85.053029</ele>
        <time>2022-04-09T15:28:33.829Z</time>
      </trkpt>
      <trkpt lat="51.682951" lon="8.511409">
        <ele>84.923446</ele>
        <time>2022-04-09T15:28:39.520Z</time>
      </trkpt>
      <trkpt lat="51.681231" lon="8.510951">
        <ele>84.578792</ele>
        <time>2022-04-09T15:28:54.055Z</time>
      </trkpt>
      <trkpt lat="51.680978" lon="8.510883">
        <ele>84.527602</ele>
        <time>2022-04-09T15:28:56.246Z</time>
      </trkpt>
      <trkpt lat="51.680040" lon="8.510604">
        <ele>84.456840</ele>
        <time>2022-04-09T15:29:04.330Z</time>
      </trkpt>
      <trkpt lat="51.679539" lon="8.510449">
        <ele>84.547850</ele>
        <time>2022-04-09T15:29:09.073Z</time>
      </trkpt>
      <trkpt lat="51.679421" lon="8.510440">
        <ele>84.568925</ele>
        <time>2022-04-09T15:29:10.195Z</time>
      </trkpt>
      <trkpt lat="51.678801" lon="8.510705">
        <ele>84.683353</ele>
        <time>2022-04-09T15:29:16.463Z</time>
      </trkpt>
      <trkpt lat="51.678618" lon="8.510798">
        <ele>84.717584</ele>
        <time>2022-04-09T15:29:18.325Z</time>
      </trkpt>
      <trkpt lat="51.677785" lon="8.511138">
        <ele>85.083961</ele>
        <time>2022-04-09T15:29:26.612Z</time>
      </trkpt>
      <trkpt lat="51.676465" lon="8.511529">
        <ele>85.692447</ele>
        <time>2022-04-09T15:29:40.341Z</time>
      </trkpt>
      <trkpt lat="51.675539" lon="8.505261">
        <ele>87.487202</ele>
        <time>2022-04-09T15:30:33.486Z</time>
      </trkpt>
      <trkpt lat="51.675603" lon="8.498981">
        <ele>88.252140</ele>
        <time>2022-04-09T15:31:22.287Z</time>
      </trkpt>
      <trkpt lat="51.675640" lon="8.495364">
        <ele>88.247678</ele>
        <time>2022-04-09T15:31:49.733Z</time>
      </trkpt>
      <trkpt lat="51.674847" lon="8.486315">
        <ele>86.223440</ele>
        <time>2022-04-09T15:32:35.425Z</time>
      </trkpt>
      <trkpt lat="51.672035" lon="8.487015">
        <ele>87.529082</ele>
        <time>2022-04-09T15:33:04.481Z</time>
      </trkpt>
      <trkpt lat="51.668591" lon="8.487873">
        <ele>88.612957</ele>
        <time>2022-04-09T15:33:38.999Z</time>
      </trkpt>
      <trkpt lat="51.668124" lon="8.485171">
        <ele>88.255289</ele>
        <time>2022-04-09T15:33:58.431Z</time>
      </trkpt>
      <trkpt lat="51.668112" lon="8.485102">
        <ele>88.237679</ele>
        <time>2022-04-09T15:33:58.915Z</time>
      </trkpt>
      <trkpt lat="51.667752" lon="8.483016">
        <ele>87.805621</ele>
        <time>2022-04-09T15:34:14.299Z</time>
      </trkpt>
      <trkpt lat="51.667731" lon="8.482860">
        <ele>87.787963</ele>
        <time>2022-04-09T15:34:15.453Z</time>
      </trkpt>
      <trkpt lat="51.667630" lon="8.478361">
        <ele>87.596213</ele>
        <time>2022-04-09T15:34:48.468Z</time>
      </trkpt>
      <trkpt lat="51.665838" lon="8.476490">
        <ele>88.653778</ele>
        <time>2022-04-09T15:35:17.160Z</time>
      </trkpt>
      <trkpt lat="51.665290" lon="8.475917">
        <ele>89.362328</ele>
        <time>2022-04-09T15:35:26.760Z</time>
      </trkpt>
      <trkpt lat="51.664356" lon="8.474764">
        <ele>90.624956</ele>
        <time>2022-04-09T15:35:44.476Z</time>
      </trkpt>
      <trkpt lat="51.664065" lon="8.474408">
        <ele>90.980250</ele>
        <time>2022-04-09T15:35:48.718Z</time>
      </trkpt>
      <trkpt lat="51.663102" lon="8.473599">
        <ele>92.036420</ele>
        <time>2022-04-09T15:36:00.865Z</time>
      </trkpt>
      <trkpt lat="51.662737" lon="8.473060">
        <ele>92.385450</ele>
        <time>2022-04-09T15:36:06.173Z</time>
      </trkpt>
      <trkpt lat="51.662411" lon="8.472709">
        <ele>92.572899</ele>
        <time>2022-04-09T15:36:10.331Z</time>
      </trkpt>
      <trkpt lat="51.661886" lon="8.472093">
        <ele>92.883384</ele>
        <time>2022-04-09T15:36:16.738Z</time>
      </trkpt>
      <trkpt lat="51.661205" lon="8.471270">
        <ele>93.273115</ele>
        <time>2022-04-09T15:36:24.791Z</time>
      </trkpt>
      <trkpt lat="51.661113" lon="8.470232">
        <ele>93.553116</ele>
        <time>2022-04-09T15:36:33.086Z</time>
      </trkpt>
      <trkpt lat="51.660936" lon="8.469561">
        <ele>93.747828</ele>
        <time>2022-04-09T15:36:39.003Z</time>
      </trkpt>
      <trkpt lat="51.659623" lon="8.464631">
        <ele>96.174275</ele>
        <time>2022-04-09T15:37:25.574Z</time>
      </trkpt>
      <trkpt lat="51.659482" lon="8.464365">
        <ele>96.339162</ele>
        <time>2022-04-09T15:37:28.628Z</time>
      </trkpt>
      <trkpt lat="51.658732" lon="8.463720">
        <ele>96.980399</ele>
        <time>2022-04-09T15:37:40.508Z</time>
      </trkpt>
      <trkpt lat="51.658636" lon="8.463647">
        <ele>97.059996</ele>
        <time>2022-04-09T15:37:41.982Z</time>
      </trkpt>
      <trkpt lat="51.658477" lon="8.463520">
        <ele>97.193064</ele>
        <time>2022-04-09T15:37:44.442Z</time>
      </trkpt>
      <trkpt lat="51.658376" lon="8.463362">
        <ele>97.298604</ele>
        <time>2022-04-09T15:37:45.928Z</time>
      </trkpt>
      <trkpt lat="51.658261" lon="8.462986">
        <ele>97.493622</ele>
        <time>2022-04-09T15:37:48.660Z</time>
      </trkpt>
      <trkpt lat="51.657205" lon="8.456459">
        <ele>100.565003</ele>
        <time>2022-04-09T15:38:33.326Z</time>
      </trkpt>
      <trkpt lat="51.657088" lon="8.455710">
        <ele>100.826581</ele>
        <time>2022-04-09T15:38:38.361Z</time>
      </trkpt>
      <trkpt lat="51.656802" lon="8.453918">
        <ele>101.422639</ele>
        <time>2022-04-09T15:38:50.097Z</time>
      </trkpt>
      <trkpt lat="51.656723" lon="8.452980">
        <ele>101.684876</ele>
        <time>2022-04-09T15:38:55.711Z</time>
      </trkpt>
      <trkpt lat="51.656699" lon="8.452873">
        <ele>101.712973</ele>
        <time>2022-04-09T15:38:56.354Z</time>
      </trkpt>
      <trkpt lat="51.656664" lon="8.452899">
        <ele>101.728313</ele>
        <time>2022-04-09T15:38:56.730Z</time>
      </trkpt>
      <trkpt lat="51.656351" lon="8.453172">
        <ele>101.869972</ele>
        <time>2022-04-09T15:39:00.084Z</time>
      </trkpt>
      <trkpt lat="51.655382" lon="8.454030">
        <ele>102.307724</ele>
        <time>2022-04-09T15:39:11.073Z</time>
      </trkpt>
      <trkpt lat="51.654945" lon="8.454417">
        <ele>102.496878</ele>
        <time>2022-04-09T15:39:16.267Z</time>
      </trkpt>
      <trkpt lat="51.654906" lon="8.454452">
        <ele>102.513812</ele>
        <time>2022-04-09T15:39:16.705Z</time>
      </trkpt>
      <trkpt lat="51.654053" lon="8.455211">
        <ele>102.883441</ele>
        <time>2022-04-09T15:39:26.229Z</time>
      </trkpt>
      <trkpt lat="51.653664" lon="8.455557">
        <ele>102.901826</ele>
        <time>2022-04-09T15:39:30.471Z</time>
      </trkpt>
      <trkpt lat="51.653293" lon="8.455888">
        <ele>102.841154</ele>
        <time>2022-04-09T15:39:34.363Z</time>
      </trkpt>
      <trkpt lat="51.652308" lon="8.456766">
        <ele>102.656881</ele>
        <time>2022-04-09T15:39:43.622Z</time>
      </trkpt>
      <trkpt lat="51.652228" lon="8.456835">
        <ele>102.589056</ele>
        <time>2022-04-09T15:39:44.329Z</time>
      </trkpt>
      <trkpt lat="51.648997" lon="8.459693">
        <ele>99.892630</ele>
        <time>2022-04-09T15:40:12.116Z</time>
      </trkpt>
      <trkpt lat="51.645627" lon="8.462680">
        <ele>99.098760</ele>
        <time>2022-04-09T15:40:44.846Z</time>
      </trkpt>
      <trkpt lat="51.645435" lon="8.462849">
        <ele>99.100246</ele>
        <time>2022-04-09T15:40:46.738Z</time>
      </trkpt>
      <trkpt lat="51.642714" lon="8.465239">
        <ele>99.569880</ele>
        <time>2022-04-09T15:41:15.083Z</time>
      </trkpt>
      <trkpt lat="51.642602" lon="8.465348">
        <ele>99.686110</ele>
        <time>2022-04-09T15:41:16.549Z</time>
      </trkpt>
      <trkpt lat="51.641610" lon="8.466225">
        <ele>100.691242</ele>
        <time>2022-04-09T15:41:29.441Z</time>
      </trkpt>
      <trkpt lat="51.640981" lon="8.466684">
        <ele>101.362529</ele>
        <time>2022-04-09T15:41:37.428Z</time>
      </trkpt>
      <trkpt lat="51.640851" lon="8.466747">
        <ele>101.506182</ele>
        <time>2022-04-09T15:41:38.961Z</time>
      </trkpt>
      <trkpt lat="51.640293" lon="8.466876">
        <ele>102.102704</ele>
        <time>2022-04-09T15:41:45.549Z</time>
      </trkpt>
      <trkpt lat="51.639409" lon="8.467072">
        <ele>103.039190</ele>
        <time>2022-04-09T15:41:55.501Z</time>
      </trkpt>
      <trkpt lat="51.639404" lon="8.467228">
        <ele>103.136150</ele>
        <time>2022-04-09T15:41:56.567Z</time>
      </trkpt>
      <trkpt lat="51.639319" lon="8.467968">
        <ele>103.603279</ele>
        <time>2022-04-09T15:42:01.847Z</time>
      </trkpt>
      <trkpt lat="51.639224" lon="8.468978">
        <ele>104.237359</ele>
        <time>2022-04-09T15:42:09.284Z</time>
      </trkpt>
      <trkpt lat="51.639179" lon="8.469463">
        <ele>104.541752</ele>
        <time>2022-04-09T15:42:12.894Z</time>
      </trkpt>
      <trkpt lat="51.639121" lon="8.471036">
        <ele>105.035924</ele>
        <time>2022-04-09T15:42:23.124Z</time>
      </trkpt>
      <trkpt lat="51.639144" lon="8.471579">
        <ele>105.173344</ele>
        <time>2022-04-09T15:42:26.276Z</time>
      </trkpt>
      <trkpt lat="51.639151" lon="8.471625">
        <ele>105.185303</ele>
        <time>2022-04-09T15:42:26.539Z</time>
      </trkpt>
      <trkpt lat="51.639380" lon="8.472373">
        <ele>105.395893</ele>
        <time>2022-04-09T15:42:31.135Z</time>
      </trkpt>
      <trkpt lat="51.639141" lon="8.472530">
        <ele>105.465742</ele>
        <time>2022-04-09T15:42:34.296Z</time>
      </trkpt>
      <trkpt lat="51.639110" lon="8.472548">
        <ele>105.471903</ele>
        <time>2022-04-09T15:42:34.699Z</time>
      </trkpt>
      <trkpt lat="51.638851" lon="8.472701">
        <ele>105.523476</ele>
        <time>2022-04-09T15:42:38.164Z</time>
      </trkpt>
      <trkpt lat="51.638314" lon="8.472611">
        <ele>105.624413</ele>
        <time>2022-04-09T15:42:44.937Z</time>
      </trkpt>
      <trkpt lat="51.638233" lon="8.472594">
        <ele>105.639684</ele>
        <time>2022-04-09T15:42:45.890Z</time>
      </trkpt>
      <trkpt lat="51.638074" lon="8.472525">
        <ele>105.670470</ele>
        <time>2022-04-09T15:42:47.962Z</time>
      </trkpt>
      <trkpt lat="51.637886" lon="8.472443">
        <ele>105.706882</ele>
        <time>2022-04-09T15:42:50.317Z</time>
      </trkpt>
      <trkpt lat="51.637856" lon="8.472430">
        <ele>105.712690</ele>
        <time>2022-04-09T15:42:50.705Z</time>
      </trkpt>
      <trkpt lat="51.637253" lon="8.472207">
        <ele>105.941577</ele>
        <time>2022-04-09T15:42:58.787Z</time>
      </trkpt>
      <trkpt lat="51.636989" lon="8.472189">
        <ele>106.090435</ele>
        <time>2022-04-09T15:43:02.410Z</time>
      </trkpt>
      <trkpt lat="51.636293" lon="8.472153">
        <ele>106.482730</ele>
        <time>2022-04-09T15:43:12.238Z</time>
      </trkpt>
      <trkpt lat="51.634976" lon="8.472139">
        <ele>107.029490</ele>
        <time>2022-04-09T15:43:29.395Z</time>
      </trkpt>
      <trkpt lat="51.634173" lon="8.472097">
        <ele>107.280993</ele>
        <time>2022-04-09T15:43:39.587Z</time>
      </trkpt>
      <trkpt lat="51.633745" lon="8.472115">
        <ele>107.531079</ele>
        <time>2022-04-09T15:43:45.111Z</time>
      </trkpt>
      <trkpt lat="51.632932" lon="8.472149">
        <ele>108.229412</ele>
        <time>2022-04-09T15:43:56.007Z</time>
      </trkpt>
      <trkpt lat="51.631738" lon="8.473594">
        <ele>110.009511</ele>
        <time>2022-04-09T15:44:19.116Z</time>
      </trkpt>
      <trkpt lat="51.630871" lon="8.474644">
        <ele>111.691050</ele>
        <time>2022-04-09T15:44:36.526Z</time>
      </trkpt>
      <trkpt lat="51.630445" lon="8.475056">
        <ele>112.533162</ele>
        <time>2022-04-09T15:44:44.483Z</time>
      </trkpt>
      <trkpt lat="51.629741" lon="8.475982">
        <ele>114.073518</ele>
        <time>2022-04-09T15:44:59.195Z</time>
      </trkpt>
      <trkpt lat="51.628186" lon="8.477397">
        <ele>117.280320</ele>
        <time>2022-04-09T15:45:28.741Z</time>
      </trkpt>
      <trkpt lat="51.627439" lon="8.477873">
        <ele>118.583912</ele>
        <time>2022-04-09T15:45:42.029Z</time>
      </trkpt>
      <trkpt lat="51.625726" lon="8.478974">
        <ele>120.906946</ele>
        <time>2022-04-09T15:46:10.294Z</time>
      </trkpt>
      <trkpt lat="51.624393" lon="8.479285">
        <ele>121.913861</ele>
        <time>2022-04-09T15:46:28.281Z</time>
      </trkpt>
      <trkpt lat="51.624330" lon="8.479300">
        <ele>121.968880</ele>
        <time>2022-04-09T15:46:29.131Z</time>
      </trkpt>
      <trkpt lat="51.623735" lon="8.479439">
        <ele>122.490186</ele>
        <time>2022-04-09T15:46:37.427Z</time>
      </trkpt>
      <trkpt lat="51.623363" lon="8.480272">
        <ele>123.042550</ele>
        <time>2022-04-09T15:46:46.364Z</time>
      </trkpt>
      <trkpt lat="51.623310" lon="8.480405">
        <ele>123.127624</ele>
        <time>2022-04-09T15:46:47.781Z</time>
      </trkpt>
      <trkpt lat="51.622913" lon="8.481402">
        <ele>124.038355</ele>
        <time>2022-04-09T15:46:58.866Z</time>
      </trkpt>
      <trkpt lat="51.622739" lon="8.481819">
        <ele>124.563066</ele>
        <time>2022-04-09T15:47:04.013Z</time>
      </trkpt>
      <trkpt lat="51.619506" lon="8.483779">
        <ele>130.821696</ele>
        <time>2022-04-09T15:48:01.031Z</time>
      </trkpt>
      <trkpt lat="51.618917" lon="8.484561">
        <ele>132.388753</ele>
        <time>2022-04-09T15:48:13.897Z</time>
      </trkpt>
      <trkpt lat="51.618066" lon="8.487582">
        <ele>136.909844</ele>
        <time>2022-04-09T15:48:50.527Z</time>
      </trkpt>
      <trkpt lat="51.613061" lon="8.486529">
        <ele>146.172768</ele>
        <time>2022-04-09T15:50:13.472Z</time>
      </trkpt>
      <trkpt lat="51.611592" lon="8.486221">
        <ele>147.911421</ele>
        <time>2022-04-09T15:50:38.427Z</time>
      </trkpt>
      <trkpt lat="51.611593" lon="8.481431">
        <ele>148.247814</ele>
        <time>2022-04-09T15:51:02.154Z</time>
      </trkpt>
      <trkpt lat="51.609954" lon="8.481509">
        <ele>150.348625</ele>
        <time>2022-04-09T15:51:22.716Z</time>
      </trkpt>
      <trkpt lat="51.609113" lon="8.481352">
        <ele>152.377175</ele>
        <time>2022-04-09T15:51:35.294Z</time>
      </trkpt>
      <trkpt lat="51.603689" lon="8.481276">
        <ele>166.294112</ele>
        <time>2022-04-09T15:52:57.414Z</time>
      </trkpt>
      <trkpt lat="51.602549" lon="8.481111">
        <ele>169.226466</ele>
        <time>2022-04-09T15:53:14.871Z</time>
      </trkpt>
      <trkpt lat="51.601821" lon="8.481006">
        <ele>171.035040</ele>
        <time>2022-04-09T15:53:25.544Z</time>
      </trkpt>
      <trkpt lat="51.601112" lon="8.480941">
        <ele>172.792228</ele>
        <time>2022-04-09T15:53:35.920Z</time>
      </trkpt>
      <trkpt lat="51.599945" lon="8.481544">
        <ele>176.059823</ele>
        <time>2022-04-09T15:53:54.985Z</time>
      </trkpt>
      <trkpt lat="51.599228" lon="8.481754">
        <ele>177.970148</ele>
        <time>2022-04-09T15:54:06.242Z</time>
      </trkpt>
      <trkpt lat="51.597440" lon="8.482105">
        <ele>182.036849</ele>
        <time>2022-04-09T15:54:32.069Z</time>
      </trkpt>
      <trkpt lat="51.596348" lon="8.482459">
        <ele>184.066506</ele>
        <time>2022-04-09T15:54:46.185Z</time>
      </trkpt>
      <trkpt lat="51.596348" lon="8.482459">
        <ele>184.066506</ele>
        <time>2022-04-09T15:54:46.324Z</time>
      </trkpt>
      <trkpt lat="51.596348" lon="8.482459">
        <ele>184.066506</ele>
        <time>2022-04-09T15:54:46.348Z</time>
      </trkpt>
      <trkpt lat="51.595396" lon="8.482866">
        <ele>186.111950</ele>
        <time>2022-04-09T15:54:59.544Z</time>
      </trkpt>
      <trkpt lat="51.592654" lon="8.483545">
        <ele>192.953560</ele>
        <time>2022-04-09T15:55:42.012Z</time>
      </trkpt>
      <trkpt lat="51.587200" lon="8.487132">
        <ele>204.911221</ele>
        <time>2022-04-09T15:57:02.599Z</time>
      </trkpt>
      <trkpt lat="51.587439" lon="8.488977">
        <ele>206.992459</ele>
        <time>2022-04-09T15:57:17.621Z</time>
      </trkpt>
      <trkpt lat="51.587387" lon="8.490088">
        <ele>208.317684</ele>
        <time>2022-04-09T15:57:26.663Z</time>
      </trkpt>
      <trkpt lat="51.587308" lon="8.491799">
        <ele>210.931913</ele>
        <time>2022-04-09T15:57:42.523Z</time>
      </trkpt>
      <trkpt lat="51.587334" lon="8.493183">
        <ele>213.171620</ele>
        <time>2022-04-09T15:57:55.934Z</time>
      </trkpt>
      <trkpt lat="51.587221" lon="8.494187">
        <ele>215.033444</ele>
        <time>2022-04-09T15:58:06.006Z</time>
      </trkpt>
      <trkpt lat="51.587017" lon="8.495537">
        <ele>217.568619</ele>
        <time>2022-04-09T15:58:20.058Z</time>
      </trkpt>
      <trkpt lat="51.586740" lon="8.498417">
        <ele>222.724514</ele>
        <time>2022-04-09T15:58:48.672Z</time>
      </trkpt>
      <trkpt lat="51.586375" lon="8.501326">
        <ele>227.432106</ele>
        <time>2022-04-09T15:59:16.211Z</time>
      </trkpt>
      <trkpt lat="51.586262" lon="8.502949">
        <ele>229.691187</ele>
        <time>2022-04-09T15:59:30.861Z</time>
      </trkpt>
      <trkpt lat="51.585859" lon="8.504827">
        <ele>232.221662</ele>
        <time>2022-04-09T15:59:47.967Z</time>
      </trkpt>
      <trkpt lat="51.585564" lon="8.506199">
        <ele>233.815982</ele>
        <time>2022-04-09T15:59:59.924Z</time>
      </trkpt>
      <trkpt lat="51.585374" lon="8.507103">
        <ele>234.639835</ele>
        <time>2022-04-09T16:00:07.328Z</time>
      </trkpt>
      <trkpt lat="51.585349" lon="8.507495">
        <ele>234.751965</ele>
        <time>2022-04-09T16:00:10.239Z</time>
      </trkpt>
      <trkpt lat="51.585325" lon="8.507931">
        <ele>234.876514</ele>
        <time>2022-04-09T16:00:13.284Z</time>
      </trkpt>
      <trkpt lat="51.585241" lon="8.509732">
        <ele>235.364057</ele>
        <time>2022-04-09T16:00:23.870Z</time>
      </trkpt>
      <trkpt lat="51.585157" lon="8.511401">
        <ele>233.463264</ele>
        <time>2022-04-09T16:00:31.257Z</time>
      </trkpt>
      <trkpt lat="51.585060" lon="8.513404">
        <ele>230.421378</ele>
        <time>2022-04-09T16:00:38.920Z</time>
      </trkpt>
      <trkpt lat="51.585050" lon="8.513598">
        <ele>230.016856</ele>
        <time>2022-04-09T16:00:39.648Z</time>
      </trkpt>
      <trkpt lat="51.585022" lon="8.513917">
        <ele>229.347383</ele>
        <time>2022-04-09T16:00:40.832Z</time>
      </trkpt>
      <trkpt lat="51.584924" lon="8.514248">
        <ele>228.585459</ele>
        <time>2022-04-09T16:00:42.188Z</time>
      </trkpt>
      <trkpt lat="51.584713" lon="8.514652">
        <ele>227.488752</ele>
        <time>2022-04-09T16:00:44.108Z</time>
      </trkpt>
      <trkpt lat="51.584270" lon="8.515291">
        <ele>225.849988</ele>
        <time>2022-04-09T16:00:47.691Z</time>
      </trkpt>
      <trkpt lat="51.583634" lon="8.516043">
        <ele>224.794273</ele>
        <time>2022-04-09T16:00:52.783Z</time>
      </trkpt>
      <trkpt lat="51.583624" lon="8.516193">
        <ele>224.668876</ele>
        <time>2022-04-09T16:00:53.385Z</time>
      </trkpt>
      <trkpt lat="51.582578" lon="8.516344">
        <ele>224.532718</ele>
        <time>2022-04-09T16:01:03.304Z</time>
      </trkpt>
      <trkpt lat="51.581932" lon="8.516438">
        <ele>226.325621</ele>
        <time>2022-04-09T16:01:12.831Z</time>
      </trkpt>
      <trkpt lat="51.581584" lon="8.516499">
        <ele>227.293222</ele>
        <time>2022-04-09T16:01:19.075Z</time>
      </trkpt>
      <trkpt lat="51.581471" lon="8.516557">
        <ele>227.621070</ele>
        <time>2022-04-09T16:01:21.454Z</time>
      </trkpt>
      <trkpt lat="51.581019" lon="8.517097">
        <ele>229.539709</ele>
        <time>2022-04-09T16:01:32.351Z</time>
      </trkpt>
      <trkpt lat="51.580511" lon="8.517774">
        <ele>232.615692</ele>
        <time>2022-04-09T16:01:45.683Z</time>
      </trkpt>
      <trkpt lat="51.580190" lon="8.518203">
        <ele>234.561621</ele>
        <time>2022-04-09T16:01:54.398Z</time>
      </trkpt>
      <trkpt lat="51.580039" lon="8.518577">
        <ele>235.854151</ele>
        <time>2022-04-09T16:02:00.150Z</time>
      </trkpt>
      <trkpt lat="51.579711" lon="8.519734">
        <ele>239.108841</ele>
        <time>2022-04-09T16:02:15.695Z</time>
      </trkpt>
      <trkpt lat="51.579529" lon="8.520392">
        <ele>240.836779</ele>
        <time>2022-04-09T16:02:24.035Z</time>
      </trkpt>
      <trkpt lat="51.579253" lon="8.520731">
        <ele>242.177251</ele>
        <time>2022-04-09T16:02:29.957Z</time>
      </trkpt>
      <trkpt lat="51.578777" lon="8.521255">
        <ele>244.280677</ele>
        <time>2022-04-09T16:02:39.424Z</time>
      </trkpt>
      <trkpt lat="51.578640" lon="8.521185">
        <ele>244.673837</ele>
        <time>2022-04-09T16:02:42.116Z</time>
      </trkpt>
      <trkpt lat="51.578004" lon="8.521332">
        <ele>246.431281</ele>
        <time>2022-04-09T16:02:52.327Z</time>
      </trkpt>
      <trkpt lat="51.577740" lon="8.521288">
        <ele>247.157239</ele>
        <time>2022-04-09T16:02:56.385Z</time>
      </trkpt>
      <trkpt lat="51.577634" lon="8.521240">
        <ele>247.458432</ele>
        <time>2022-04-09T16:02:58.151Z</time>
      </trkpt>
      <trkpt lat="51.577445" lon="8.521154">
        <ele>247.995658</ele>
        <time>2022-04-09T16:03:01.044Z</time>
      </trkpt>
      <trkpt lat="51.577225" lon="8.520949">
        <ele>248.691016</ele>
        <time>2022-04-09T16:03:04.878Z</time>
      </trkpt>
      <trkpt lat="51.577140" lon="8.520791">
        <ele>248.948321</ele>
        <time>2022-04-09T16:03:06.584Z</time>
      </trkpt>
      <trkpt lat="51.577036" lon="8.520427">
        <ele>249.169853</ele>
        <time>2022-04-09T16:03:09.805Z</time>
      </trkpt>
      <trkpt lat="51.576983" lon="8.519501">
        <ele>249.684066</ele>
        <time>2022-04-09T16:03:17.112Z</time>
      </trkpt>
      <trkpt lat="51.576849" lon="8.518542">
        <ele>250.227598</ele>
        <time>2022-04-09T16:03:23.281Z</time>
      </trkpt>
      <trkpt lat="51.576443" lon="8.517351">
        <ele>249.959936</ele>
        <time>2022-04-09T16:03:29.944Z</time>
      </trkpt>
      <trkpt lat="51.576216" lon="8.516946">
        <ele>249.617708</ele>
        <time>2022-04-09T16:03:32.374Z</time>
      </trkpt>
      <trkpt lat="51.575482" lon="8.515734">
        <ele>248.642387</ele>
        <time>2022-04-09T16:03:39.737Z</time>
      </trkpt>
      <trkpt lat="51.575041" lon="8.514701">
        <ele>248.381359</ele>
        <time>2022-04-09T16:03:45.196Z</time>
      </trkpt>
      <trkpt lat="51.574532" lon="8.513510">
        <ele>248.109210</ele>
        <time>2022-04-09T16:03:53.522Z</time>
      </trkpt>
      <trkpt lat="51.574067" lon="8.512660">
        <ele>250.810593</ele>
        <time>2022-04-09T16:04:03.711Z</time>
      </trkpt>
      <trkpt lat="51.571954" lon="8.509215">
        <ele>264.615388</ele>
        <time>2022-04-09T16:05:08.965Z</time>
      </trkpt>
      <trkpt lat="51.571624" lon="8.508438">
        <ele>266.267531</ele>
        <time>2022-04-09T16:05:19.330Z</time>
      </trkpt>
      <trkpt lat="51.571217" lon="8.506403">
        <ele>269.739290</ele>
        <time>2022-04-09T16:05:37.109Z</time>
      </trkpt>
      <trkpt lat="51.571212" lon="8.506376">
        <ele>269.767930</ele>
        <time>2022-04-09T16:05:37.313Z</time>
      </trkpt>
      <trkpt lat="51.570961" lon="8.505122">
        <ele>271.107208</ele>
        <time>2022-04-09T16:05:46.884Z</time>
      </trkpt>
      <trkpt lat="51.570823" lon="8.504736">
        <ele>271.559898</ele>
        <time>2022-04-09T16:05:50.366Z</time>
      </trkpt>
      <trkpt lat="51.569852" lon="8.503702">
        <ele>274.011611</ele>
        <time>2022-04-09T16:06:06.850Z</time>
      </trkpt>
      <trkpt lat="51.568956" lon="8.502747">
        <ele>276.591519</ele>
        <time>2022-04-09T16:06:23.280Z</time>
      </trkpt>
      <trkpt lat="51.568466" lon="8.502394">
        <ele>277.678399</ele>
        <time>2022-04-09T16:06:31.094Z</time>
      </trkpt>
      <trkpt lat="51.567684" lon="8.502073">
        <ele>279.307409</ele>
        <time>2022-04-09T16:06:42.257Z</time>
      </trkpt>
      <trkpt lat="51.567379" lon="8.501861">
        <ele>279.978045</ele>
        <time>2022-04-09T16:06:46.601Z</time>
      </trkpt>
      <trkpt lat="51.566260" lon="8.500259">
        <ele>281.895129</ele>
        <time>2022-04-09T16:07:04.327Z</time>
      </trkpt>
      <trkpt lat="51.564364" lon="8.496489">
        <ele>285.432816</ele>
        <time>2022-04-09T16:07:38.326Z</time>
      </trkpt>
      <trkpt lat="51.564059" lon="8.496010">
        <ele>286.090965</ele>
        <time>2022-04-09T16:07:43.787Z</time>
      </trkpt>
      <trkpt lat="51.563669" lon="8.495701">
        <ele>286.762222</ele>
        <time>2022-04-09T16:07:49.729Z</time>
      </trkpt>
      <trkpt lat="51.562865" lon="8.495382">
        <ele>288.850246</ele>
        <time>2022-04-09T16:08:01.658Z</time>
      </trkpt>
      <trkpt lat="51.562577" lon="8.495267">
        <ele>289.664418</ele>
        <time>2022-04-09T16:08:06.157Z</time>
      </trkpt>
      <trkpt lat="51.562051" lon="8.495302">
        <ele>291.108848</ele>
        <time>2022-04-09T16:08:14.284Z</time>
      </trkpt>
      <trkpt lat="51.561899" lon="8.495332">
        <ele>291.529021</ele>
        <time>2022-04-09T16:08:16.817Z</time>
      </trkpt>
      <trkpt lat="51.561686" lon="8.495376">
        <ele>292.187172</ele>
        <time>2022-04-09T16:08:20.995Z</time>
      </trkpt>
      <trkpt lat="51.560848" lon="8.495426">
        <ele>295.349209</ele>
        <time>2022-04-09T16:08:36.075Z</time>
      </trkpt>
      <trkpt lat="51.560706" lon="8.495334">
        <ele>295.926452</ele>
        <time>2022-04-09T16:08:38.813Z</time>
      </trkpt>
      <trkpt lat="51.560477" lon="8.495020">
        <ele>297.061106</ele>
        <time>2022-04-09T16:08:44.018Z</time>
      </trkpt>
      <trkpt lat="51.560364" lon="8.494966">
        <ele>297.505604</ele>
        <time>2022-04-09T16:08:46.640Z</time>
      </trkpt>
      <trkpt lat="51.559588" lon="8.494967">
        <ele>300.554693</ele>
        <time>2022-04-09T16:09:00.369Z</time>
      </trkpt>
      <trkpt lat="51.559377" lon="8.494806">
        <ele>301.498443</ele>
        <time>2022-04-09T16:09:04.530Z</time>
      </trkpt>
      <trkpt lat="51.559091" lon="8.494405">
        <ele>303.031660</ele>
        <time>2022-04-09T16:09:12.189Z</time>
      </trkpt>
      <trkpt lat="51.558972" lon="8.494304">
        <ele>303.575394</ele>
        <time>2022-04-09T16:09:14.949Z</time>
      </trkpt>
      <trkpt lat="51.558754" lon="8.494250">
        <ele>304.466740</ele>
        <time>2022-04-09T16:09:19.048Z</time>
      </trkpt>
      <trkpt lat="51.558279" lon="8.494329">
        <ele>306.298103</ele>
        <time>2022-04-09T16:09:27.850Z</time>
      </trkpt>
      <trkpt lat="51.557788" lon="8.494788">
        <ele>308.044644</ele>
        <time>2022-04-09T16:09:37.680Z</time>
      </trkpt>
      <trkpt lat="51.557318" lon="8.495362">
        <ele>309.859544</ele>
        <time>2022-04-09T16:09:46.936Z</time>
      </trkpt>
      <trkpt lat="51.556875" lon="8.495925">
        <ele>311.546795</ele>
        <time>2022-04-09T16:09:55.790Z</time>
      </trkpt>
      <trkpt lat="51.556652" lon="8.496095">
        <ele>311.837466</ele>
        <time>2022-04-09T16:09:59.409Z</time>
      </trkpt>
      <trkpt lat="51.556393" lon="8.496083">
        <ele>312.142656</ele>
        <time>2022-04-09T16:10:02.853Z</time>
      </trkpt>
      <trkpt lat="51.556379" lon="8.496450">
        <ele>312.411924</ele>
        <time>2022-04-09T16:10:05.667Z</time>
      </trkpt>
      <trkpt lat="51.556294" lon="8.497708">
        <ele>313.338611</ele>
        <time>2022-04-09T16:10:13.766Z</time>
      </trkpt>
      <trkpt lat="51.555911" lon="8.498704">
        <ele>313.548152</ele>
        <time>2022-04-09T16:10:20.910Z</time>
      </trkpt>
      <trkpt lat="51.554350" lon="8.502638">
        <ele>312.567625</ele>
        <time>2022-04-09T16:10:44.194Z</time>
      </trkpt>
      <trkpt lat="51.553476" lon="8.504840">
        <ele>312.003306</ele>
        <time>2022-04-09T16:10:56.950Z</time>
      </trkpt>
      <trkpt lat="51.553415" lon="8.505089">
        <ele>311.948633</ele>
        <time>2022-04-09T16:10:58.412Z</time>
      </trkpt>
      <trkpt lat="51.553124" lon="8.508143">
        <ele>312.788854</ele>
        <time>2022-04-09T16:11:18.120Z</time>
      </trkpt>
      <trkpt lat="51.552996" lon="8.510884">
        <ele>314.054999</ele>
        <time>2022-04-09T16:11:36.957Z</time>
      </trkpt>
      <trkpt lat="51.552934" lon="8.512032">
        <ele>314.223634</ele>
        <time>2022-04-09T16:11:43.926Z</time>
      </trkpt>
      <trkpt lat="51.552872" lon="8.512725">
        <ele>314.242316</ele>
        <time>2022-04-09T16:11:47.889Z</time>
      </trkpt>
      <trkpt lat="51.552723" lon="8.512983">
        <ele>314.251711</ele>
        <time>2022-04-09T16:11:49.705Z</time>
      </trkpt>
      <trkpt lat="51.552573" lon="8.513128">
        <ele>314.259221</ele>
        <time>2022-04-09T16:11:51.303Z</time>
      </trkpt>
      <trkpt lat="51.552590" lon="8.513388">
        <ele>314.266197</ele>
        <time>2022-04-09T16:11:52.602Z</time>
      </trkpt>
      <trkpt lat="51.552981" lon="8.514169">
        <ele>314.280568</ele>
        <time>2022-04-09T16:11:57.640Z</time>
      </trkpt>
      <trkpt lat="51.553270" lon="8.514762">
        <ele>314.283569</ele>
        <time>2022-04-09T16:12:01.385Z</time>
      </trkpt>
      <trkpt lat="51.553389" lon="8.515168">
        <ele>314.285357</ele>
        <time>2022-04-09T16:12:03.907Z</time>
      </trkpt>
      <trkpt lat="51.553427" lon="8.515587">
        <ele>314.287043</ele>
        <time>2022-04-09T16:12:06.237Z</time>
      </trkpt>
      <trkpt lat="51.553399" lon="8.516033">
        <ele>314.288829</ele>
        <time>2022-04-09T16:12:08.823Z</time>
      </trkpt>
      <trkpt lat="51.551173" lon="8.524146">
        <ele>319.308326</ele>
        <time>2022-04-09T16:13:11.429Z</time>
      </trkpt>
      <trkpt lat="51.550721" lon="8.525793">
        <ele>317.030267</ele>
        <time>2022-04-09T16:13:20.921Z</time>
      </trkpt>
      <trkpt lat="51.550181" lon="8.527678">
        <ele>310.062739</ele>
        <time>2022-04-09T16:13:28.193Z</time>
      </trkpt>
      <trkpt lat="51.550053" lon="8.527875">
        <ele>308.359972</ele>
        <time>2022-04-09T16:13:29.102Z</time>
      </trkpt>
      <trkpt lat="51.549900" lon="8.527856">
        <ele>306.885151</ele>
        <time>2022-04-09T16:13:29.903Z</time>
      </trkpt>
      <trkpt lat="51.548234" lon="8.527115">
        <ele>288.942722</ele>
        <time>2022-04-09T16:13:38.650Z</time>
      </trkpt>
      <trkpt lat="51.547919" lon="8.526866">
        <ele>285.000187</ele>
        <time>2022-04-09T16:13:40.437Z</time>
      </trkpt>
      <trkpt lat="51.546711" lon="8.525531">
        <ele>269.832973</ele>
        <time>2022-04-09T16:13:48.049Z</time>
      </trkpt>
      <trkpt lat="51.546430" lon="8.525456">
        <ele>267.074184</ele>
        <time>2022-04-09T16:13:49.555Z</time>
      </trkpt>
      <trkpt lat="51.545576" lon="8.525532">
        <ele>258.546566</ele>
        <time>2022-04-09T16:13:53.966Z</time>
      </trkpt>
      <trkpt lat="51.545314" lon="8.525556">
        <ele>255.648981</ele>
        <time>2022-04-09T16:13:55.313Z</time>
      </trkpt>
      <trkpt lat="51.545044" lon="8.525723">
        <ele>252.454809</ele>
        <time>2022-04-09T16:13:56.775Z</time>
      </trkpt>
      <trkpt lat="51.544411" lon="8.526542">
        <ele>243.483802</ele>
        <time>2022-04-09T16:14:00.913Z</time>
      </trkpt>
      <trkpt lat="51.544314" lon="8.526671">
        <ele>242.093911</ele>
        <time>2022-04-09T16:14:01.543Z</time>
      </trkpt>
      <trkpt lat="51.544072" lon="8.526744">
        <ele>239.874904</ele>
        <time>2022-04-09T16:14:02.834Z</time>
      </trkpt>
      <trkpt lat="51.543758" lon="8.526473">
        <ele>237.457256</ele>
        <time>2022-04-09T16:14:04.684Z</time>
      </trkpt>
      <trkpt lat="51.543619" lon="8.526392">
        <ele>236.454257</ele>
        <time>2022-04-09T16:14:05.441Z</time>
      </trkpt>
      <trkpt lat="51.542941" lon="8.525770">
        <ele>231.158673</ele>
        <time>2022-04-09T16:14:09.681Z</time>
      </trkpt>
      <trkpt lat="51.542719" lon="8.525604">
        <ele>229.497723</ele>
        <time>2022-04-09T16:14:11.185Z</time>
      </trkpt>
      <trkpt lat="51.542298" lon="8.525264">
        <ele>228.464438</ele>
        <time>2022-04-09T16:14:14.301Z</time>
      </trkpt>
      <trkpt lat="51.541801" lon="8.524978">
        <ele>228.456886</ele>
        <time>2022-04-09T16:14:18.594Z</time>
      </trkpt>
      <trkpt lat="51.541663" lon="8.524936">
        <ele>228.454877</ele>
        <time>2022-04-09T16:14:20.046Z</time>
      </trkpt>
      <trkpt lat="51.541578" lon="8.525266">
        <ele>228.451699</ele>
        <time>2022-04-09T16:14:22.537Z</time>
      </trkpt>
      <trkpt lat="51.541556" lon="8.525360">
        <ele>228.450805</ele>
        <time>2022-04-09T16:14:23.287Z</time>
      </trkpt>
      <trkpt lat="51.541473" lon="8.525726">
        <ele>228.447339</ele>
        <time>2022-04-09T16:14:26.158Z</time>
      </trkpt>
      <trkpt lat="51.541419" lon="8.525984">
        <ele>228.444917</ele>
        <time>2022-04-09T16:14:28.301Z</time>
      </trkpt>
      <trkpt lat="51.541383" lon="8.526166">
        <ele>228.455839</ele>
        <time>2022-04-09T16:14:29.781Z</time>
      </trkpt>
      <trkpt lat="51.541264" lon="8.526907">
        <ele>229.894991</ele>
        <time>2022-04-09T16:14:36.601Z</time>
      </trkpt>
      <trkpt lat="51.541223" lon="8.527220">
        <ele>230.496501</ele>
        <time>2022-04-09T16:14:39.751Z</time>
      </trkpt>
      <trkpt lat="51.541193" lon="8.527421">
        <ele>230.885214</ele>
        <time>2022-04-09T16:14:41.884Z</time>
      </trkpt>
      <trkpt lat="51.541176" lon="8.527544">
        <ele>231.122158</ele>
        <time>2022-04-09T16:14:43.131Z</time>
      </trkpt>
      <trkpt lat="51.540548" lon="8.527200">
        <ele>233.128121</ele>
        <time>2022-04-09T16:14:54.700Z</time>
      </trkpt>
      <trkpt lat="51.540403" lon="8.527188">
        <ele>233.567116</ele>
        <time>2022-04-09T16:14:57.216Z</time>
      </trkpt>
      <trkpt lat="51.540256" lon="8.527203">
        <ele>234.044158</ele>
        <time>2022-04-09T16:15:00.069Z</time>
      </trkpt>
      <trkpt lat="51.539939" lon="8.527399">
        <ele>235.319619</ele>
        <time>2022-04-09T16:15:06.416Z</time>
      </trkpt>
      <trkpt lat="51.539333" lon="8.528043">
        <ele>238.047606</ele>
        <time>2022-04-09T16:15:19.695Z</time>
      </trkpt>
      <trkpt lat="51.538939" lon="8.528311">
        <ele>239.654214</ele>
        <time>2022-04-09T16:15:27.450Z</time>
      </trkpt>
      <trkpt lat="51.538463" lon="8.528506">
        <ele>241.207993</ele>
        <time>2022-04-09T16:15:35.789Z</time>
      </trkpt>
      <trkpt lat="51.537288" lon="8.528988">
        <ele>244.226269</ele>
        <time>2022-04-09T16:15:55.224Z</time>
      </trkpt>
      <trkpt lat="51.535759" lon="8.529259">
        <ele>245.168210</ele>
        <time>2022-04-09T16:16:11.076Z</time>
      </trkpt>
      <trkpt lat="51.535016" lon="8.529248">
        <ele>245.115095</ele>
        <time>2022-04-09T16:16:16.389Z</time>
      </trkpt>
      <trkpt lat="51.534797" lon="8.529188">
        <ele>244.971134</ele>
        <time>2022-04-09T16:16:17.938Z</time>
      </trkpt>
      <trkpt lat="51.534360" lon="8.528910">
        <ele>244.666585</ele>
        <time>2022-04-09T16:16:21.256Z</time>
      </trkpt>
      <trkpt lat="51.533660" lon="8.528335">
        <ele>244.157188</ele>
        <time>2022-04-09T16:16:27.072Z</time>
      </trkpt>
      <trkpt lat="51.531182" lon="8.527571">
        <ele>246.022551</ele>
        <time>2022-04-09T16:16:57.113Z</time>
      </trkpt>
      <trkpt lat="51.530432" lon="8.527534">
        <ele>246.186224</ele>
        <time>2022-04-09T16:17:03.982Z</time>
      </trkpt>
      <trkpt lat="51.529731" lon="8.527273">
        <ele>246.156612</ele>
        <time>2022-04-09T16:17:09.601Z</time>
      </trkpt>
      <trkpt lat="51.529230" lon="8.527185">
        <ele>245.800449</ele>
        <time>2022-04-09T16:17:13.240Z</time>
      </trkpt>
      <trkpt lat="51.528883" lon="8.527326">
        <ele>245.547511</ele>
        <time>2022-04-09T16:17:15.784Z</time>
      </trkpt>
      <trkpt lat="51.528320" lon="8.527744">
        <ele>245.109247</ele>
        <time>2022-04-09T16:17:20.446Z</time>
      </trkpt>
      <trkpt lat="51.527778" lon="8.528460">
        <ele>245.060825</ele>
        <time>2022-04-09T16:17:27.205Z</time>
      </trkpt>
      <trkpt lat="51.527338" lon="8.529483">
        <ele>245.104010</ele>
        <time>2022-04-09T16:17:34.983Z</time>
      </trkpt>
      <trkpt lat="51.526783" lon="8.530398">
        <ele>244.454599</ele>
        <time>2022-04-09T16:17:41.663Z</time>
      </trkpt>
      <trkpt lat="51.526252" lon="8.531315">
        <ele>242.982745</ele>
        <time>2022-04-09T16:17:46.946Z</time>
      </trkpt>
      <trkpt lat="51.525545" lon="8.532213">
        <ele>241.096687</ele>
        <time>2022-04-09T16:17:52.431Z</time>
      </trkpt>
      <trkpt lat="51.525003" lon="8.532737">
        <ele>239.413750</ele>
        <time>2022-04-09T16:17:56.261Z</time>
      </trkpt>
      <trkpt lat="51.524430" lon="8.533292">
        <ele>237.633672</ele>
        <time>2022-04-09T16:18:00.502Z</time>
      </trkpt>
      <trkpt lat="51.523911" lon="8.534065">
        <ele>236.794541</ele>
        <time>2022-04-09T16:18:05.289Z</time>
      </trkpt>
      <trkpt lat="51.523378" lon="8.534858">
        <ele>236.549650</ele>
        <time>2022-04-09T16:18:11.405Z</time>
      </trkpt>
      <trkpt lat="51.522831" lon="8.535674">
        <ele>236.467486</ele>
        <time>2022-04-09T16:18:19.050Z</time>
      </trkpt>
      <trkpt lat="51.521662" lon="8.537366">
        <ele>238.102709</ele>
        <time>2022-04-09T16:18:37.121Z</time>
      </trkpt>
      <trkpt lat="51.521136" lon="8.538142">
        <ele>239.715781</ele>
        <time>2022-04-09T16:18:45.894Z</time>
      </trkpt>
      <trkpt lat="51.520652" lon="8.538739">
        <ele>241.218667</ele>
        <time>2022-04-09T16:18:54.081Z</time>
      </trkpt>
      <trkpt lat="51.520607" lon="8.538794">
        <ele>241.357927</ele>
        <time>2022-04-09T16:18:55.091Z</time>
      </trkpt>
      <trkpt lat="51.519754" lon="8.539594">
        <ele>245.022196</ele>
        <time>2022-04-09T16:19:13.737Z</time>
      </trkpt>
      <trkpt lat="51.520260" lon="8.540765">
        <ele>249.545189</ele>
        <time>2022-04-09T16:19:31.617Z</time>
      </trkpt>
      <trkpt lat="51.520486" lon="8.540948">
        <ele>250.835467</ele>
        <time>2022-04-09T16:19:37.381Z</time>
      </trkpt>
      <trkpt lat="51.521015" lon="8.541091">
        <ele>255.564417</ele>
        <time>2022-04-09T16:19:50.603Z</time>
      </trkpt>
      <trkpt lat="51.521269" lon="8.541424">
        <ele>259.128733</ele>
        <time>2022-04-09T16:20:01.196Z</time>
      </trkpt>
      <trkpt lat="51.521357" lon="8.541795">
        <ele>261.815068</ele>
        <time>2022-04-09T16:20:10.421Z</time>
      </trkpt>
      <trkpt lat="51.521325" lon="8.541999">
        <ele>263.238487</ele>
        <time>2022-04-09T16:20:15.187Z</time>
      </trkpt>
      <trkpt lat="51.521250" lon="8.542094">
        <ele>264.276860</ele>
        <time>2022-04-09T16:20:19.156Z</time>
      </trkpt>
      <trkpt lat="51.520906" lon="8.542103">
        <ele>268.017900</ele>
        <time>2022-04-09T16:20:33.433Z</time>
      </trkpt>
      <trkpt lat="51.519420" lon="8.542905">
        <ele>286.388631</ele>
        <time>2022-04-09T16:21:38.375Z</time>
      </trkpt>
      <trkpt lat="51.518673" lon="8.543934">
        <ele>294.944656</ele>
        <time>2022-04-09T16:22:08.273Z</time>
      </trkpt>
      <trkpt lat="51.518645" lon="8.544112">
        <ele>295.490763</ele>
        <time>2022-04-09T16:22:11.065Z</time>
      </trkpt>
      <trkpt lat="51.519045" lon="8.544102">
        <ele>297.403022</ele>
        <time>2022-04-09T16:22:18.132Z</time>
      </trkpt>
      <trkpt lat="51.519519" lon="8.544446">
        <ele>299.889096</ele>
        <time>2022-04-09T16:22:24.888Z</time>
      </trkpt>
      <trkpt lat="51.519630" lon="8.544667">
        <ele>300.733855</ele>
        <time>2022-04-09T16:22:27.614Z</time>
      </trkpt>
      <trkpt lat="51.519643" lon="8.544880">
        <ele>301.370438</ele>
        <time>2022-04-09T16:22:29.718Z</time>
      </trkpt>
      <trkpt lat="51.519512" lon="8.544984">
        <ele>301.919850</ele>
        <time>2022-04-09T16:22:32.536Z</time>
      </trkpt>
      <trkpt lat="51.519250" lon="8.544808">
        <ele>302.967093</ele>
        <time>2022-04-09T16:22:36.800Z</time>
      </trkpt>
      <trkpt lat="51.519075" lon="8.544834">
        <ele>303.615226</ele>
        <time>2022-04-09T16:22:39.730Z</time>
      </trkpt>
      <trkpt lat="51.518491" lon="8.545201">
        <ele>305.927767</ele>
        <time>2022-04-09T16:22:51.527Z</time>
      </trkpt>
      <trkpt lat="51.518250" lon="8.545671">
        <ele>307.325357</ele>
        <time>2022-04-09T16:22:59.082Z</time>
      </trkpt>
      <trkpt lat="51.518259" lon="8.546004">
        <ele>308.093513</ele>
        <time>2022-04-09T16:23:02.738Z</time>
      </trkpt>
      <trkpt lat="51.518330" lon="8.546228">
        <ele>308.716842</ele>
        <time>2022-04-09T16:23:05.601Z</time>
      </trkpt>
      <trkpt lat="51.518716" lon="8.547059">
        <ele>311.288134</ele>
        <time>2022-04-09T16:23:17.127Z</time>
      </trkpt>
      <trkpt lat="51.519015" lon="8.547925">
        <ele>313.743816</ele>
        <time>2022-04-09T16:23:28.603Z</time>
      </trkpt>
      <trkpt lat="51.519177" lon="8.548780">
        <ele>315.884071</ele>
        <time>2022-04-09T16:23:39.048Z</time>
      </trkpt>
      <trkpt lat="51.519487" lon="8.549919">
        <ele>318.651855</ele>
        <time>2022-04-09T16:23:53.450Z</time>
      </trkpt>
      <trkpt lat="51.520253" lon="8.552722">
        <ele>324.134255</ele>
        <time>2022-04-09T16:24:24.342Z</time>
      </trkpt>
      <trkpt lat="51.521574" lon="8.557996">
        <ele>329.433949</ele>
        <time>2022-04-09T16:25:06.922Z</time>
      </trkpt>
      <trkpt lat="51.520666" lon="8.559041">
        <ele>330.309808</ele>
        <time>2022-04-09T16:25:24.003Z</time>
      </trkpt>
      <trkpt lat="51.519936" lon="8.560722">
        <ele>329.908579</ele>
        <time>2022-04-09T16:25:38.591Z</time>
      </trkpt>
      <trkpt lat="51.519858" lon="8.560902">
        <ele>329.865646</ele>
        <time>2022-04-09T16:25:39.876Z</time>
      </trkpt>
      <trkpt lat="51.519649" lon="8.561495">
        <ele>329.105976</ele>
        <time>2022-04-09T16:25:43.794Z</time>
      </trkpt>
      <trkpt lat="51.519491" lon="8.561762">
        <ele>328.637381</ele>
        <time>2022-04-09T16:25:45.873Z</time>
      </trkpt>
      <trkpt lat="51.519112" lon="8.562205">
        <ele>327.679553</ele>
        <time>2022-04-09T16:25:50.089Z</time>
      </trkpt>
      <trkpt lat="51.519152" lon="8.563013">
        <ele>326.648711</ele>
        <time>2022-04-09T16:25:54.702Z</time>
      </trkpt>
      <trkpt lat="51.519243" lon="8.563717">
        <ele>326.247581</ele>
        <time>2022-04-09T16:25:58.897Z</time>
      </trkpt>
      <trkpt lat="51.519286" lon="8.566431">
        <ele>327.022804</ele>
        <time>2022-04-09T16:26:22.721Z</time>
      </trkpt>
      <trkpt lat="51.519375" lon="8.567457">
        <ele>328.256209</ele>
        <time>2022-04-09T16:26:33.836Z</time>
      </trkpt>
      <trkpt lat="51.519375" lon="8.567896">
        <ele>328.778897</ele>
        <time>2022-04-09T16:26:38.480Z</time>
      </trkpt>
      <trkpt lat="51.519502" lon="8.568539">
        <ele>329.582115</ele>
        <time>2022-04-09T16:26:45.540Z</time>
      </trkpt>
      <trkpt lat="51.519633" lon="8.569061">
        <ele>330.252267</ele>
        <time>2022-04-09T16:26:51.366Z</time>
      </trkpt>
      <trkpt lat="51.517247" lon="8.572078">
        <ele>338.213864</ele>
        <time>2022-04-09T16:27:37.537Z</time>
      </trkpt>
      <trkpt lat="51.517010" lon="8.572379">
        <ele>339.037804</ele>
        <time>2022-04-09T16:27:43.067Z</time>
      </trkpt>
      <trkpt lat="51.514953" lon="8.575654">
        <ele>344.824101</ele>
        <time>2022-04-09T16:28:26.021Z</time>
      </trkpt>
      <trkpt lat="51.516571" lon="8.581810">
        <ele>346.265960</ele>
        <time>2022-04-09T16:29:16.812Z</time>
      </trkpt>
      <trkpt lat="51.517522" lon="8.585427">
        <ele>344.551137</ele>
        <time>2022-04-09T16:29:43.514Z</time>
      </trkpt>
      <trkpt lat="51.517745" lon="8.585021">
        <ele>343.883161</ele>
        <time>2022-04-09T16:29:45.822Z</time>
      </trkpt>
      <trkpt lat="51.517803" lon="8.585095">
        <ele>343.736363</ele>
        <time>2022-04-09T16:29:46.330Z</time>
      </trkpt>
      <trkpt lat="51.520435" lon="8.588245">
        <ele>335.724429</ele>
        <time>2022-04-09T16:30:16.173Z</time>
      </trkpt>
      <trkpt lat="51.522631" lon="8.590873">
        <ele>326.168210</ele>
        <time>2022-04-09T16:30:39.904Z</time>
      </trkpt>
      <trkpt lat="51.525808" lon="8.590848">
        <ele>311.109598</ele>
        <time>2022-04-09T16:31:05.731Z</time>
      </trkpt>
      <trkpt lat="51.526766" lon="8.590731">
        <ele>306.363641</ele>
        <time>2022-04-09T16:31:13.559Z</time>
      </trkpt>
      <trkpt lat="51.527273" lon="8.590782">
        <ele>303.554967</ele>
        <time>2022-04-09T16:31:17.671Z</time>
      </trkpt>
      <trkpt lat="51.527957" lon="8.591215">
        <ele>299.490420</ele>
        <time>2022-04-09T16:31:23.545Z</time>
      </trkpt>
      <trkpt lat="51.528713" lon="8.592446">
        <ele>292.653902</ele>
        <time>2022-04-09T16:31:31.995Z</time>
      </trkpt>
      <trkpt lat="51.530112" lon="8.594100">
        <ele>280.100879</ele>
        <time>2022-04-09T16:31:45.166Z</time>
      </trkpt>
      <trkpt lat="51.531375" lon="8.595971">
        <ele>268.014497</ele>
        <time>2022-04-09T16:31:58.321Z</time>
      </trkpt>
      <trkpt lat="51.531566" lon="8.596477">
        <ele>265.805855</ele>
        <time>2022-04-09T16:32:01.156Z</time>
      </trkpt>
      <trkpt lat="51.531746" lon="8.597267">
        <ele>262.666336</ele>
        <time>2022-04-09T16:32:05.286Z</time>
      </trkpt>
      <trkpt lat="51.531771" lon="8.597693">
        <ele>261.069600</ele>
        <time>2022-04-09T16:32:07.493Z</time>
      </trkpt>
      <trkpt lat="51.531689" lon="8.598003">
        <ele>259.812555</ele>
        <time>2022-04-09T16:32:09.188Z</time>
      </trkpt>
      <trkpt lat="51.531518" lon="8.598325">
        <ele>258.393259</ele>
        <time>2022-04-09T16:32:11.375Z</time>
      </trkpt>
      <trkpt lat="51.531009" lon="8.598991">
        <ele>254.925860</ele>
        <time>2022-04-09T16:32:16.787Z</time>
      </trkpt>
      <trkpt lat="51.530938" lon="8.599195">
        <ele>254.157586</ele>
        <time>2022-04-09T16:32:17.938Z</time>
      </trkpt>
      <trkpt lat="51.530962" lon="8.599367">
        <ele>253.578236</ele>
        <time>2022-04-09T16:32:18.836Z</time>
      </trkpt>
      <trkpt lat="51.531143" lon="8.599714">
        <ele>252.089914</ele>
        <time>2022-04-09T16:32:21.033Z</time>
      </trkpt>
      <trkpt lat="51.531318" lon="8.599917">
        <ele>250.949757</ele>
        <time>2022-04-09T16:32:22.730Z</time>
      </trkpt>
      <trkpt lat="51.532597" lon="8.600507">
        <ele>243.426240</ele>
        <time>2022-04-09T16:32:33.204Z</time>
      </trkpt>
      <trkpt lat="51.533050" lon="8.600543">
        <ele>240.837922</ele>
        <time>2022-04-09T16:32:36.779Z</time>
      </trkpt>
      <trkpt lat="51.533479" lon="8.600424">
        <ele>239.117620</ele>
        <time>2022-04-09T16:32:40.340Z</time>
      </trkpt>
      <trkpt lat="51.533564" lon="8.600317">
        <ele>238.824271</ele>
        <time>2022-04-09T16:32:41.187Z</time>
      </trkpt>
      <trkpt lat="51.533726" lon="8.597604">
        <ele>234.760393</ele>
        <time>2022-04-09T16:32:57.217Z</time>
      </trkpt>
      <trkpt lat="51.533624" lon="8.597009">
        <ele>234.517896</ele>
        <time>2022-04-09T16:33:01.744Z</time>
      </trkpt>
      <trkpt lat="51.533725" lon="8.596835">
        <ele>234.424388</ele>
        <time>2022-04-09T16:33:03.484Z</time>
      </trkpt>
      <trkpt lat="51.533940" lon="8.596912">
        <ele>234.285258</ele>
        <time>2022-04-09T16:33:06.031Z</time>
      </trkpt>
      <trkpt lat="51.533816" lon="8.599254">
        <ele>234.098954</ele>
        <time>2022-04-09T16:33:17.913Z</time>
      </trkpt>
      <trkpt lat="51.533766" lon="8.600195">
        <ele>234.368570</ele>
        <time>2022-04-09T16:33:23.883Z</time>
      </trkpt>
      <trkpt lat="51.533760" lon="8.600938">
        <ele>234.580701</ele>
        <time>2022-04-09T16:33:29.379Z</time>
      </trkpt>
      <trkpt lat="51.533812" lon="8.601799">
        <ele>235.536921</ele>
        <time>2022-04-09T16:33:36.221Z</time>
      </trkpt>
      <trkpt lat="51.534010" lon="8.603181">
        <ele>237.286903</ele>
        <time>2022-04-09T16:33:48.842Z</time>
      </trkpt>
      <trkpt lat="51.534096" lon="8.604129">
        <ele>238.364529</ele>
        <time>2022-04-09T16:33:57.353Z</time>
      </trkpt>
      <trkpt lat="51.534132" lon="8.604514">
        <ele>238.669907</ele>
        <time>2022-04-09T16:34:00.803Z</time>
      </trkpt>
      <trkpt lat="51.534118" lon="8.605551">
        <ele>239.483498</ele>
        <time>2022-04-09T16:34:08.827Z</time>
      </trkpt>
      <trkpt lat="51.534000" lon="8.606940">
        <ele>240.463798</ele>
        <time>2022-04-09T16:34:17.930Z</time>
      </trkpt>
      <trkpt lat="51.533161" lon="8.613924">
        <ele>241.447623</ele>
        <time>2022-04-09T16:34:58.247Z</time>
      </trkpt>
      <trkpt lat="51.532836" lon="8.616387">
        <ele>242.750686</ele>
        <time>2022-04-09T16:35:16.298Z</time>
      </trkpt>
      <trkpt lat="51.532249" lon="8.620012">
        <ele>245.082713</ele>
        <time>2022-04-09T16:35:43.718Z</time>
      </trkpt>
      <trkpt lat="51.531886" lon="8.621471">
        <ele>245.636082</ele>
        <time>2022-04-09T16:35:52.848Z</time>
      </trkpt>
      <trkpt lat="51.531578" lon="8.622319">
        <ele>245.731799</ele>
        <time>2022-04-09T16:35:58.333Z</time>
      </trkpt>
      <trkpt lat="51.531128" lon="8.623258">
        <ele>245.847340</ele>
        <time>2022-04-09T16:36:05.189Z</time>
      </trkpt>
      <trkpt lat="51.530471" lon="8.624271">
        <ele>246.405046</ele>
        <time>2022-04-09T16:36:13.924Z</time>
      </trkpt>
      <trkpt lat="51.530242" lon="8.624554">
        <ele>246.587988</ele>
        <time>2022-04-09T16:36:16.912Z</time>
      </trkpt>
      <trkpt lat="51.529223" lon="8.625595">
        <ele>247.547547</ele>
        <time>2022-04-09T16:36:30.882Z</time>
      </trkpt>
      <trkpt lat="51.528097" lon="8.626672">
        <ele>248.805831</ele>
        <time>2022-04-09T16:36:45.505Z</time>
      </trkpt>
      <trkpt lat="51.528065" lon="8.626703">
        <ele>248.832585</ele>
        <time>2022-04-09T16:36:45.931Z</time>
      </trkpt>
      <trkpt lat="51.526683" lon="8.628163">
        <ele>250.016802</ele>
        <time>2022-04-09T16:37:03.361Z</time>
      </trkpt>
      <trkpt lat="51.526059" lon="8.629009">
        <ele>250.885370</ele>
        <time>2022-04-09T16:37:12.085Z</time>
      </trkpt>
      <trkpt lat="51.525927" lon="8.629179">
        <ele>251.067389</ele>
        <time>2022-04-09T16:37:14.012Z</time>
      </trkpt>
      <trkpt lat="51.525385" lon="8.630068">
        <ele>251.900718</ele>
        <time>2022-04-09T16:37:23.239Z</time>
      </trkpt>
      <trkpt lat="51.524836" lon="8.631136">
        <ele>253.245200</ele>
        <time>2022-04-09T16:37:34.296Z</time>
      </trkpt>
      <trkpt lat="51.523233" lon="8.634454">
        <ele>257.200446</ele>
        <time>2022-04-09T16:38:07.882Z</time>
      </trkpt>
      <trkpt lat="51.520899" lon="8.639647">
        <ele>259.379461</ele>
        <time>2022-04-09T16:38:49.225Z</time>
      </trkpt>
      <trkpt lat="51.519837" lon="8.641801">
        <ele>257.609484</ele>
        <time>2022-04-09T16:39:01.100Z</time>
      </trkpt>
      <trkpt lat="51.519242" lon="8.643305">
        <ele>256.730771</ele>
        <time>2022-04-09T16:39:09.013Z</time>
      </trkpt>
      <trkpt lat="51.518727" lon="8.645317">
        <ele>256.648996</ele>
        <time>2022-04-09T16:39:21.706Z</time>
      </trkpt>
      <trkpt lat="51.518264" lon="8.647148">
        <ele>257.202175</ele>
        <time>2022-04-09T16:39:35.115Z</time>
      </trkpt>
      <trkpt lat="51.516961" lon="8.650684">
        <ele>257.841469</ele>
        <time>2022-04-09T16:39:58.738Z</time>
      </trkpt>
      <trkpt lat="51.516675" lon="8.651972">
        <ele>258.021243</ele>
        <time>2022-04-09T16:40:06.604Z</time>
      </trkpt>
      <trkpt lat="51.516605" lon="8.653000">
        <ele>258.503731</ele>
        <time>2022-04-09T16:40:13.243Z</time>
      </trkpt>
      <trkpt lat="51.516588" lon="8.653253">
        <ele>258.622458</ele>
        <time>2022-04-09T16:40:14.976Z</time>
      </trkpt>
      <trkpt lat="51.516647" lon="8.654154">
        <ele>259.045151</ele>
        <time>2022-04-09T16:40:21.212Z</time>
      </trkpt>
      <trkpt lat="51.516829" lon="8.655715">
        <ele>259.727780</ele>
        <time>2022-04-09T16:40:32.322Z</time>
      </trkpt>
      <trkpt lat="51.516862" lon="8.657880">
        <ele>260.620360</ele>
        <time>2022-04-09T16:40:46.030Z</time>
      </trkpt>
      <trkpt lat="51.516969" lon="8.658986">
        <ele>261.180845</ele>
        <time>2022-04-09T16:40:52.762Z</time>
      </trkpt>
      <trkpt lat="51.517129" lon="8.659824">
        <ele>261.619783</ele>
        <time>2022-04-09T16:40:58.496Z</time>
      </trkpt>
      <trkpt lat="51.517530" lon="8.660888">
        <ele>263.285573</ele>
        <time>2022-04-09T16:41:08.056Z</time>
      </trkpt>
      <trkpt lat="51.517683" lon="8.661172">
        <ele>264.190389</ele>
        <time>2022-04-09T16:41:11.542Z</time>
      </trkpt>
      <trkpt lat="51.517790" lon="8.661388">
        <ele>264.855394</ele>
        <time>2022-04-09T16:41:14.028Z</time>
      </trkpt>
      <trkpt lat="51.517935" lon="8.661680">
        <ele>265.755228</ele>
        <time>2022-04-09T16:41:17.981Z</time>
      </trkpt>
      <trkpt lat="51.518187" lon="8.662609">
        <ele>268.196255</ele>
        <time>2022-04-09T16:41:31.066Z</time>
      </trkpt>
      <trkpt lat="51.518493" lon="8.662250">
        <ele>270.559530</ele>
        <time>2022-04-09T16:41:40.660Z</time>
      </trkpt>
      <trkpt lat="51.518795" lon="8.662271">
        <ele>273.163794</ele>
        <time>2022-04-09T16:41:48.829Z</time>
      </trkpt>
      <trkpt lat="51.519179" lon="8.662527">
        <ele>276.745447</ele>
        <time>2022-04-09T16:42:01.090Z</time>
      </trkpt>
      <trkpt lat="51.519751" lon="8.662958">
        <ele>282.188190</ele>
        <time>2022-04-09T16:42:21.120Z</time>
      </trkpt>
      <trkpt lat="51.520529" lon="8.663545">
        <ele>289.640184</ele>
        <time>2022-04-09T16:42:50.162Z</time>
      </trkpt>
      <trkpt lat="51.522567" lon="8.664599">
        <ele>304.795250</ele>
        <time>2022-04-09T16:43:50.004Z</time>
      </trkpt>
      <trkpt lat="51.524172" lon="8.665226">
        <ele>309.573134</ele>
        <time>2022-04-09T16:44:12.077Z</time>
      </trkpt>
      <trkpt lat="51.525375" lon="8.665456">
        <ele>310.075501</ele>
        <time>2022-04-09T16:44:21.788Z</time>
      </trkpt>
      <trkpt lat="51.525571" lon="8.665574">
        <ele>309.977338</ele>
        <time>2022-04-09T16:44:23.592Z</time>
      </trkpt>
      <trkpt lat="51.526139" lon="8.666742">
        <ele>309.544757</ele>
        <time>2022-04-09T16:44:30.832Z</time>
      </trkpt>
      <trkpt lat="51.526292" lon="8.666806">
        <ele>309.470609</ele>
        <time>2022-04-09T16:44:32.210Z</time>
      </trkpt>
      <trkpt lat="51.526356" lon="8.667049">
        <ele>309.393610</ele>
        <time>2022-04-09T16:44:33.971Z</time>
      </trkpt>
      <trkpt lat="51.526721" lon="8.667634">
        <ele>309.366969</ele>
        <time>2022-04-09T16:44:39.928Z</time>
      </trkpt>
      <trkpt lat="51.526937" lon="8.667853">
        <ele>309.392326</ele>
        <time>2022-04-09T16:44:42.691Z</time>
      </trkpt>
      <trkpt lat="51.527197" lon="8.667946">
        <ele>309.418774</ele>
        <time>2022-04-09T16:44:45.586Z</time>
      </trkpt>
      <trkpt lat="51.528335" lon="8.667933">
        <ele>310.020620</ele>
        <time>2022-04-09T16:45:00.546Z</time>
      </trkpt>
      <trkpt lat="51.528660" lon="8.668154">
        <ele>310.775515</ele>
        <time>2022-04-09T16:45:06.623Z</time>
      </trkpt>
      <trkpt lat="51.528948" lon="8.668602">
        <ele>311.632863</ele>
        <time>2022-04-09T16:45:14.249Z</time>
      </trkpt>
      <trkpt lat="51.529132" lon="8.669146">
        <ele>312.456922</ele>
        <time>2022-04-09T16:45:21.712Z</time>
      </trkpt>
      <trkpt lat="51.529330" lon="8.670253">
        <ele>313.631254</ele>
        <time>2022-04-09T16:45:34.824Z</time>
      </trkpt>
      <trkpt lat="51.529581" lon="8.670920">
        <ele>314.082105</ele>
        <time>2022-04-09T16:45:42.160Z</time>
      </trkpt>
      <trkpt lat="51.529978" lon="8.671569">
        <ele>314.608517</ele>
        <time>2022-04-09T16:45:50.043Z</time>
      </trkpt>
      <trkpt lat="51.530690" lon="8.672162">
        <ele>314.996326</ele>
        <time>2022-04-09T16:45:59.091Z</time>
      </trkpt>
      <trkpt lat="51.531076" lon="8.672473">
        <ele>314.957610</ele>
        <time>2022-04-09T16:46:03.691Z</time>
      </trkpt>
      <trkpt lat="51.531587" lon="8.673566">
        <ele>314.881343</ele>
        <time>2022-04-09T16:46:13.689Z</time>
      </trkpt>
      <trkpt lat="51.531983" lon="8.675343">
        <ele>316.413453</ele>
        <time>2022-04-09T16:46:31.258Z</time>
      </trkpt>
      <trkpt lat="51.532270" lon="8.675741">
        <ele>316.994678</ele>
        <time>2022-04-09T16:46:37.728Z</time>
      </trkpt>
      <trkpt lat="51.532881" lon="8.676096">
        <ele>318.274518</ele>
        <time>2022-04-09T16:46:49.301Z</time>
      </trkpt>
      <trkpt lat="51.532898" lon="8.676416">
        <ele>318.818051</ele>
        <time>2022-04-09T16:46:52.287Z</time>
      </trkpt>
      <trkpt lat="51.532970" lon="8.676704">
        <ele>319.343345</ele>
        <time>2022-04-09T16:46:55.153Z</time>
      </trkpt>
      <trkpt lat="51.533191" lon="8.677187">
        <ele>320.358071</ele>
        <time>2022-04-09T16:47:00.612Z</time>
      </trkpt>
      <trkpt lat="51.533527" lon="8.677999">
        <ele>322.008534</ele>
        <time>2022-04-09T16:47:10.443Z</time>
      </trkpt>
      <trkpt lat="51.533679" lon="8.679470">
        <ele>324.539026</ele>
        <time>2022-04-09T16:47:25.896Z</time>
      </trkpt>
      <trkpt lat="51.533778" lon="8.679998">
        <ele>325.475506</ele>
        <time>2022-04-09T16:47:31.166Z</time>
      </trkpt>
      <trkpt lat="51.534051" lon="8.681030">
        <ele>327.379897</ele>
        <time>2022-04-09T16:47:41.211Z</time>
      </trkpt>
      <trkpt lat="51.534420" lon="8.681908">
        <ele>328.775791</ele>
        <time>2022-04-09T16:47:50.677Z</time>
      </trkpt>
      <trkpt lat="51.535195" lon="8.683382">
        <ele>331.291054</ele>
        <time>2022-04-09T16:48:06.991Z</time>
      </trkpt>
      <trkpt lat="51.535390" lon="8.686142">
        <ele>334.642729</ele>
        <time>2022-04-09T16:48:30.659Z</time>
      </trkpt>
      <trkpt lat="51.535690" lon="8.690684">
        <ele>338.947349</ele>
        <time>2022-04-09T16:49:07.769Z</time>
      </trkpt>
      <trkpt lat="51.536535" lon="8.690636">
        <ele>339.797827</ele>
        <time>2022-04-09T16:49:18.684Z</time>
      </trkpt>
      <trkpt lat="51.538743" lon="8.690510">
        <ele>340.236292</ele>
        <time>2022-04-09T16:49:45.255Z</time>
      </trkpt>
      <trkpt lat="51.542519" lon="8.690427">
        <ele>342.977543</ele>
        <time>2022-04-09T16:50:40.862Z</time>
      </trkpt>
      <trkpt lat="51.543006" lon="8.693922">
        <ele>341.049534</ele>
        <time>2022-04-09T16:50:57.055Z</time>
      </trkpt>
      <trkpt lat="51.543600" lon="8.697692">
        <ele>336.457537</ele>
        <time>2022-04-09T16:51:12.851Z</time>
      </trkpt>
      <trkpt lat="51.543831" lon="8.698821">
        <ele>335.072298</ele>
        <time>2022-04-09T16:51:17.754Z</time>
      </trkpt>
      <trkpt lat="51.544604" lon="8.704091">
        <ele>329.062861</ele>
        <time>2022-04-09T16:51:40.366Z</time>
      </trkpt>
      <trkpt lat="51.544813" lon="8.705687">
        <ele>327.409357</ele>
        <time>2022-04-09T16:51:47.163Z</time>
      </trkpt>
      <trkpt lat="51.544932" lon="8.708248">
        <ele>325.828112</ele>
        <time>2022-04-09T16:51:58.588Z</time>
      </trkpt>
      <trkpt lat="51.545055" lon="8.709509">
        <ele>325.540507</ele>
        <time>2022-04-09T16:52:05.484Z</time>
      </trkpt>
      <trkpt lat="51.545125" lon="8.710377">
        <ele>325.960270</ele>
        <time>2022-04-09T16:52:11.209Z</time>
      </trkpt>
      <trkpt lat="51.545073" lon="8.711539">
        <ele>326.518984</ele>
        <time>2022-04-09T16:52:19.608Z</time>
      </trkpt>
      <trkpt lat="51.544986" lon="8.712236">
        <ele>326.874863</ele>
        <time>2022-04-09T16:52:24.924Z</time>
      </trkpt>
      <trkpt lat="51.544756" lon="8.715925">
        <ele>328.230275</ele>
        <time>2022-04-09T16:52:50.176Z</time>
      </trkpt>
      <trkpt lat="51.544618" lon="8.717337">
        <ele>328.064136</ele>
        <time>2022-04-09T16:52:57.260Z</time>
      </trkpt>
      <trkpt lat="51.544589" lon="8.718385">
        <ele>327.306169</ele>
        <time>2022-04-09T16:53:01.883Z</time>
      </trkpt>
      <trkpt lat="51.544688" lon="8.720547">
        <ele>324.805561</ele>
        <time>2022-04-09T16:53:10.675Z</time>
      </trkpt>
      <trkpt lat="51.544705" lon="8.722193">
        <ele>322.907256</ele>
        <time>2022-04-09T16:53:17.396Z</time>
      </trkpt>
      <trkpt lat="51.544744" lon="8.725990">
        <ele>318.926784</ele>
        <time>2022-04-09T16:53:33.512Z</time>
      </trkpt>
      <trkpt lat="51.544735" lon="8.726931">
        <ele>318.033471</ele>
        <time>2022-04-09T16:53:37.564Z</time>
      </trkpt>
      <trkpt lat="51.544590" lon="8.728851">
        <ele>316.270108</ele>
        <time>2022-04-09T16:53:45.846Z</time>
      </trkpt>
      <trkpt lat="51.544673" lon="8.732198">
        <ele>313.595514</ele>
        <time>2022-04-09T16:54:00.545Z</time>
      </trkpt>
      <trkpt lat="51.544671" lon="8.734216">
        <ele>312.570475</ele>
        <time>2022-04-09T16:54:09.974Z</time>
      </trkpt>
      <trkpt lat="51.544702" lon="8.735880">
        <ele>311.646579</ele>
        <time>2022-04-09T16:54:18.143Z</time>
      </trkpt>
      <trkpt lat="51.544835" lon="8.737934">
        <ele>310.386659</ele>
        <time>2022-04-09T16:54:27.635Z</time>
      </trkpt>
      <trkpt lat="51.544974" lon="8.739196">
        <ele>308.646156</ele>
        <time>2022-04-09T16:54:32.917Z</time>
      </trkpt>
      <trkpt lat="51.545488" lon="8.743391">
        <ele>302.652570</ele>
        <time>2022-04-09T16:54:49.592Z</time>
      </trkpt>
      <trkpt lat="51.545711" lon="8.744669">
        <ele>302.672048</ele>
        <time>2022-04-09T16:54:56.266Z</time>
      </trkpt>
      <trkpt lat="51.545728" lon="8.744784">
        <ele>302.717760</ele>
        <time>2022-04-09T16:54:57.076Z</time>
      </trkpt>
      <trkpt lat="51.545733" lon="8.744840">
        <ele>302.739639</ele>
        <time>2022-04-09T16:54:57.460Z</time>
      </trkpt>
      <trkpt lat="51.545601" lon="8.745844">
        <ele>303.136494</ele>
        <time>2022-04-09T16:55:04.840Z</time>
      </trkpt>
      <trkpt lat="51.545796" lon="8.748018">
        <ele>305.258542</ele>
        <time>2022-04-09T16:55:24.229Z</time>
      </trkpt>
      <trkpt lat="51.544424" lon="8.753766">
        <ele>311.268433</ele>
        <time>2022-04-09T16:56:13.461Z</time>
      </trkpt>
      <trkpt lat="51.544300" lon="8.754443">
        <ele>311.796260</ele>
        <time>2022-04-09T16:56:17.938Z</time>
      </trkpt>
      <trkpt lat="51.544235" lon="8.755501">
        <ele>312.098036</ele>
        <time>2022-04-09T16:56:24.274Z</time>
      </trkpt>
      <trkpt lat="51.544151" lon="8.758927">
        <ele>312.819406</ele>
        <time>2022-04-09T16:56:44.040Z</time>
      </trkpt>
      <trkpt lat="51.544186" lon="8.769785">
        <ele>316.158926</ele>
        <time>2022-04-09T16:57:53.529Z</time>
      </trkpt>
      <trkpt lat="51.544170" lon="8.770753">
        <ele>316.094523</ele>
        <time>2022-04-09T16:58:00.540Z</time>
      </trkpt>
      <trkpt lat="51.544147" lon="8.772126">
        <ele>316.002694</ele>
        <time>2022-04-09T16:58:10.240Z</time>
      </trkpt>
      <trkpt lat="51.544142" lon="8.772447">
        <ele>315.979485</ele>
        <time>2022-04-09T16:58:12.471Z</time>
      </trkpt>
      <trkpt lat="51.543954" lon="8.773384">
        <ele>315.908320</ele>
        <time>2022-04-09T16:58:19.458Z</time>
      </trkpt>
      <trkpt lat="51.544015" lon="8.776400">
        <ele>315.949866</ele>
        <time>2022-04-09T16:58:42.671Z</time>
      </trkpt>
      <trkpt lat="51.543886" lon="8.777208">
        <ele>316.032624</ele>
        <time>2022-04-09T16:58:49.286Z</time>
      </trkpt>
      <trkpt lat="51.543778" lon="8.777743">
        <ele>316.089951</ele>
        <time>2022-04-09T16:58:53.692Z</time>
      </trkpt>
      <trkpt lat="51.543473" lon="8.779255">
        <ele>316.377001</ele>
        <time>2022-04-09T16:59:06.060Z</time>
      </trkpt>
      <trkpt lat="51.543548" lon="8.779474">
        <ele>316.422149</ele>
        <time>2022-04-09T16:59:08.032Z</time>
      </trkpt>
      <trkpt lat="51.543634" lon="8.779725">
        <ele>316.473900</ele>
        <time>2022-04-09T16:59:10.266Z</time>
      </trkpt>
      <trkpt lat="51.543723" lon="8.779987">
        <ele>316.527811</ele>
        <time>2022-04-09T16:59:12.105Z</time>
      </trkpt>
      <trkpt lat="51.543740" lon="8.780628">
        <ele>316.744325</ele>
        <time>2022-04-09T16:59:16.151Z</time>
      </trkpt>
      <trkpt lat="51.543774" lon="8.781881">
        <ele>317.625284</ele>
        <time>2022-04-09T16:59:24.618Z</time>
      </trkpt>
      <trkpt lat="51.544120" lon="8.794912">
        <ele>330.215440</ele>
        <time>2022-04-09T17:01:07.889Z</time>
      </trkpt>
      <trkpt lat="51.543999" lon="8.795253">
        <ele>330.376097</ele>
        <time>2022-04-09T17:01:12.053Z</time>
      </trkpt>
      <trkpt lat="51.543373" lon="8.795650">
        <ele>330.818882</ele>
        <time>2022-04-09T17:01:22.486Z</time>
      </trkpt>
      <trkpt lat="51.542495" lon="8.795691">
        <ele>331.375256</ele>
        <time>2022-04-09T17:01:32.864Z</time>
      </trkpt>
      <trkpt lat="51.542797" lon="8.796655">
        <ele>330.858105</ele>
        <time>2022-04-09T17:01:37.967Z</time>
      </trkpt>
      <trkpt lat="51.543055" lon="8.797320">
        <ele>330.482586</ele>
        <time>2022-04-09T17:01:41.518Z</time>
      </trkpt>
      <trkpt lat="51.543262" lon="8.798210">
        <ele>330.027337</ele>
        <time>2022-04-09T17:01:45.723Z</time>
      </trkpt>
      <trkpt lat="51.543573" lon="8.799992">
        <ele>330.309791</ele>
        <time>2022-04-09T17:01:55.618Z</time>
      </trkpt>
      <trkpt lat="51.544222" lon="8.806139">
        <ele>334.516977</ele>
        <time>2022-04-09T17:02:42.169Z</time>
      </trkpt>
      <trkpt lat="51.544483" lon="8.807917">
        <ele>335.955492</ele>
        <time>2022-04-09T17:02:55.161Z</time>
      </trkpt>
      <trkpt lat="51.544988" lon="8.810730">
        <ele>338.745809</ele>
        <time>2022-04-09T17:03:17.494Z</time>
      </trkpt>
      <trkpt lat="51.545289" lon="8.812408">
        <ele>340.785660</ele>
        <time>2022-04-09T17:03:32.859Z</time>
      </trkpt>
      <trkpt lat="51.545330" lon="8.812644">
        <ele>341.069772</ele>
        <time>2022-04-09T17:03:35.094Z</time>
      </trkpt>
      <trkpt lat="51.545571" lon="8.814393">
        <ele>343.146869</ele>
        <time>2022-04-09T17:03:51.156Z</time>
      </trkpt>
      <trkpt lat="51.545684" lon="8.815596">
        <ele>344.024550</ele>
        <time>2022-04-09T17:03:59.995Z</time>
      </trkpt>
      <trkpt lat="51.545811" lon="8.817411">
        <ele>343.893113</ele>
        <time>2022-04-09T17:04:09.380Z</time>
      </trkpt>
      <trkpt lat="51.545975" lon="8.818097">
        <ele>343.804614</ele>
        <time>2022-04-09T17:04:12.632Z</time>
      </trkpt>
      <trkpt lat="51.546408" lon="8.819461">
        <ele>343.159672</ele>
        <time>2022-04-09T17:04:20.340Z</time>
      </trkpt>
      <trkpt lat="51.546488" lon="8.819661">
        <ele>343.059527</ele>
        <time>2022-04-09T17:04:21.521Z</time>
      </trkpt>
      <trkpt lat="51.546854" lon="8.820614">
        <ele>342.494868</ele>
        <time>2022-04-09T17:04:26.831Z</time>
      </trkpt>
      <trkpt lat="51.546990" lon="8.820802">
        <ele>342.102743</ele>
        <time>2022-04-09T17:04:28.182Z</time>
      </trkpt>
      <trkpt lat="51.547269" lon="8.820987">
        <ele>341.442900</ele>
        <time>2022-04-09T17:04:30.252Z</time>
      </trkpt>
      <trkpt lat="51.547650" lon="8.821515">
        <ele>340.343203</ele>
        <time>2022-04-09T17:04:33.574Z</time>
      </trkpt>
      <trkpt lat="51.548531" lon="8.822796">
        <ele>337.376378</ele>
        <time>2022-04-09T17:04:40.803Z</time>
      </trkpt>
      <trkpt lat="51.550397" lon="8.825088">
        <ele>330.963770</ele>
        <time>2022-04-09T17:04:55.259Z</time>
      </trkpt>
      <trkpt lat="51.550887" lon="8.825581">
        <ele>329.630465</ele>
        <time>2022-04-09T17:04:59.230Z</time>
      </trkpt>
      <trkpt lat="51.551042" lon="8.825731">
        <ele>329.213170</ele>
        <time>2022-04-09T17:05:00.503Z</time>
      </trkpt>
      <trkpt lat="51.551079" lon="8.825654">
        <ele>329.076999</ele>
        <time>2022-04-09T17:05:00.954Z</time>
      </trkpt>
      <trkpt lat="51.552989" lon="8.824288">
        <ele>325.315711</ele>
        <time>2022-04-09T17:05:15.314Z</time>
      </trkpt>
      <trkpt lat="51.554962" lon="8.823144">
        <ele>319.003656</ele>
        <time>2022-04-09T17:05:28.009Z</time>
      </trkpt>
      <trkpt lat="51.556487" lon="8.822635">
        <ele>314.302016</ele>
        <time>2022-04-09T17:05:37.435Z</time>
      </trkpt>
      <trkpt lat="51.556937" lon="8.822342">
        <ele>313.270268</ele>
        <time>2022-04-09T17:05:40.522Z</time>
      </trkpt>
      <trkpt lat="51.557595" lon="8.821730">
        <ele>311.654887</ele>
        <time>2022-04-09T17:05:45.606Z</time>
      </trkpt>
      <trkpt lat="51.558754" lon="8.821094">
        <ele>310.636293</ele>
        <time>2022-04-09T17:05:55.021Z</time>
      </trkpt>
      <trkpt lat="51.559863" lon="8.819571">
        <ele>309.587065</ele>
        <time>2022-04-09T17:06:07.163Z</time>
      </trkpt>
      <trkpt lat="51.560047" lon="8.819390">
        <ele>309.398163</ele>
        <time>2022-04-09T17:06:08.855Z</time>
      </trkpt>
      <trkpt lat="51.564107" lon="8.817780">
        <ele>304.245862</ele>
        <time>2022-04-09T17:06:37.976Z</time>
      </trkpt>
      <trkpt lat="51.564543" lon="8.820836">
        <ele>302.971637</ele>
        <time>2022-04-09T17:06:53.628Z</time>
      </trkpt>
      <trkpt lat="51.564954" lon="8.822898">
        <ele>301.389932</ele>
        <time>2022-04-09T17:07:03.679Z</time>
      </trkpt>
      <trkpt lat="51.565210" lon="8.824178">
        <ele>300.074314</ele>
        <time>2022-04-09T17:07:09.262Z</time>
      </trkpt>
      <trkpt lat="51.565566" lon="8.827433">
        <ele>294.950344</ele>
        <time>2022-04-09T17:07:22.200Z</time>
      </trkpt>
      <trkpt lat="51.565629" lon="8.828751">
        <ele>292.774115</ele>
        <time>2022-04-09T17:07:27.295Z</time>
      </trkpt>
      <trkpt lat="51.565636" lon="8.828910">
        <ele>292.511698</ele>
        <time>2022-04-09T17:07:27.875Z</time>
      </trkpt>
      <trkpt lat="51.565635" lon="8.830751">
        <ele>290.492951</ele>
        <time>2022-04-09T17:07:35.338Z</time>
      </trkpt>
      <trkpt lat="51.565645" lon="8.831280">
        <ele>290.069982</ele>
        <time>2022-04-09T17:07:37.717Z</time>
      </trkpt>
      <trkpt lat="51.565646" lon="8.831343">
        <ele>290.019617</ele>
        <time>2022-04-09T17:07:38.043Z</time>
      </trkpt>
      <trkpt lat="51.565664" lon="8.831959">
        <ele>289.526771</ele>
        <time>2022-04-09T17:07:41.037Z</time>
      </trkpt>
      <trkpt lat="51.565475" lon="8.833601">
        <ele>288.735617</ele>
        <time>2022-04-09T17:07:49.595Z</time>
      </trkpt>
      <trkpt lat="51.565833" lon="8.836543">
        <ele>287.513465</ele>
        <time>2022-04-09T17:08:03.997Z</time>
      </trkpt>
      <trkpt lat="51.565892" lon="8.836899">
        <ele>287.329369</ele>
        <time>2022-04-09T17:08:06.246Z</time>
      </trkpt>
      <trkpt lat="51.566005" lon="8.837378">
        <ele>287.073371</ele>
        <time>2022-04-09T17:08:09.402Z</time>
      </trkpt>
      <trkpt lat="51.566059" lon="8.837608">
        <ele>286.950523</ele>
        <time>2022-04-09T17:08:11.076Z</time>
      </trkpt>
      <trkpt lat="51.566108" lon="8.837815">
        <ele>286.839846</ele>
        <time>2022-04-09T17:08:12.526Z</time>
      </trkpt>
      <trkpt lat="51.566276" lon="8.838371">
        <ele>286.890104</ele>
        <time>2022-04-09T17:08:16.882Z</time>
      </trkpt>
      <trkpt lat="51.566314" lon="8.838520">
        <ele>286.971510</ele>
        <time>2022-04-09T17:08:17.765Z</time>
      </trkpt>
      <trkpt lat="51.566346" lon="8.838656">
        <ele>287.045013</ele>
        <time>2022-04-09T17:08:18.604Z</time>
      </trkpt>
      <trkpt lat="51.566388" lon="8.838916">
        <ele>287.180799</ele>
        <time>2022-04-09T17:08:20.053Z</time>
      </trkpt>
      <trkpt lat="51.566411" lon="8.839097">
        <ele>287.274180</ele>
        <time>2022-04-09T17:08:21.193Z</time>
      </trkpt>
      <trkpt lat="51.566433" lon="8.839424">
        <ele>287.440431</ele>
        <time>2022-04-09T17:08:23.256Z</time>
      </trkpt>
      <trkpt lat="51.566424" lon="8.839487">
        <ele>287.473105</ele>
        <time>2022-04-09T17:08:23.852Z</time>
      </trkpt>
      <trkpt lat="51.566433" lon="8.839424">
        <ele>287.505780</ele>
        <time>2022-04-09T17:08:24.403Z</time>
      </trkpt>
      <trkpt lat="51.565991" lon="8.839409">
        <ele>287.865274</ele>
        <time>2022-04-09T17:08:29.974Z</time>
      </trkpt>
      <trkpt lat="51.565827" lon="8.839406">
        <ele>287.998640</ele>
        <time>2022-04-09T17:08:32.108Z</time>
      </trkpt>
      <trkpt lat="51.565629" lon="8.839399">
        <ele>288.159683</ele>
        <time>2022-04-09T17:08:34.806Z</time>
      </trkpt>
      <trkpt lat="51.565102" lon="8.839400">
        <ele>289.650746</ele>
        <time>2022-04-09T17:08:42.141Z</time>
      </trkpt>
      <trkpt lat="51.564734" lon="8.839390">
        <ele>290.714171</ele>
        <time>2022-04-09T17:08:48.199Z</time>
      </trkpt>
      <trkpt lat="51.564548" lon="8.839341">
        <ele>291.258745</ele>
        <time>2022-04-09T17:08:51.358Z</time>
      </trkpt>
      <trkpt lat="51.564456" lon="8.839312">
        <ele>291.529618</ele>
        <time>2022-04-09T17:08:52.857Z</time>
      </trkpt>
      <trkpt lat="51.564402" lon="8.839293">
        <ele>291.689331</ele>
        <time>2022-04-09T17:08:53.707Z</time>
      </trkpt>
      <trkpt lat="51.563809" lon="8.839136">
        <ele>293.437956</ele>
        <time>2022-04-09T17:09:04.020Z</time>
      </trkpt>
      <trkpt lat="51.563713" lon="8.839035">
        <ele>293.840571</ele>
        <time>2022-04-09T17:09:05.919Z</time>
      </trkpt>
      <trkpt lat="51.563671" lon="8.838615">
        <ele>294.768751</ele>
        <time>2022-04-09T17:09:10.632Z</time>
      </trkpt>
      <trkpt lat="51.563535" lon="8.838238">
        <ele>295.719801</ele>
        <time>2022-04-09T17:09:15.325Z</time>
      </trkpt>
      <trkpt lat="51.562893" lon="8.837546">
        <ele>298.432247</ele>
        <time>2022-04-09T17:09:28.573Z</time>
      </trkpt>
      <trkpt lat="51.562786" lon="8.837037">
        <ele>299.604637</ele>
        <time>2022-04-09T17:09:34.544Z</time>
      </trkpt>
      <trkpt lat="51.562703" lon="8.837067">
        <ele>299.905027</ele>
        <time>2022-04-09T17:09:36.329Z</time>
      </trkpt>
      <trkpt lat="51.562519" lon="8.837135">
        <ele>300.573079</ele>
        <time>2022-04-09T17:09:39.421Z</time>
      </trkpt>
      <trkpt lat="51.561723" lon="8.837429">
        <ele>303.463048</ele>
        <time>2022-04-09T17:09:53.459Z</time>
      </trkpt>
      <trkpt lat="51.561670" lon="8.837449">
        <ele>303.655682</ele>
        <time>2022-04-09T17:09:54.610Z</time>
      </trkpt>
      <trkpt lat="51.559331" lon="8.838362">
        <ele>312.066960</ele>
        <time>2022-04-09T17:10:36.023Z</time>
      </trkpt>
      <trkpt lat="51.557530" lon="8.838733">
        <ele>318.001354</ele>
        <time>2022-04-09T17:11:06.932Z</time>
      </trkpt>
      <trkpt lat="51.556836" lon="8.838761">
        <ele>319.502018</ele>
        <time>2022-04-09T17:11:17.406Z</time>
      </trkpt>
      <trkpt lat="51.556276" lon="8.838730">
        <ele>320.665120</ele>
        <time>2022-04-09T17:11:25.080Z</time>
      </trkpt>
      <trkpt lat="51.554678" lon="8.838474">
        <ele>323.286790</ele>
        <time>2022-04-09T17:11:44.692Z</time>
      </trkpt>
      <trkpt lat="51.550695" lon="8.837224">
        <ele>328.703017</ele>
        <time>2022-04-09T17:12:33.950Z</time>
      </trkpt>
      <trkpt lat="51.549486" lon="8.837062">
        <ele>330.178517</ele>
        <time>2022-04-09T17:12:47.774Z</time>
      </trkpt>
      <trkpt lat="51.547683" lon="8.837123">
        <ele>332.791322</ele>
        <time>2022-04-09T17:13:09.379Z</time>
      </trkpt>
      <trkpt lat="51.547091" lon="8.837216">
        <ele>333.810988</ele>
        <time>2022-04-09T17:13:17.283Z</time>
      </trkpt>
      <trkpt lat="51.545797" lon="8.837599">
        <ele>337.058464</ele>
        <time>2022-04-09T17:13:37.046Z</time>
      </trkpt>
      <trkpt lat="51.544857" lon="8.837874">
        <ele>339.783677</ele>
        <time>2022-04-09T17:13:52.079Z</time>
      </trkpt>
      <trkpt lat="51.543968" lon="8.838133">
        <ele>343.031064</ele>
        <time>2022-04-09T17:14:07.686Z</time>
      </trkpt>
      <trkpt lat="51.543293" lon="8.838359">
        <ele>345.509279</ele>
        <time>2022-04-09T17:14:20.371Z</time>
      </trkpt>
      <trkpt lat="51.542099" lon="8.838713">
        <ele>350.375751</ele>
        <time>2022-04-09T17:14:43.452Z</time>
      </trkpt>
      <trkpt lat="51.541757" lon="8.838817">
        <ele>351.776451</ele>
        <time>2022-04-09T17:14:49.876Z</time>
      </trkpt>
      <trkpt lat="51.541683" lon="8.838840">
        <ele>352.079761</ele>
        <time>2022-04-09T17:14:51.238Z</time>
      </trkpt>
      <trkpt lat="51.541407" lon="8.838924">
        <ele>353.116584</ele>
        <time>2022-04-09T17:14:56.278Z</time>
      </trkpt>
      <trkpt lat="51.540894" lon="8.839069">
        <ele>354.557689</ele>
        <time>2022-04-09T17:15:05.225Z</time>
      </trkpt>
      <trkpt lat="51.540506" lon="8.839186">
        <ele>355.649902</ele>
        <time>2022-04-09T17:15:11.545Z</time>
      </trkpt>
      <trkpt lat="51.539914" lon="8.839355">
        <ele>357.313433</ele>
        <time>2022-04-09T17:15:20.283Z</time>
      </trkpt>
      <trkpt lat="51.539590" lon="8.839457">
        <ele>358.076744</ele>
        <time>2022-04-09T17:15:24.604Z</time>
      </trkpt>
      <trkpt lat="51.539529" lon="8.839476">
        <ele>358.172706</ele>
        <time>2022-04-09T17:15:25.394Z</time>
      </trkpt>
      <trkpt lat="51.539213" lon="8.839579">
        <ele>358.670678</ele>
        <time>2022-04-09T17:15:29.445Z</time>
      </trkpt>
      <trkpt lat="51.538815" lon="8.839721">
        <ele>359.300318</ele>
        <time>2022-04-09T17:15:34.432Z</time>
      </trkpt>
      <trkpt lat="51.537437" lon="8.840188">
        <ele>361.545489</ele>
        <time>2022-04-09T17:15:51.741Z</time>
      </trkpt>
      <trkpt lat="51.536339" lon="8.840626">
        <ele>363.443981</ele>
        <time>2022-04-09T17:16:06.509Z</time>
      </trkpt>
      <trkpt lat="51.534308" lon="8.841400">
        <ele>367.778742</ele>
        <time>2022-04-09T17:16:35.847Z</time>
      </trkpt>
      <trkpt lat="51.533692" lon="8.841638">
        <ele>369.022314</ele>
        <time>2022-04-09T17:16:44.711Z</time>
      </trkpt>
      <trkpt lat="51.532189" lon="8.842211">
        <ele>371.739025</ele>
        <time>2022-04-09T17:17:05.236Z</time>
      </trkpt>
      <trkpt lat="51.530948" lon="8.842660">
        <ele>373.472712</ele>
        <time>2022-04-09T17:17:20.200Z</time>
      </trkpt>
      <trkpt lat="51.530766" lon="8.842738">
        <ele>373.698119</ele>
        <time>2022-04-09T17:17:22.265Z</time>
      </trkpt>
      <trkpt lat="51.529691" lon="8.843324">
        <ele>375.055516</ele>
        <time>2022-04-09T17:17:35.290Z</time>
      </trkpt>
      <trkpt lat="51.529084" lon="8.843879">
        <ele>375.986347</ele>
        <time>2022-04-09T17:17:43.792Z</time>
      </trkpt>
      <trkpt lat="51.528352" lon="8.844612">
        <ele>377.389384</ele>
        <time>2022-04-09T17:17:54.943Z</time>
      </trkpt>
      <trkpt lat="51.526321" lon="8.846993">
        <ele>381.536322</ele>
        <time>2022-04-09T17:18:27.763Z</time>
      </trkpt>
      <trkpt lat="51.525162" lon="8.848677">
        <ele>383.143174</ele>
        <time>2022-04-09T17:18:45.540Z</time>
      </trkpt>
      <trkpt lat="51.524296" lon="8.849987">
        <ele>384.101929</ele>
        <time>2022-04-09T17:18:57.765Z</time>
      </trkpt>
      <trkpt lat="51.523602" lon="8.850969">
        <ele>384.836039</ele>
        <time>2022-04-09T17:19:07.789Z</time>
      </trkpt>
      <trkpt lat="51.522373" lon="8.852725">
        <ele>386.879452</ele>
        <time>2022-04-09T17:19:27.496Z</time>
      </trkpt>
      <trkpt lat="51.520549" lon="8.855286">
        <ele>390.907349</ele>
        <time>2022-04-09T17:19:58.112Z</time>
      </trkpt>
      <trkpt lat="51.520049" lon="8.855981">
        <ele>392.291935</ele>
        <time>2022-04-09T17:20:07.299Z</time>
      </trkpt>
      <trkpt lat="51.519120" lon="8.856787">
        <ele>394.752425</ele>
        <time>2022-04-09T17:20:23.291Z</time>
      </trkpt>
      <trkpt lat="51.518994" lon="8.856897">
        <ele>395.129233</ele>
        <time>2022-04-09T17:20:25.516Z</time>
      </trkpt>
      <trkpt lat="51.518287" lon="8.857942">
        <ele>397.653431</ele>
        <time>2022-04-09T17:20:39.937Z</time>
      </trkpt>
      <trkpt lat="51.517675" lon="8.859033">
        <ele>400.550186</ele>
        <time>2022-04-09T17:20:54.029Z</time>
      </trkpt>
      <trkpt lat="51.516896" lon="8.861202">
        <ele>405.907173</ele>
        <time>2022-04-09T17:21:21.899Z</time>
      </trkpt>
      <trkpt lat="51.516828" lon="8.861392">
        <ele>406.406293</ele>
        <time>2022-04-09T17:21:24.821Z</time>
      </trkpt>
      <trkpt lat="51.516542" lon="8.862239">
        <ele>408.600736</ele>
        <time>2022-04-09T17:21:35.180Z</time>
      </trkpt>
      <trkpt lat="51.516345" lon="8.863155">
        <ele>410.807723</ele>
        <time>2022-04-09T17:21:46.053Z</time>
      </trkpt>
      <trkpt lat="51.516034" lon="8.864228">
        <ele>412.232901</ele>
        <time>2022-04-09T17:21:57.954Z</time>
      </trkpt>
      <trkpt lat="51.515975" lon="8.864835">
        <ele>412.960790</ele>
        <time>2022-04-09T17:22:02.899Z</time>
      </trkpt>
      <trkpt lat="51.515990" lon="8.865421">
        <ele>413.655665</ele>
        <time>2022-04-09T17:22:07.218Z</time>
      </trkpt>
      <trkpt lat="51.515986" lon="8.865633">
        <ele>413.906957</ele>
        <time>2022-04-09T17:22:08.573Z</time>
      </trkpt>
      <trkpt lat="51.515951" lon="8.865868">
        <ele>414.193246</ele>
        <time>2022-04-09T17:22:10.197Z</time>
      </trkpt>
      <trkpt lat="51.515855" lon="8.866017">
        <ele>414.226725</ele>
        <time>2022-04-09T17:22:11.497Z</time>
      </trkpt>
      <trkpt lat="51.515238" lon="8.866361">
        <ele>413.834465</ele>
        <time>2022-04-09T17:22:16.976Z</time>
      </trkpt>
      <trkpt lat="51.514913" lon="8.866371">
        <ele>413.639225</ele>
        <time>2022-04-09T17:22:19.404Z</time>
      </trkpt>
      <trkpt lat="51.514693" lon="8.866256">
        <ele>413.500271</ele>
        <time>2022-04-09T17:22:21.003Z</time>
      </trkpt>
      <trkpt lat="51.513758" lon="8.865768">
        <ele>413.278679</ele>
        <time>2022-04-09T17:22:27.995Z</time>
      </trkpt>
      <trkpt lat="51.513529" lon="8.865655">
        <ele>413.318120</ele>
        <time>2022-04-09T17:22:29.975Z</time>
      </trkpt>
      <trkpt lat="51.513089" lon="8.865444">
        <ele>413.393720</ele>
        <time>2022-04-09T17:22:34.253Z</time>
      </trkpt>
      <trkpt lat="51.512956" lon="8.865384">
        <ele>413.416464</ele>
        <time>2022-04-09T17:22:35.699Z</time>
      </trkpt>
      <trkpt lat="51.512673" lon="8.866392">
        <ele>413.914151</ele>
        <time>2022-04-09T17:22:44.205Z</time>
      </trkpt>
      <trkpt lat="51.512643" lon="8.866498">
        <ele>414.059716</ele>
        <time>2022-04-09T17:22:45.182Z</time>
      </trkpt>
      <trkpt lat="51.512459" lon="8.867120">
        <ele>414.920623</ele>
        <time>2022-04-09T17:22:51.427Z</time>
      </trkpt>
      <trkpt lat="51.512409" lon="8.867269">
        <ele>415.132234</ele>
        <time>2022-04-09T17:22:53.047Z</time>
      </trkpt>
      <trkpt lat="51.511706" lon="8.869239">
        <ele>416.312026</ele>
        <time>2022-04-09T17:23:13.467Z</time>
      </trkpt>
      <trkpt lat="51.511645" lon="8.869378">
        <ele>416.115794</ele>
        <time>2022-04-09T17:23:14.307Z</time>
      </trkpt>
      <trkpt lat="51.511545" lon="8.869605">
        <ele>415.794919</ele>
        <time>2022-04-09T17:23:15.499Z</time>
      </trkpt>
      <trkpt lat="51.511124" lon="8.870591">
        <ele>414.415322</ele>
        <time>2022-04-09T17:23:19.989Z</time>
      </trkpt>
      <trkpt lat="51.510938" lon="8.870992">
        <ele>413.838300</ele>
        <time>2022-04-09T17:23:21.800Z</time>
      </trkpt>
      <trkpt lat="51.510851" lon="8.871228">
        <ele>413.167932</ele>
        <time>2022-04-09T17:23:22.792Z</time>
      </trkpt>
      <trkpt lat="51.510707" lon="8.871979">
        <ele>410.988109</ele>
        <time>2022-04-09T17:23:25.502Z</time>
      </trkpt>
      <trkpt lat="51.510717" lon="8.872295">
        <ele>410.110424</ele>
        <time>2022-04-09T17:23:26.643Z</time>
      </trkpt>
      <trkpt lat="51.510928" lon="8.873379">
        <ele>406.959889</ele>
        <time>2022-04-09T17:23:30.660Z</time>
      </trkpt>
      <trkpt lat="51.510914" lon="8.873587">
        <ele>406.379556</ele>
        <time>2022-04-09T17:23:31.391Z</time>
      </trkpt>
      <trkpt lat="51.510836" lon="8.873646">
        <ele>405.995313</ele>
        <time>2022-04-09T17:23:31.888Z</time>
      </trkpt>
      <trkpt lat="51.510730" lon="8.873726">
        <ele>405.558807</ele>
        <time>2022-04-09T17:23:32.588Z</time>
      </trkpt>
      <trkpt lat="51.510093" lon="8.872663">
        <ele>402.697475</ele>
        <time>2022-04-09T17:23:38.757Z</time>
      </trkpt>
      <trkpt lat="51.509386" lon="8.871678">
        <ele>399.278512</ele>
        <time>2022-04-09T17:23:44.460Z</time>
      </trkpt>
      <trkpt lat="51.508920" lon="8.871302">
        <ele>395.451924</ele>
        <time>2022-04-09T17:23:47.324Z</time>
      </trkpt>
      <trkpt lat="51.508569" lon="8.871168">
        <ele>392.804498</ele>
        <time>2022-04-09T17:23:49.239Z</time>
      </trkpt>
      <trkpt lat="51.507517" lon="8.870969">
        <ele>384.646702</ele>
        <time>2022-04-09T17:23:54.765Z</time>
      </trkpt>
      <trkpt lat="51.506395" lon="8.871063">
        <ele>374.753061</ele>
        <time>2022-04-09T17:24:00.601Z</time>
      </trkpt>
      <trkpt lat="51.505671" lon="8.870864">
        <ele>369.531899</ele>
        <time>2022-04-09T17:24:04.523Z</time>
      </trkpt>
      <trkpt lat="51.505100" lon="8.870869">
        <ele>366.718356</ele>
        <time>2022-04-09T17:24:07.700Z</time>
      </trkpt>
      <trkpt lat="51.504788" lon="8.870777">
        <ele>365.155351</ele>
        <time>2022-04-09T17:24:09.527Z</time>
      </trkpt>
      <trkpt lat="51.504557" lon="8.870556">
        <ele>363.830605</ele>
        <time>2022-04-09T17:24:11.085Z</time>
      </trkpt>
      <trkpt lat="51.503940" lon="8.869568">
        <ele>361.700788</ele>
        <time>2022-04-09T17:24:16.783Z</time>
      </trkpt>
      <trkpt lat="51.503373" lon="8.868817">
        <ele>360.963737</ele>
        <time>2022-04-09T17:24:24.541Z</time>
      </trkpt>
      <trkpt lat="51.503309" lon="8.868730">
        <ele>360.879649</ele>
        <time>2022-04-09T17:24:25.578Z</time>
      </trkpt>
      <trkpt lat="51.502935" lon="8.868254">
        <ele>360.206330</ele>
        <time>2022-04-09T17:24:29.430Z</time>
      </trkpt>
      <trkpt lat="51.502527" lon="8.867875">
        <ele>357.832306</ele>
        <time>2022-04-09T17:24:32.233Z</time>
      </trkpt>
      <trkpt lat="51.502348" lon="8.867933">
        <ele>356.912489</ele>
        <time>2022-04-09T17:24:33.268Z</time>
      </trkpt>
      <trkpt lat="51.502283" lon="8.868183">
        <ele>356.062965</ele>
        <time>2022-04-09T17:24:34.237Z</time>
      </trkpt>
      <trkpt lat="51.502283" lon="8.868316">
        <ele>355.645933</ele>
        <time>2022-04-09T17:24:34.697Z</time>
      </trkpt>
      <trkpt lat="51.502283" lon="8.868513">
        <ele>355.028225</ele>
        <time>2022-04-09T17:24:35.377Z</time>
      </trkpt>
      <trkpt lat="51.502523" lon="8.868949">
        <ele>353.203261</ele>
        <time>2022-04-09T17:24:37.374Z</time>
      </trkpt>
      <trkpt lat="51.502766" lon="8.869383">
        <ele>351.361135</ele>
        <time>2022-04-09T17:24:39.346Z</time>
      </trkpt>
      <trkpt lat="51.502936" lon="8.869848">
        <ele>348.457861</ele>
        <time>2022-04-09T17:24:41.093Z</time>
      </trkpt>
      <trkpt lat="51.503391" lon="8.871576">
        <ele>338.356752</ele>
        <time>2022-04-09T17:24:47.107Z</time>
      </trkpt>
      <trkpt lat="51.503821" lon="8.872808">
        <ele>332.872161</ele>
        <time>2022-04-09T17:24:52.010Z</time>
      </trkpt>
      <trkpt lat="51.504103" lon="8.872992">
        <ele>331.337947</ele>
        <time>2022-04-09T17:24:53.747Z</time>
      </trkpt>
      <trkpt lat="51.504604" lon="8.873290">
        <ele>328.645074</ele>
        <time>2022-04-09T17:24:56.791Z</time>
      </trkpt>
      <trkpt lat="51.504903" lon="8.873510">
        <ele>326.987388</ele>
        <time>2022-04-09T17:24:58.697Z</time>
      </trkpt>
      <trkpt lat="51.505265" lon="8.873763">
        <ele>325.316770</ele>
        <time>2022-04-09T17:25:01.109Z</time>
      </trkpt>
      <trkpt lat="51.506103" lon="8.874426">
        <ele>321.457941</ele>
        <time>2022-04-09T17:25:06.542Z</time>
      </trkpt>
      <trkpt lat="51.506546" lon="8.874771">
        <ele>319.424211</ele>
        <time>2022-04-09T17:25:09.362Z</time>
      </trkpt>
      <trkpt lat="51.506686" lon="8.874954">
        <ele>318.962123</ele>
        <time>2022-04-09T17:25:10.452Z</time>
      </trkpt>
      <trkpt lat="51.506686" lon="8.874955">
        <ele>318.960660</ele>
        <time>2022-04-09T17:25:10.460Z</time>
      </trkpt>
      <trkpt lat="51.506686" lon="8.874954">
        <ele>318.959197</ele>
        <time>2022-04-09T17:25:10.554Z</time>
      </trkpt>
      <trkpt lat="51.506700" lon="8.875210">
        <ele>318.583155</ele>
        <time>2022-04-09T17:25:11.434Z</time>
      </trkpt>
      <trkpt lat="51.506577" lon="8.875475">
        <ele>318.099438</ele>
        <time>2022-04-09T17:25:12.707Z</time>
      </trkpt>
      <trkpt lat="51.506379" lon="8.875514">
        <ele>317.630468</ele>
        <time>2022-04-09T17:25:13.862Z</time>
      </trkpt>
      <trkpt lat="51.506026" lon="8.875358">
        <ele>316.769764</ele>
        <time>2022-04-09T17:25:16.194Z</time>
      </trkpt>
      <trkpt lat="51.505865" lon="8.875365">
        <ele>316.391124</ele>
        <time>2022-04-09T17:25:17.450Z</time>
      </trkpt>
      <trkpt lat="51.505637" lon="8.875581">
        <ele>315.768859</ele>
        <time>2022-04-09T17:25:19.194Z</time>
      </trkpt>
      <trkpt lat="51.505604" lon="8.875673">
        <ele>315.613480</ele>
        <time>2022-04-09T17:25:19.854Z</time>
      </trkpt>
      <trkpt lat="51.505426" lon="8.876396">
        <ele>315.673388</ele>
        <time>2022-04-09T17:25:23.882Z</time>
      </trkpt>
      <trkpt lat="51.505406" lon="8.876498">
        <ele>315.813314</ele>
        <time>2022-04-09T17:25:24.664Z</time>
      </trkpt>
      <trkpt lat="51.505339" lon="8.876964">
        <ele>316.439101</ele>
        <time>2022-04-09T17:25:28.609Z</time>
      </trkpt>
      <trkpt lat="51.505372" lon="8.877407">
        <ele>317.022875</ele>
        <time>2022-04-09T17:25:32.678Z</time>
      </trkpt>
      <trkpt lat="51.505435" lon="8.877753">
        <ele>317.494567</ele>
        <time>2022-04-09T17:25:35.860Z</time>
      </trkpt>
      <trkpt lat="51.505295" lon="8.878380">
        <ele>318.366146</ele>
        <time>2022-04-09T17:25:42.882Z</time>
      </trkpt>
      <trkpt lat="51.505238" lon="8.878770">
        <ele>318.890976</ele>
        <time>2022-04-09T17:25:48.183Z</time>
      </trkpt>
      <trkpt lat="51.505094" lon="8.879483">
        <ele>320.351925</ele>
        <time>2022-04-09T17:25:58.578Z</time>
      </trkpt>
      <trkpt lat="51.504618" lon="8.880335">
        <ele>322.583261</ele>
        <time>2022-04-09T17:26:13.666Z</time>
      </trkpt>
      <trkpt lat="51.504425" lon="8.880616">
        <ele>323.398827</ele>
        <time>2022-04-09T17:26:18.650Z</time>
      </trkpt>
      <trkpt lat="51.504305" lon="8.880789">
        <ele>323.903677</ele>
        <time>2022-04-09T17:26:21.666Z</time>
      </trkpt>
      <trkpt lat="51.503686" lon="8.881680">
        <ele>323.891831</ele>
        <time>2022-04-09T17:26:33.767Z</time>
      </trkpt>
      <trkpt lat="51.503491" lon="8.882178">
        <ele>323.528487</ele>
        <time>2022-04-09T17:26:37.775Z</time>
      </trkpt>
      <trkpt lat="51.502942" lon="8.885885">
        <ele>318.022237</ele>
        <time>2022-04-09T17:26:58.633Z</time>
      </trkpt>
      <trkpt lat="51.502850" lon="8.886116">
        <ele>317.510815</ele>
        <time>2022-04-09T17:27:00.121Z</time>
      </trkpt>
      <trkpt lat="51.499867" lon="8.889748">
        <ele>307.847087</ele>
        <time>2022-04-09T17:27:34.552Z</time>
      </trkpt>
      <trkpt lat="51.499277" lon="8.890443">
        <ele>304.248725</ele>
        <time>2022-04-09T17:27:38.749Z</time>
      </trkpt>
      <trkpt lat="51.498258" lon="8.892471">
        <ele>295.940322</ele>
        <time>2022-04-09T17:27:47.719Z</time>
      </trkpt>
      <trkpt lat="51.497637" lon="8.893685">
        <ele>290.631884</ele>
        <time>2022-04-09T17:27:53.169Z</time>
      </trkpt>
      <trkpt lat="51.497596" lon="8.893766">
        <ele>290.279186</ele>
        <time>2022-04-09T17:27:53.513Z</time>
      </trkpt>
      <trkpt lat="51.496622" lon="8.896524">
        <ele>282.078766</ele>
        <time>2022-04-09T17:28:05.222Z</time>
      </trkpt>
      <trkpt lat="51.496253" lon="8.897618">
        <ele>276.773318</ele>
        <time>2022-04-09T17:28:09.711Z</time>
      </trkpt>
      <trkpt lat="51.495782" lon="8.898647">
        <ele>271.327364</ele>
        <time>2022-04-09T17:28:13.964Z</time>
      </trkpt>
      <trkpt lat="51.494322" lon="8.901180">
        <ele>246.615979</ele>
        <time>2022-04-09T17:28:24.805Z</time>
      </trkpt>
      <trkpt lat="51.493969" lon="8.902033">
        <ele>241.224905</ele>
        <time>2022-04-09T17:28:28.073Z</time>
      </trkpt>
      <trkpt lat="51.493550" lon="8.903301">
        <ele>233.669010</ele>
        <time>2022-04-09T17:28:32.911Z</time>
      </trkpt>
      <trkpt lat="51.493208" lon="8.903669">
        <ele>232.341704</ele>
        <time>2022-04-09T17:28:35.379Z</time>
      </trkpt>
      <trkpt lat="51.493131" lon="8.903448">
        <ele>232.029360</ele>
        <time>2022-04-09T17:28:36.375Z</time>
      </trkpt>
      <trkpt lat="51.492798" lon="8.903619">
        <ele>231.336817</ele>
        <time>2022-04-09T17:28:38.817Z</time>
      </trkpt>
      <trkpt lat="51.492608" lon="8.903614">
        <ele>230.960391</ele>
        <time>2022-04-09T17:28:40.170Z</time>
      </trkpt>
      <trkpt lat="51.491981" lon="8.903607">
        <ele>229.718322</ele>
        <time>2022-04-09T17:28:44.755Z</time>
      </trkpt>
      <trkpt lat="51.491854" lon="8.903925">
        <ele>229.583752</ele>
        <time>2022-04-09T17:28:46.589Z</time>
      </trkpt>
      <trkpt lat="51.491778" lon="8.904775">
        <ele>230.419914</ele>
        <time>2022-04-09T17:28:51.533Z</time>
      </trkpt>
      <trkpt lat="51.491814" lon="8.905087">
        <ele>230.728892</ele>
        <time>2022-04-09T17:28:53.401Z</time>
      </trkpt>
      <trkpt lat="51.491719" lon="8.905375">
        <ele>231.046251</ele>
        <time>2022-04-09T17:28:55.675Z</time>
      </trkpt>
      <trkpt lat="51.491699" lon="8.906243">
        <ele>231.892031</ele>
        <time>2022-04-09T17:29:03.404Z</time>
      </trkpt>
      <trkpt lat="51.491716" lon="8.907455">
        <ele>235.182312</ele>
        <time>2022-04-09T17:29:19.297Z</time>
      </trkpt>
      <trkpt lat="51.491699" lon="8.907563">
        <ele>235.569186</ele>
        <time>2022-04-09T17:29:21.744Z</time>
      </trkpt>
      <trkpt lat="51.491344" lon="8.907544">
        <ele>237.550410</ele>
        <time>2022-04-09T17:29:30.111Z</time>
      </trkpt>
      <trkpt lat="51.491320" lon="8.907541">
        <ele>237.684683</ele>
        <time>2022-04-09T17:29:30.710Z</time>
      </trkpt>
      <trkpt lat="51.491220" lon="8.907479">
        <ele>238.282583</ele>
        <time>2022-04-09T17:29:33.377Z</time>
      </trkpt>
      <trkpt lat="51.490873" lon="8.907166">
        <ele>240.502451</ele>
        <time>2022-04-09T17:29:43.348Z</time>
      </trkpt>
      <trkpt lat="51.490691" lon="8.906850">
        <ele>241.997434</ele>
        <time>2022-04-09T17:29:50.031Z</time>
      </trkpt>
      <trkpt lat="51.489681" lon="8.903880">
        <ele>251.649793</ele>
        <time>2022-04-09T17:30:33.448Z</time>
      </trkpt>
      <trkpt lat="51.489322" lon="8.902475">
        <ele>253.580157</ele>
        <time>2022-04-09T17:30:46.745Z</time>
      </trkpt>
      <trkpt lat="51.488997" lon="8.901317">
        <ele>254.394245</ele>
        <time>2022-04-09T17:30:54.826Z</time>
      </trkpt>
      <trkpt lat="51.488737" lon="8.900597">
        <ele>253.326622</ele>
        <time>2022-04-09T17:30:58.716Z</time>
      </trkpt>
      <trkpt lat="51.487851" lon="8.898979">
        <ele>250.467599</ele>
        <time>2022-04-09T17:31:06.841Z</time>
      </trkpt>
      <trkpt lat="51.487653" lon="8.898803">
        <ele>249.917392</ele>
        <time>2022-04-09T17:31:08.158Z</time>
      </trkpt>
      <trkpt lat="51.487363" lon="8.898748">
        <ele>249.207429</ele>
        <time>2022-04-09T17:31:09.923Z</time>
      </trkpt>
      <trkpt lat="51.486902" lon="8.898743">
        <ele>248.086596</ele>
        <time>2022-04-09T17:31:12.811Z</time>
      </trkpt>
      <trkpt lat="51.486663" lon="8.899084">
        <ele>247.309322</ele>
        <time>2022-04-09T17:31:14.918Z</time>
      </trkpt>
      <trkpt lat="51.486279" lon="8.899802">
        <ele>247.083650</ele>
        <time>2022-04-09T17:31:19.363Z</time>
      </trkpt>
      <trkpt lat="51.486279" lon="8.899802">
        <ele>247.083650</ele>
        <time>2022-04-09T17:31:19.372Z</time>
      </trkpt>
      <trkpt lat="51.485052" lon="8.902003">
        <ele>249.123557</ele>
        <time>2022-04-09T17:31:43.487Z</time>
      </trkpt>
      <trkpt lat="51.484901" lon="8.902525">
        <ele>249.592135</ele>
        <time>2022-04-09T17:31:48.080Z</time>
      </trkpt>
      <trkpt lat="51.484634" lon="8.905032">
        <ele>251.581456</ele>
        <time>2022-04-09T17:32:06.144Z</time>
      </trkpt>
      <trkpt lat="51.484558" lon="8.905580">
        <ele>251.984971</ele>
        <time>2022-04-09T17:32:10.111Z</time>
      </trkpt>
      <trkpt lat="51.484472" lon="8.905866">
        <ele>252.213239</ele>
        <time>2022-04-09T17:32:12.376Z</time>
      </trkpt>
      <trkpt lat="51.484328" lon="8.906092">
        <ele>252.445635</ele>
        <time>2022-04-09T17:32:14.710Z</time>
      </trkpt>
      <trkpt lat="51.484134" lon="8.906226">
        <ele>252.689379</ele>
        <time>2022-04-09T17:32:17.287Z</time>
      </trkpt>
      <trkpt lat="51.482917" lon="8.906907">
        <ele>254.781431</ele>
        <time>2022-04-09T17:32:33.049Z</time>
      </trkpt>
      <trkpt lat="51.482734" lon="8.907234">
        <ele>255.266194</ele>
        <time>2022-04-09T17:32:36.562Z</time>
      </trkpt>
      <trkpt lat="51.482269" lon="8.909589">
        <ele>259.222192</ele>
        <time>2022-04-09T17:32:59.168Z</time>
      </trkpt>
      <trkpt lat="51.481419" lon="8.912232">
        <ele>265.373171</ele>
        <time>2022-04-09T17:33:32.463Z</time>
      </trkpt>
      <trkpt lat="51.481392" lon="8.912474">
        <ele>265.918093</ele>
        <time>2022-04-09T17:33:35.168Z</time>
      </trkpt>
      <trkpt lat="51.481433" lon="8.913349">
        <ele>267.862971</ele>
        <time>2022-04-09T17:33:44.677Z</time>
      </trkpt>
      <trkpt lat="51.481394" lon="8.913712">
        <ele>268.493001</ele>
        <time>2022-04-09T17:33:48.301Z</time>
      </trkpt>
      <trkpt lat="51.481123" lon="8.914621">
        <ele>270.071710</ele>
        <time>2022-04-09T17:33:57.938Z</time>
      </trkpt>
      <trkpt lat="51.480832" lon="8.915040">
        <ele>271.054875</ele>
        <time>2022-04-09T17:34:03.695Z</time>
      </trkpt>
      <trkpt lat="51.480501" lon="8.915250">
        <ele>271.950103</ele>
        <time>2022-04-09T17:34:08.691Z</time>
      </trkpt>
      <trkpt lat="51.479679" lon="8.915613">
        <ele>273.563879</ele>
        <time>2022-04-09T17:34:20.267Z</time>
      </trkpt>
      <trkpt lat="51.479546" lon="8.915659">
        <ele>273.787141</ele>
        <time>2022-04-09T17:34:22.012Z</time>
      </trkpt>
      <trkpt lat="51.479321" lon="8.915603">
        <ele>274.160781</ele>
        <time>2022-04-09T17:34:24.874Z</time>
      </trkpt>
      <trkpt lat="51.479109" lon="8.915419">
        <ele>274.556250</ele>
        <time>2022-04-09T17:34:27.764Z</time>
      </trkpt>
      <trkpt lat="51.478981" lon="8.915473">
        <ele>274.773430</ele>
        <time>2022-04-09T17:34:29.551Z</time>
      </trkpt>
      <trkpt lat="51.477622" lon="8.917613">
        <ele>277.836517</ele>
        <time>2022-04-09T17:34:52.767Z</time>
      </trkpt>
      <trkpt lat="51.475553" lon="8.920300">
        <ele>283.622661</ele>
        <time>2022-04-09T17:35:31.123Z</time>
      </trkpt>
      <trkpt lat="51.474394" lon="8.921840">
        <ele>286.892453</ele>
        <time>2022-04-09T17:35:52.171Z</time>
      </trkpt>
      <trkpt lat="51.474183" lon="8.922121">
        <ele>287.452794</ele>
        <time>2022-04-09T17:35:56.077Z</time>
      </trkpt>
      <trkpt lat="51.473555" lon="8.922799">
        <ele>288.999644</ele>
        <time>2022-04-09T17:36:07.098Z</time>
      </trkpt>
      <trkpt lat="51.473319" lon="8.923143">
        <ele>289.651178</ele>
        <time>2022-04-09T17:36:11.449Z</time>
      </trkpt>
      <trkpt lat="51.473136" lon="8.923531">
        <ele>290.200674</ele>
        <time>2022-04-09T17:36:15.363Z</time>
      </trkpt>
      <trkpt lat="51.472873" lon="8.924670">
        <ele>291.016733</ele>
        <time>2022-04-09T17:36:24.201Z</time>
      </trkpt>
      <trkpt lat="51.472602" lon="8.925945">
        <ele>291.921774</ele>
        <time>2022-04-09T17:36:32.847Z</time>
      </trkpt>
      <trkpt lat="51.472514" lon="8.926118">
        <ele>292.080221</ele>
        <time>2022-04-09T17:36:34.618Z</time>
      </trkpt>
      <trkpt lat="51.472235" lon="8.926486">
        <ele>292.810100</ele>
        <time>2022-04-09T17:36:38.853Z</time>
      </trkpt>
      <trkpt lat="51.471967" lon="8.926627">
        <ele>293.380166</ele>
        <time>2022-04-09T17:36:41.977Z</time>
      </trkpt>
      <trkpt lat="51.471948" lon="8.926641">
        <ele>293.422423</ele>
        <time>2022-04-09T17:36:42.324Z</time>
      </trkpt>
      <trkpt lat="51.471967" lon="8.926627">
        <ele>293.464681</ele>
        <time>2022-04-09T17:36:42.571Z</time>
      </trkpt>
      <trkpt lat="51.471902" lon="8.926346">
        <ele>293.842091</ele>
        <time>2022-04-09T17:36:45.002Z</time>
      </trkpt>
      <trkpt lat="51.471876" lon="8.926196">
        <ele>294.038130</ele>
        <time>2022-04-09T17:36:46.172Z</time>
      </trkpt>
      <trkpt lat="51.471907" lon="8.925530">
        <ele>294.879019</ele>
        <time>2022-04-09T17:36:52.111Z</time>
      </trkpt>
      <trkpt lat="51.471891" lon="8.925466">
        <ele>294.965848</ele>
        <time>2022-04-09T17:36:52.929Z</time>
      </trkpt>
      <trkpt lat="51.471714" lon="8.924748">
        <ele>296.222222</ele>
        <time>2022-04-09T17:37:00.978Z</time>
      </trkpt>
      <trkpt lat="51.471320" lon="8.923224">
        <ele>300.757126</ele>
        <time>2022-04-09T17:37:20.238Z</time>
      </trkpt>
      <trkpt lat="51.471308" lon="8.923179">
        <ele>300.891658</ele>
        <time>2022-04-09T17:37:20.788Z</time>
      </trkpt>
      <trkpt lat="51.471231" lon="8.922681">
        <ele>302.301876</ele>
        <time>2022-04-09T17:37:27.245Z</time>
      </trkpt>
      <trkpt lat="51.471221" lon="8.921180">
        <ele>307.778842</ele>
        <time>2022-04-09T17:37:48.802Z</time>
      </trkpt>
      <trkpt lat="51.471255" lon="8.919230">
        <ele>315.681576</ele>
        <time>2022-04-09T17:38:20.192Z</time>
      </trkpt>
      <trkpt lat="51.471356" lon="8.918755">
        <ele>317.399260</ele>
        <time>2022-04-09T17:38:28.367Z</time>
      </trkpt>
      <trkpt lat="51.471579" lon="8.918378">
        <ele>319.178489</ele>
        <time>2022-04-09T17:38:36.526Z</time>
      </trkpt>
      <trkpt lat="51.472073" lon="8.917995">
        <ele>322.192478</ele>
        <time>2022-04-09T17:38:49.104Z</time>
      </trkpt>
      <trkpt lat="51.472647" lon="8.917569">
        <ele>325.407693</ele>
        <time>2022-04-09T17:39:00.899Z</time>
      </trkpt>
      <trkpt lat="51.472910" lon="8.917298">
        <ele>325.942419</ele>
        <time>2022-04-09T17:39:05.878Z</time>
      </trkpt>
      <trkpt lat="51.475047" lon="8.914158">
        <ele>329.957597</ele>
        <time>2022-04-09T17:39:38.825Z</time>
      </trkpt>
      <trkpt lat="51.475150" lon="8.913914">
        <ele>330.154871</ele>
        <time>2022-04-09T17:39:40.980Z</time>
      </trkpt>
      <trkpt lat="51.475251" lon="8.913439">
        <ele>330.552132</ele>
        <time>2022-04-09T17:39:44.625Z</time>
      </trkpt>
      <trkpt lat="51.475269" lon="8.913138">
        <ele>330.819854</ele>
        <time>2022-04-09T17:39:46.835Z</time>
      </trkpt>
      <trkpt lat="51.475222" lon="8.912782">
        <ele>331.142049</ele>
        <time>2022-04-09T17:39:49.553Z</time>
      </trkpt>
      <trkpt lat="51.475061" lon="8.912022">
        <ele>331.852786</ele>
        <time>2022-04-09T17:39:55.586Z</time>
      </trkpt>
      <trkpt lat="51.474943" lon="8.911598">
        <ele>332.263955</ele>
        <time>2022-04-09T17:39:59.160Z</time>
      </trkpt>
      <trkpt lat="51.474335" lon="8.909134">
        <ele>335.385571</ele>
        <time>2022-04-09T17:40:20.864Z</time>
      </trkpt>
      <trkpt lat="51.474259" lon="8.908635">
        <ele>336.041500</ele>
        <time>2022-04-09T17:40:25.656Z</time>
      </trkpt>
      <trkpt lat="51.474269" lon="8.908047">
        <ele>336.827920</ele>
        <time>2022-04-09T17:40:31.371Z</time>
      </trkpt>
      <trkpt lat="51.474276" lon="8.907838">
        <ele>337.133282</ele>
        <time>2022-04-09T17:40:33.333Z</time>
      </trkpt>
      <trkpt lat="51.474300" lon="8.907214">
        <ele>338.045401</ele>
        <time>2022-04-09T17:40:39.412Z</time>
      </trkpt>
      <trkpt lat="51.474308" lon="8.906658">
        <ele>338.856793</ele>
        <time>2022-04-09T17:40:44.796Z</time>
      </trkpt>
      <trkpt lat="51.474264" lon="8.906419">
        <ele>339.220395</ele>
        <time>2022-04-09T17:40:47.330Z</time>
      </trkpt>
      <trkpt lat="51.473962" lon="8.905879">
        <ele>340.279202</ele>
        <time>2022-04-09T17:40:54.099Z</time>
      </trkpt>
      <trkpt lat="51.472602" lon="8.904775">
        <ele>340.214306</ele>
        <time>2022-04-09T17:41:10.058Z</time>
      </trkpt>
      <trkpt lat="51.471869" lon="8.903752">
        <ele>337.627676</ele>
        <time>2022-04-09T17:41:15.962Z</time>
      </trkpt>
      <trkpt lat="51.470587" lon="8.901668">
        <ele>328.979391</ele>
        <time>2022-04-09T17:41:26.070Z</time>
      </trkpt>
      <trkpt lat="51.469966" lon="8.900660">
        <ele>325.046134</ele>
        <time>2022-04-09T17:41:31.098Z</time>
      </trkpt>
      <trkpt lat="51.469810" lon="8.900408">
        <ele>324.060464</ele>
        <time>2022-04-09T17:41:32.396Z</time>
      </trkpt>
      <trkpt lat="51.468847" lon="8.898857">
        <ele>322.331443</ele>
        <time>2022-04-09T17:41:41.803Z</time>
      </trkpt>
      <trkpt lat="51.468802" lon="8.898764">
        <ele>322.273112</ele>
        <time>2022-04-09T17:41:42.405Z</time>
      </trkpt>
      <trkpt lat="51.468699" lon="8.898472">
        <ele>322.106894</ele>
        <time>2022-04-09T17:41:44.701Z</time>
      </trkpt>
      <trkpt lat="51.468601" lon="8.897911">
        <ele>321.911470</ele>
        <time>2022-04-09T17:41:48.952Z</time>
      </trkpt>
      <trkpt lat="51.468504" lon="8.896864">
        <ele>323.156549</ele>
        <time>2022-04-09T17:41:57.843Z</time>
      </trkpt>
      <trkpt lat="51.468308" lon="8.894758">
        <ele>325.469965</ele>
        <time>2022-04-09T17:42:16.767Z</time>
      </trkpt>
      <trkpt lat="51.468031" lon="8.893441">
        <ele>326.358849</ele>
        <time>2022-04-09T17:42:26.692Z</time>
      </trkpt>
      <trkpt lat="51.467736" lon="8.892727">
        <ele>326.906725</ele>
        <time>2022-04-09T17:42:31.823Z</time>
      </trkpt>
      <trkpt lat="51.467489" lon="8.892321">
        <ele>327.307325</ele>
        <time>2022-04-09T17:42:35.342Z</time>
      </trkpt>
      <trkpt lat="51.467257" lon="8.892060">
        <ele>327.658663</ele>
        <time>2022-04-09T17:42:38.328Z</time>
      </trkpt>
      <trkpt lat="51.466827" lon="8.891780">
        <ele>328.234133</ele>
        <time>2022-04-09T17:42:43.225Z</time>
      </trkpt>
      <trkpt lat="51.466562" lon="8.892015">
        <ele>328.609588</ele>
        <time>2022-04-09T17:42:46.912Z</time>
      </trkpt>
      <trkpt lat="51.466003" lon="8.892839">
        <ele>329.754650</ele>
        <time>2022-04-09T17:42:57.562Z</time>
      </trkpt>
      <trkpt lat="51.465643" lon="8.893256">
        <ele>330.789515</ele>
        <time>2022-04-09T17:43:04.001Z</time>
      </trkpt>
      <trkpt lat="51.465469" lon="8.893370">
        <ele>331.227606</ele>
        <time>2022-04-09T17:43:06.886Z</time>
      </trkpt>
      <trkpt lat="51.465159" lon="8.893217">
        <ele>331.983624</ele>
        <time>2022-04-09T17:43:11.813Z</time>
      </trkpt>
      <trkpt lat="51.464980" lon="8.892962">
        <ele>332.541516</ele>
        <time>2022-04-09T17:43:15.326Z</time>
      </trkpt>
      <trkpt lat="51.464815" lon="8.892465">
        <ele>333.359366</ele>
        <time>2022-04-09T17:43:20.428Z</time>
      </trkpt>
      <trkpt lat="51.464729" lon="8.891861">
        <ele>334.035537</ele>
        <time>2022-04-09T17:43:25.783Z</time>
      </trkpt>
      <trkpt lat="51.464729" lon="8.891451">
        <ele>334.452812</ele>
        <time>2022-04-09T17:43:29.199Z</time>
      </trkpt>
      <trkpt lat="51.464937" lon="8.889599">
        <ele>336.368050</ele>
        <time>2022-04-09T17:43:43.736Z</time>
      </trkpt>
      <trkpt lat="51.464924" lon="8.889360">
        <ele>336.543321</ele>
        <time>2022-04-09T17:43:45.463Z</time>
      </trkpt>
      <trkpt lat="51.464865" lon="8.889167">
        <ele>336.669134</ele>
        <time>2022-04-09T17:43:47.142Z</time>
      </trkpt>
      <trkpt lat="51.464336" lon="8.888262">
        <ele>337.395390</ele>
        <time>2022-04-09T17:43:55.802Z</time>
      </trkpt>
      <trkpt lat="51.464094" lon="8.887819">
        <ele>337.740199</ele>
        <time>2022-04-09T17:43:59.761Z</time>
      </trkpt>
      <trkpt lat="51.463670" lon="8.886053">
        <ele>338.732167</ele>
        <time>2022-04-09T17:44:12.158Z</time>
      </trkpt>
      <trkpt lat="51.462913" lon="8.883129">
        <ele>339.871065</ele>
        <time>2022-04-09T17:44:33.860Z</time>
      </trkpt>
      <trkpt lat="51.461751" lon="8.880006">
        <ele>338.822158</ele>
        <time>2022-04-09T17:44:52.755Z</time>
      </trkpt>
      <trkpt lat="51.461393" lon="8.879357">
        <ele>337.796492</ele>
        <time>2022-04-09T17:44:56.249Z</time>
      </trkpt>
      <trkpt lat="51.461123" lon="8.879059">
        <ele>336.273505</ele>
        <time>2022-04-09T17:44:58.166Z</time>
      </trkpt>
      <trkpt lat="51.460315" lon="8.878514">
        <ele>332.199908</ele>
        <time>2022-04-09T17:45:03.126Z</time>
      </trkpt>
      <trkpt lat="51.460016" lon="8.878156">
        <ele>330.466108</ele>
        <time>2022-04-09T17:45:05.189Z</time>
      </trkpt>
      <trkpt lat="51.459901" lon="8.877960">
        <ele>329.576515</ele>
        <time>2022-04-09T17:45:06.098Z</time>
      </trkpt>
      <trkpt lat="51.459492" lon="8.877085">
        <ele>325.508471</ele>
        <time>2022-04-09T17:45:09.855Z</time>
      </trkpt>
      <trkpt lat="51.459284" lon="8.876341">
        <ele>322.475758</ele>
        <time>2022-04-09T17:45:12.603Z</time>
      </trkpt>
      <trkpt lat="51.459244" lon="8.875925">
        <ele>320.910333</ele>
        <time>2022-04-09T17:45:14.044Z</time>
      </trkpt>
      <trkpt lat="51.459240" lon="8.874453">
        <ele>316.550653</ele>
        <time>2022-04-09T17:45:19.245Z</time>
      </trkpt>
      <trkpt lat="51.459143" lon="8.873937">
        <ele>315.118920</ele>
        <time>2022-04-09T17:45:21.187Z</time>
      </trkpt>
      <trkpt lat="51.458488" lon="8.872250">
        <ele>310.279090</ele>
        <time>2022-04-09T17:45:28.586Z</time>
      </trkpt>
      <trkpt lat="51.458340" lon="8.871745">
        <ele>309.153308</ele>
        <time>2022-04-09T17:45:30.745Z</time>
      </trkpt>
      <trkpt lat="51.458194" lon="8.871000">
        <ele>307.577855</ele>
        <time>2022-04-09T17:45:33.798Z</time>
      </trkpt>
      <trkpt lat="51.458157" lon="8.870507">
        <ele>306.576147</ele>
        <time>2022-04-09T17:45:35.666Z</time>
      </trkpt>
      <trkpt lat="51.458129" lon="8.870134">
        <ele>305.810885</ele>
        <time>2022-04-09T17:45:37.058Z</time>
      </trkpt>
      <trkpt lat="51.458121" lon="8.869962">
        <ele>305.370010</ele>
        <time>2022-04-09T17:45:37.703Z</time>
      </trkpt>
      <trkpt lat="51.458102" lon="8.869399">
        <ele>303.928810</ele>
        <time>2022-04-09T17:45:39.781Z</time>
      </trkpt>
      <trkpt lat="51.458077" lon="8.868692">
        <ele>302.118729</ele>
        <time>2022-04-09T17:45:42.366Z</time>
      </trkpt>
      <trkpt lat="51.458070" lon="8.868489">
        <ele>301.599044</ele>
        <time>2022-04-09T17:45:43.089Z</time>
      </trkpt>
      <trkpt lat="51.458044" lon="8.867935">
        <ele>300.178945</ele>
        <time>2022-04-09T17:45:45.075Z</time>
      </trkpt>
      <trkpt lat="51.458004" lon="8.864169">
        <ele>289.694294</ele>
        <time>2022-04-09T17:45:58.628Z</time>
      </trkpt>
      <trkpt lat="51.458008" lon="8.863755">
        <ele>288.161870</ele>
        <time>2022-04-09T17:46:00.146Z</time>
      </trkpt>
      <trkpt lat="51.458042" lon="8.860697">
        <ele>276.431144</ele>
        <time>2022-04-09T17:46:10.538Z</time>
      </trkpt>
      <trkpt lat="51.458047" lon="8.860277">
        <ele>274.659503</ele>
        <time>2022-04-09T17:46:11.905Z</time>
      </trkpt>
      <trkpt lat="51.458045" lon="8.859844">
        <ele>272.833308</ele>
        <time>2022-04-09T17:46:13.343Z</time>
      </trkpt>
      <trkpt lat="51.458038" lon="8.859310">
        <ele>270.580705</ele>
        <time>2022-04-09T17:46:15.132Z</time>
      </trkpt>
      <trkpt lat="51.457896" lon="8.858168">
        <ele>267.141322</ele>
        <time>2022-04-09T17:46:19.133Z</time>
      </trkpt>
      <trkpt lat="51.457867" lon="8.858049">
        <ele>267.010248</ele>
        <time>2022-04-09T17:46:19.572Z</time>
      </trkpt>
      <trkpt lat="51.457642" lon="8.857971">
        <ele>266.631285</ele>
        <time>2022-04-09T17:46:20.959Z</time>
      </trkpt>
      <trkpt lat="51.457501" lon="8.857820">
        <ele>266.352221</ele>
        <time>2022-04-09T17:46:22.062Z</time>
      </trkpt>
      <trkpt lat="51.456865" lon="8.858209">
        <ele>265.231706</ele>
        <time>2022-04-09T17:46:27.699Z</time>
      </trkpt>
      <trkpt lat="51.456330" lon="8.858393">
        <ele>265.226612</ele>
        <time>2022-04-09T17:46:34.587Z</time>
      </trkpt>
      <trkpt lat="51.456043" lon="8.858624">
        <ele>266.166818</ele>
        <time>2022-04-09T17:46:39.439Z</time>
      </trkpt>
      <trkpt lat="51.455819" lon="8.858863">
        <ele>266.954504</ele>
        <time>2022-04-09T17:46:44.177Z</time>
      </trkpt>
      <trkpt lat="51.455608" lon="8.858952">
        <ele>267.593367</ele>
        <time>2022-04-09T17:46:48.151Z</time>
      </trkpt>
      <trkpt lat="51.455407" lon="8.858913">
        <ele>268.186247</ele>
        <time>2022-04-09T17:46:51.278Z</time>
      </trkpt>
      <trkpt lat="51.455233" lon="8.858761">
        <ele>268.766374</ele>
        <time>2022-04-09T17:46:55.027Z</time>
      </trkpt>
      <trkpt lat="51.454919" lon="8.858251">
        <ele>270.047769</ele>
        <time>2022-04-09T17:47:02.622Z</time>
      </trkpt>
      <trkpt lat="51.454560" lon="8.858042">
        <ele>270.971515</ele>
        <time>2022-04-09T17:47:09.120Z</time>
      </trkpt>
      <trkpt lat="51.454282" lon="8.858021">
        <ele>271.644704</ele>
        <time>2022-04-09T17:47:13.781Z</time>
      </trkpt>
      <trkpt lat="51.454007" lon="8.858220">
        <ele>272.374392</ele>
        <time>2022-04-09T17:47:19.366Z</time>
      </trkpt>
      <trkpt lat="51.453004" lon="8.859355">
        <ele>274.718882</ele>
        <time>2022-04-09T17:47:33.178Z</time>
      </trkpt>
      <trkpt lat="51.452842" lon="8.859608">
        <ele>274.947334</ele>
        <time>2022-04-09T17:47:34.930Z</time>
      </trkpt>
      <trkpt lat="51.452785" lon="8.859761">
        <ele>275.059596</ele>
        <time>2022-04-09T17:47:36.240Z</time>
      </trkpt>
      <trkpt lat="51.452784" lon="8.860154">
        <ele>275.307099</ele>
        <time>2022-04-09T17:47:38.511Z</time>
      </trkpt>
      <trkpt lat="51.452852" lon="8.860461">
        <ele>275.512289</ele>
        <time>2022-04-09T17:47:40.843Z</time>
      </trkpt>
      <trkpt lat="51.453141" lon="8.861222">
        <ele>276.073527</ele>
        <time>2022-04-09T17:47:48.445Z</time>
      </trkpt>
      <trkpt lat="51.453168" lon="8.861509">
        <ele>276.393279</ele>
        <time>2022-04-09T17:47:50.673Z</time>
      </trkpt>
      <trkpt lat="51.453136" lon="8.861807">
        <ele>276.739313</ele>
        <time>2022-04-09T17:47:53.461Z</time>
      </trkpt>
      <trkpt lat="51.452971" lon="8.862166">
        <ele>277.249777</ele>
        <time>2022-04-09T17:47:56.444Z</time>
      </trkpt>
      <trkpt lat="51.452315" lon="8.862910">
        <ele>278.724906</ele>
        <time>2022-04-09T17:48:07.635Z</time>
      </trkpt>
      <trkpt lat="51.452063" lon="8.863067">
        <ele>279.221316</ele>
        <time>2022-04-09T17:48:10.763Z</time>
      </trkpt>
      <trkpt lat="51.451617" lon="8.863187">
        <ele>280.662305</ele>
        <time>2022-04-09T17:48:17.082Z</time>
      </trkpt>
      <trkpt lat="51.451167" lon="8.863191">
        <ele>282.252947</ele>
        <time>2022-04-09T17:48:24.248Z</time>
      </trkpt>
      <trkpt lat="51.450673" lon="8.863311">
        <ele>284.018986</ele>
        <time>2022-04-09T17:48:33.687Z</time>
      </trkpt>
      <trkpt lat="51.450541" lon="8.863355">
        <ele>284.495528</ele>
        <time>2022-04-09T17:48:36.119Z</time>
      </trkpt>
      <trkpt lat="51.450173" lon="8.863492">
        <ele>285.822871</ele>
        <time>2022-04-09T17:48:44.507Z</time>
      </trkpt>
      <trkpt lat="51.449716" lon="8.863467">
        <ele>287.281086</ele>
        <time>2022-04-09T17:48:53.883Z</time>
      </trkpt>
      <trkpt lat="51.449431" lon="8.863316">
        <ele>288.238210</ele>
        <time>2022-04-09T17:48:58.185Z</time>
      </trkpt>
      <trkpt lat="51.449431" lon="8.863316">
        <ele>288.238210</ele>
        <time>2022-04-09T17:48:58.367Z</time>
      </trkpt>
      <trkpt lat="51.449054" lon="8.862961">
        <ele>289.632187</ele>
        <time>2022-04-09T17:49:06.976Z</time>
      </trkpt>
      <trkpt lat="51.448645" lon="8.862511">
        <ele>291.213652</ele>
        <time>2022-04-09T17:49:15.097Z</time>
      </trkpt>
      <trkpt lat="51.448602" lon="8.862464">
        <ele>291.379570</ele>
        <time>2022-04-09T17:49:15.693Z</time>
      </trkpt>
      <trkpt lat="51.448619" lon="8.862381">
        <ele>291.409703</ele>
        <time>2022-04-09T17:49:15.965Z</time>
      </trkpt>
      <trkpt lat="51.448397" lon="8.862037">
        <ele>290.319080</ele>
        <time>2022-04-09T17:49:19.732Z</time>
      </trkpt>
      <trkpt lat="51.447558" lon="8.861332">
        <ele>286.972196</ele>
        <time>2022-04-09T17:49:25.053Z</time>
      </trkpt>
      <trkpt lat="51.446842" lon="8.860460">
        <ele>284.475401</ele>
        <time>2022-04-09T17:49:30.100Z</time>
      </trkpt>
      <trkpt lat="51.444782" lon="8.858649">
        <ele>284.355601</ele>
        <time>2022-04-09T17:49:48.649Z</time>
      </trkpt>
      <trkpt lat="51.444762" lon="8.858624">
        <ele>284.419618</ele>
        <time>2022-04-09T17:49:49.052Z</time>
      </trkpt>
      <trkpt lat="51.444664" lon="8.858502">
        <ele>284.732819</ele>
        <time>2022-04-09T17:49:51.147Z</time>
      </trkpt>
      <trkpt lat="51.444592" lon="8.858413">
        <ele>284.962317</ele>
        <time>2022-04-09T17:49:52.880Z</time>
      </trkpt>
      <trkpt lat="51.444522" lon="8.858326">
        <ele>285.185895</ele>
        <time>2022-04-09T17:49:54.863Z</time>
      </trkpt>
      <trkpt lat="51.444474" lon="8.858268">
        <ele>285.337622</ele>
        <time>2022-04-09T17:49:56.114Z</time>
      </trkpt>
      <trkpt lat="51.443932" lon="8.857895">
        <ele>287.719403</ele>
        <time>2022-04-09T17:50:09.295Z</time>
      </trkpt>
      <trkpt lat="51.443798" lon="8.857178">
        <ele>292.766382</ele>
        <time>2022-04-09T17:50:23.277Z</time>
      </trkpt>
      <trkpt lat="51.443824" lon="8.857028">
        <ele>293.816131</ele>
        <time>2022-04-09T17:50:26.366Z</time>
      </trkpt>
      <trkpt lat="51.444370" lon="8.855776">
        <ele>304.118795</ele>
        <time>2022-04-09T17:51:03.122Z</time>
      </trkpt>
      <trkpt lat="51.444736" lon="8.855313">
        <ele>309.801270</ele>
        <time>2022-04-09T17:51:23.024Z</time>
      </trkpt>
      <trkpt lat="51.444816" lon="8.854992">
        <ele>312.606367</ele>
        <time>2022-04-09T17:51:32.105Z</time>
      </trkpt>
      <trkpt lat="51.444791" lon="8.854515">
        <ele>316.490399</ele>
        <time>2022-04-09T17:51:45.462Z</time>
      </trkpt>
      <trkpt lat="51.444524" lon="8.853376">
        <ele>326.364306</ele>
        <time>2022-04-09T17:52:17.445Z</time>
      </trkpt>
      <trkpt lat="51.444088" lon="8.852077">
        <ele>333.979101</ele>
        <time>2022-04-09T17:52:46.524Z</time>
      </trkpt>
      <trkpt lat="51.444214" lon="8.852107">
        <ele>334.826390</ele>
        <time>2022-04-09T17:52:49.261Z</time>
      </trkpt>
      <trkpt lat="51.444931" lon="8.853341">
        <ele>341.701049</ele>
        <time>2022-04-09T17:53:10.188Z</time>
      </trkpt>
      <trkpt lat="51.445151" lon="8.853586">
        <ele>342.986099</ele>
        <time>2022-04-09T17:53:15.150Z</time>
      </trkpt>
      <trkpt lat="51.445853" lon="8.853959">
        <ele>346.534575</ele>
        <time>2022-04-09T17:53:26.416Z</time>
      </trkpt>
      <trkpt lat="51.445995" lon="8.853963">
        <ele>347.216072</ele>
        <time>2022-04-09T17:53:29.818Z</time>
      </trkpt>
      <trkpt lat="51.446056" lon="8.853844">
        <ele>347.676874</ele>
        <time>2022-04-09T17:53:32.856Z</time>
      </trkpt>
      <trkpt lat="51.446215" lon="8.853924">
        <ele>348.476474</ele>
        <time>2022-04-09T17:53:35.835Z</time>
      </trkpt>
      <trkpt lat="51.446215" lon="8.853925">
        <ele>348.479465</ele>
        <time>2022-04-09T17:53:35.908Z</time>
      </trkpt>
      <trkpt lat="51.446494" lon="8.854097">
        <ele>349.913676</ele>
        <time>2022-04-09T17:53:42.492Z</time>
      </trkpt>
      <trkpt lat="51.446773" lon="8.854409">
        <ele>353.206713</ele>
        <time>2022-04-09T17:53:52.023Z</time>
      </trkpt>
      <trkpt lat="51.446986" lon="8.854640">
        <ele>355.785860</ele>
        <time>2022-04-09T17:54:00.766Z</time>
      </trkpt>
      <trkpt lat="51.447120" lon="8.854609">
        <ele>357.144053</ele>
        <time>2022-04-09T17:54:04.583Z</time>
      </trkpt>
      <trkpt lat="51.447173" lon="8.854505">
        <ele>357.984004</ele>
        <time>2022-04-09T17:54:07.956Z</time>
      </trkpt>
      <trkpt lat="51.447182" lon="8.854441">
        <ele>358.394212</ele>
        <time>2022-04-09T17:54:09.331Z</time>
      </trkpt>
      <trkpt lat="51.447155" lon="8.854210">
        <ele>359.863679</ele>
        <time>2022-04-09T17:54:15.436Z</time>
      </trkpt>
      <trkpt lat="51.447076" lon="8.854027">
        <ele>361.255528</ele>
        <time>2022-04-09T17:54:20.407Z</time>
      </trkpt>
      <trkpt lat="51.446737" lon="8.853675">
        <ele>365.306391</ele>
        <time>2022-04-09T17:54:34.319Z</time>
      </trkpt>
      <trkpt lat="51.446710" lon="8.853444">
        <ele>366.775872</ele>
        <time>2022-04-09T17:54:39.470Z</time>
      </trkpt>
      <trkpt lat="51.446737" lon="8.853349">
        <ele>367.428693</ele>
        <time>2022-04-09T17:54:41.569Z</time>
      </trkpt>
      <trkpt lat="51.446788" lon="8.853293">
        <ele>368.048663</ele>
        <time>2022-04-09T17:54:43.573Z</time>
      </trkpt>
      <trkpt lat="51.446909" lon="8.853258">
        <ele>369.191597</ele>
        <time>2022-04-09T17:54:48.646Z</time>
      </trkpt>
      <trkpt lat="51.447608" lon="8.852918">
        <ele>375.973549</ele>
        <time>2022-04-09T17:55:14.103Z</time>
      </trkpt>
      <trkpt lat="51.448316" lon="8.852549">
        <ele>382.885492</ele>
        <time>2022-04-09T17:55:37.534Z</time>
      </trkpt>
      <trkpt lat="51.449086" lon="8.851961">
        <ele>385.383399</ele>
        <time>2022-04-09T17:55:55.821Z</time>
      </trkpt>
      <trkpt lat="51.449165" lon="8.852096">
        <ele>385.492813</ele>
        <time>2022-04-09T17:55:57.397Z</time>
      </trkpt>
      <trkpt lat="51.449487" lon="8.852028">
        <ele>385.800717</ele>
        <time>2022-04-09T17:56:01.066Z</time>
      </trkpt>
      <trkpt lat="51.449515" lon="8.852021">
        <ele>385.827583</ele>
        <time>2022-04-09T17:56:01.245Z</time>
      </trkpt>
      <trkpt lat="51.449765" lon="8.851884">
        <ele>386.078035</ele>
        <time>2022-04-09T17:56:03.008Z</time>
      </trkpt>
      <trkpt lat="51.449994" lon="8.851794">
        <ele>386.301555</ele>
        <time>2022-04-09T17:56:04.420Z</time>
      </trkpt>
      <trkpt lat="51.450510" lon="8.851792">
        <ele>383.590735</ele>
        <time>2022-04-09T17:56:07.361Z</time>
      </trkpt>
      <trkpt lat="51.450541" lon="8.851948">
        <ele>382.715469</ele>
        <time>2022-04-09T17:56:07.894Z</time>
      </trkpt>
      <trkpt lat="51.450564" lon="8.852124">
        <ele>381.754201</ele>
        <time>2022-04-09T17:56:08.468Z</time>
      </trkpt>
      <trkpt lat="51.450616" lon="8.852402">
        <ele>380.202660</ele>
        <time>2022-04-09T17:56:09.523Z</time>
      </trkpt>
      <trkpt lat="51.450697" lon="8.852662">
        <ele>378.648845</ele>
        <time>2022-04-09T17:56:10.437Z</time>
      </trkpt>
      <trkpt lat="51.450863" lon="8.852910">
        <ele>376.703372</ele>
        <time>2022-04-09T17:56:11.635Z</time>
      </trkpt>
      <trkpt lat="51.451139" lon="8.853158">
        <ele>373.990053</ele>
        <time>2022-04-09T17:56:13.252Z</time>
      </trkpt>
      <trkpt lat="51.451282" lon="8.853161">
        <ele>372.763348</ele>
        <time>2022-04-09T17:56:13.965Z</time>
      </trkpt>
      <trkpt lat="51.451426" lon="8.853266">
        <ele>371.406629</ele>
        <time>2022-04-09T17:56:14.790Z</time>
      </trkpt>
      <trkpt lat="51.451807" lon="8.853774">
        <ele>367.677322</ele>
        <time>2022-04-09T17:56:17.336Z</time>
      </trkpt>
      <trkpt lat="51.452038" lon="8.854067">
        <ele>365.489374</ele>
        <time>2022-04-09T17:56:18.884Z</time>
      </trkpt>
      <trkpt lat="51.452319" lon="8.854359">
        <ele>363.001795</ele>
        <time>2022-04-09T17:56:20.670Z</time>
      </trkpt>
      <trkpt lat="51.452584" lon="8.854509">
        <ele>360.913756</ele>
        <time>2022-04-09T17:56:22.174Z</time>
      </trkpt>
      <trkpt lat="51.452830" lon="8.854453">
        <ele>359.067511</ele>
        <time>2022-04-09T17:56:23.677Z</time>
      </trkpt>
      <trkpt lat="51.453093" lon="8.854343">
        <ele>357.405064</ele>
        <time>2022-04-09T17:56:25.337Z</time>
      </trkpt>
      <trkpt lat="51.453483" lon="8.854179">
        <ele>356.104445</ele>
        <time>2022-04-09T17:56:27.725Z</time>
      </trkpt>
      <trkpt lat="51.453686" lon="8.854024">
        <ele>355.379217</ele>
        <time>2022-04-09T17:56:29.108Z</time>
      </trkpt>
      <trkpt lat="51.454202" lon="8.853174">
        <ele>352.993703</ele>
        <time>2022-04-09T17:56:34.364Z</time>
      </trkpt>
      <trkpt lat="51.454522" lon="8.852790">
        <ele>351.344840</ele>
        <time>2022-04-09T17:56:36.985Z</time>
      </trkpt>
      <trkpt lat="51.454671" lon="8.852677">
        <ele>349.700553</ele>
        <time>2022-04-09T17:56:37.840Z</time>
      </trkpt>
      <trkpt lat="51.455000" lon="8.852036">
        <ele>344.537446</ele>
        <time>2022-04-09T17:56:40.545Z</time>
      </trkpt>
      <trkpt lat="51.455257" lon="8.851002">
        <ele>337.616309</ele>
        <time>2022-04-09T17:56:44.109Z</time>
      </trkpt>
      <trkpt lat="51.455413" lon="8.850787">
        <ele>335.564629</ele>
        <time>2022-04-09T17:56:45.202Z</time>
      </trkpt>
      <trkpt lat="51.455488" lon="8.850766">
        <ele>334.805015</ele>
        <time>2022-04-09T17:56:45.582Z</time>
      </trkpt>
      <trkpt lat="51.456001" lon="8.851113">
        <ele>325.833410</ele>
        <time>2022-04-09T17:56:48.358Z</time>
      </trkpt>
      <trkpt lat="51.456154" lon="8.851365">
        <ele>322.048880</ele>
        <time>2022-04-09T17:56:49.433Z</time>
      </trkpt>
      <trkpt lat="51.456171" lon="8.851660">
        <ele>318.862245</ele>
        <time>2022-04-09T17:56:50.353Z</time>
      </trkpt>
      <trkpt lat="51.455884" lon="8.852184">
        <ele>311.358104</ele>
        <time>2022-04-09T17:56:52.485Z</time>
      </trkpt>
      <trkpt lat="51.455877" lon="8.852419">
        <ele>308.827483</ele>
        <time>2022-04-09T17:56:53.207Z</time>
      </trkpt>
      <trkpt lat="51.455918" lon="8.852513">
        <ele>307.593297</ele>
        <time>2022-04-09T17:56:53.561Z</time>
      </trkpt>
      <trkpt lat="51.456095" lon="8.852670">
        <ele>304.102271</ele>
        <time>2022-04-09T17:56:54.577Z</time>
      </trkpt>
      <trkpt lat="51.456304" lon="8.852721">
        <ele>300.655270</ele>
        <time>2022-04-09T17:56:55.623Z</time>
      </trkpt>
      <trkpt lat="51.456867" lon="8.852552">
        <ele>291.591280</ele>
        <time>2022-04-09T17:56:58.454Z</time>
      </trkpt>
      <trkpt lat="51.457146" lon="8.852540">
        <ele>287.174517</ele>
        <time>2022-04-09T17:56:59.829Z</time>
      </trkpt>
      <trkpt lat="51.457451" lon="8.852761">
        <ele>281.878749</ele>
        <time>2022-04-09T17:57:01.480Z</time>
      </trkpt>
      <trkpt lat="51.457609" lon="8.852892">
        <ele>279.064446</ele>
        <time>2022-04-09T17:57:02.368Z</time>
      </trkpt>
      <trkpt lat="51.458747" lon="8.854006">
        <ele>265.008351</ele>
        <time>2022-04-09T17:57:09.222Z</time>
      </trkpt>
      <trkpt lat="51.458886" lon="8.854057">
        <ele>263.717438</ele>
        <time>2022-04-09T17:57:09.976Z</time>
      </trkpt>
      <trkpt lat="51.459137" lon="8.853972">
        <ele>261.394955</ele>
        <time>2022-04-09T17:57:11.348Z</time>
      </trkpt>
      <trkpt lat="51.459332" lon="8.853754">
        <ele>259.243427</ele>
        <time>2022-04-09T17:57:12.642Z</time>
      </trkpt>
      <trkpt lat="51.459497" lon="8.853371">
        <ele>257.625540</ele>
        <time>2022-04-09T17:57:14.257Z</time>
      </trkpt>
      <trkpt lat="51.459683" lon="8.853576">
        <ele>256.940346</ele>
        <time>2022-04-09T17:57:15.548Z</time>
      </trkpt>
      <trkpt lat="51.459876" lon="8.853285">
        <ele>256.136192</ele>
        <time>2022-04-09T17:57:17.127Z</time>
      </trkpt>
      <trkpt lat="51.460169" lon="8.852931">
        <ele>255.022497</ele>
        <time>2022-04-09T17:57:19.437Z</time>
      </trkpt>
      <trkpt lat="51.460528" lon="8.852819">
        <ele>253.911898</ele>
        <time>2022-04-09T17:57:21.859Z</time>
      </trkpt>
      <trkpt lat="51.460821" lon="8.852965">
        <ele>252.980235</ele>
        <time>2022-04-09T17:57:24.020Z</time>
      </trkpt>
      <trkpt lat="51.461366" lon="8.853462">
        <ele>252.399892</ele>
        <time>2022-04-09T17:57:28.719Z</time>
      </trkpt>
      <trkpt lat="51.461539" lon="8.853122">
        <ele>252.257947</ele>
        <time>2022-04-09T17:57:30.809Z</time>
      </trkpt>
      <trkpt lat="51.461670" lon="8.852828">
        <ele>252.141071</ele>
        <time>2022-04-09T17:57:32.607Z</time>
      </trkpt>
      <trkpt lat="51.461811" lon="8.852362">
        <ele>251.973560</ele>
        <time>2022-04-09T17:57:35.228Z</time>
      </trkpt>
      <trkpt lat="51.461894" lon="8.851985">
        <ele>251.844269</ele>
        <time>2022-04-09T17:57:37.293Z</time>
      </trkpt>
      <trkpt lat="51.462096" lon="8.851077">
        <ele>252.165167</ele>
        <time>2022-04-09T17:57:42.718Z</time>
      </trkpt>
      <trkpt lat="51.462110" lon="8.851010">
        <ele>252.212274</ele>
        <time>2022-04-09T17:57:43.210Z</time>
      </trkpt>
      <trkpt lat="51.462156" lon="8.850809">
        <ele>252.355014</ele>
        <time>2022-04-09T17:57:44.721Z</time>
      </trkpt>
      <trkpt lat="51.462207" lon="8.850586">
        <ele>252.513363</ele>
        <time>2022-04-09T17:57:46.414Z</time>
      </trkpt>
      <trkpt lat="51.462319" lon="8.849995">
        <ele>252.925144</ele>
        <time>2022-04-09T17:57:51.335Z</time>
      </trkpt>
      <trkpt lat="51.462364" lon="8.849589">
        <ele>253.200031</ele>
        <time>2022-04-09T17:57:54.589Z</time>
      </trkpt>
      <trkpt lat="51.462416" lon="8.848980">
        <ele>253.609781</ele>
        <time>2022-04-09T17:57:59.370Z</time>
      </trkpt>
      <trkpt lat="51.462431" lon="8.848875">
        <ele>253.677263</ele>
        <time>2022-04-09T17:58:00.209Z</time>
      </trkpt>
      <trkpt lat="51.462569" lon="8.848416">
        <ele>253.935401</ele>
        <time>2022-04-09T17:58:04.197Z</time>
      </trkpt>
      <trkpt lat="51.462892" lon="8.847822">
        <ele>254.334738</ele>
        <time>2022-04-09T17:58:10.297Z</time>
      </trkpt>
      <trkpt lat="51.463949" lon="8.849181">
        <ele>254.944022</ele>
        <time>2022-04-09T17:58:23.649Z</time>
      </trkpt>
      <trkpt lat="51.464499" lon="8.849888">
        <ele>254.608008</ele>
        <time>2022-04-09T17:58:28.567Z</time>
      </trkpt>
      <trkpt lat="51.464562" lon="8.849969">
        <ele>254.569516</ele>
        <time>2022-04-09T17:58:29.127Z</time>
      </trkpt>
      <trkpt lat="51.465464" lon="8.851322">
        <ele>256.334708</ele>
        <time>2022-04-09T17:58:39.539Z</time>
      </trkpt>
      <trkpt lat="51.465576" lon="8.851503">
        <ele>256.879869</ele>
        <time>2022-04-09T17:58:42.365Z</time>
      </trkpt>
      <trkpt lat="51.465904" lon="8.852027">
        <ele>258.467232</ele>
        <time>2022-04-09T17:58:50.905Z</time>
      </trkpt>
      <trkpt lat="51.466172" lon="8.852448">
        <ele>259.753492</ele>
        <time>2022-04-09T17:58:59.265Z</time>
      </trkpt>
      <trkpt lat="51.466282" lon="8.852285">
        <ele>260.267006</ele>
        <time>2022-04-09T17:59:02.946Z</time>
      </trkpt>
      <trkpt lat="51.466632" lon="8.851794">
        <ele>263.722740</ele>
        <time>2022-04-09T17:59:15.777Z</time>
      </trkpt>
      <trkpt lat="51.467695" lon="8.850285">
        <ele>274.872969</ele>
        <time>2022-04-09T17:59:58.378Z</time>
      </trkpt>
      <trkpt lat="51.468091" lon="8.849279">
        <ele>279.040632</ele>
        <time>2022-04-09T18:00:15.083Z</time>
      </trkpt>
      <trkpt lat="51.468426" lon="8.847848">
        <ele>284.394442</ele>
        <time>2022-04-09T18:00:33.078Z</time>
      </trkpt>
      <trkpt lat="51.468671" lon="8.845971">
        <ele>292.602295</ele>
        <time>2022-04-09T18:01:03.019Z</time>
      </trkpt>
      <trkpt lat="51.468789" lon="8.844431">
        <ele>299.224555</ele>
        <time>2022-04-09T18:01:30.995Z</time>
      </trkpt>
      <trkpt lat="51.469221" lon="8.838786">
        <ele>321.048534</ele>
        <time>2022-04-09T18:02:55.154Z</time>
      </trkpt>
      <trkpt lat="51.469496" lon="8.836677">
        <ele>326.845795</ele>
        <time>2022-04-09T18:03:18.668Z</time>
      </trkpt>
      <trkpt lat="51.469579" lon="8.834787">
        <ele>335.052475</ele>
        <time>2022-04-09T18:03:42.118Z</time>
      </trkpt>
      <trkpt lat="51.469533" lon="8.833442">
        <ele>341.395081</ele>
        <time>2022-04-09T18:04:10.909Z</time>
      </trkpt>
      <trkpt lat="51.469431" lon="8.832706">
        <ele>346.211506</ele>
        <time>2022-04-09T18:04:29.393Z</time>
      </trkpt>
      <trkpt lat="51.469265" lon="8.832366">
        <ele>348.970992</ele>
        <time>2022-04-09T18:04:40.279Z</time>
      </trkpt>
      <trkpt lat="51.468753" lon="8.831774">
        <ele>355.441459</ele>
        <time>2022-04-09T18:05:04.276Z</time>
      </trkpt>
      <trkpt lat="51.468648" lon="8.831469">
        <ele>357.667523</ele>
        <time>2022-04-09T18:05:09.541Z</time>
      </trkpt>
      <trkpt lat="51.468385" lon="8.829683">
        <ele>362.336732</ele>
        <time>2022-04-09T18:05:32.589Z</time>
      </trkpt>
      <trkpt lat="51.468396" lon="8.829486">
        <ele>362.670023</ele>
        <time>2022-04-09T18:05:34.034Z</time>
      </trkpt>
      <trkpt lat="51.468484" lon="8.829411">
        <ele>362.939532</ele>
        <time>2022-04-09T18:05:34.600Z</time>
      </trkpt>
      <trkpt lat="51.468589" lon="8.829459">
        <ele>363.234850</ele>
        <time>2022-04-09T18:05:36.871Z</time>
      </trkpt>
      <trkpt lat="51.468977" lon="8.830124">
        <ele>364.732931</ele>
        <time>2022-04-09T18:05:40.969Z</time>
      </trkpt>
      <trkpt lat="51.469140" lon="8.830085">
        <ele>365.005120</ele>
        <time>2022-04-09T18:05:42.826Z</time>
      </trkpt>
      <trkpt lat="51.469232" lon="8.829921">
        <ele>365.232188</ele>
        <time>2022-04-09T18:05:44.368Z</time>
      </trkpt>
      <trkpt lat="51.469730" lon="8.828886">
        <ele>366.577720</ele>
        <time>2022-04-09T18:05:52.233Z</time>
      </trkpt>
      <trkpt lat="51.470161" lon="8.828160">
        <ele>367.609540</ele>
        <time>2022-04-09T18:06:02.786Z</time>
      </trkpt>
      <trkpt lat="51.470588" lon="8.827723">
        <ele>369.400720</ele>
        <time>2022-04-09T18:06:14.548Z</time>
      </trkpt>
      <trkpt lat="51.471064" lon="8.827347">
        <ele>371.321786</ele>
        <time>2022-04-09T18:06:24.441Z</time>
      </trkpt>
      <trkpt lat="51.471911" lon="8.826937">
        <ele>374.145768</ele>
        <time>2022-04-09T18:06:38.515Z</time>
      </trkpt>
      <trkpt lat="51.472592" lon="8.826834">
        <ele>374.059653</ele>
        <time>2022-04-09T18:06:46.955Z</time>
      </trkpt>
      <trkpt lat="51.472757" lon="8.827029">
        <ele>374.033858</ele>
        <time>2022-04-09T18:06:48.436Z</time>
      </trkpt>
      <trkpt lat="51.472776" lon="8.827340">
        <ele>374.009352</ele>
        <time>2022-04-09T18:06:49.843Z</time>
      </trkpt>
      <trkpt lat="51.472666" lon="8.827594">
        <ele>373.985092</ele>
        <time>2022-04-09T18:06:51.116Z</time>
      </trkpt>
      <trkpt lat="51.472339" lon="8.827951">
        <ele>373.935307</ele>
        <time>2022-04-09T18:06:53.671Z</time>
      </trkpt>
      <trkpt lat="51.471742" lon="8.828586">
        <ele>373.819314</ele>
        <time>2022-04-09T18:06:58.318Z</time>
      </trkpt>
      <trkpt lat="51.471318" lon="8.829287">
        <ele>373.719918</ele>
        <time>2022-04-09T18:07:02.883Z</time>
      </trkpt>
      <trkpt lat="51.471254" lon="8.829548">
        <ele>373.691384</ele>
        <time>2022-04-09T18:07:04.485Z</time>
      </trkpt>
      <trkpt lat="51.471268" lon="8.829819">
        <ele>373.663722</ele>
        <time>2022-04-09T18:07:06.220Z</time>
      </trkpt>
      <trkpt lat="51.471533" lon="8.830276">
        <ele>375.469010</ele>
        <time>2022-04-09T18:07:12.867Z</time>
      </trkpt>
      <trkpt lat="51.472286" lon="8.831249">
        <ele>383.046675</ele>
        <time>2022-04-09T18:07:39.919Z</time>
      </trkpt>
      <trkpt lat="51.472625" lon="8.831602">
        <ele>386.214298</ele>
        <time>2022-04-09T18:07:54.369Z</time>
      </trkpt>
      <trkpt lat="51.473035" lon="8.831615">
        <ele>389.674803</ele>
        <time>2022-04-09T18:08:08.996Z</time>
      </trkpt>
      <trkpt lat="51.473146" lon="8.831598">
        <ele>390.675989</ele>
        <time>2022-04-09T18:08:12.849Z</time>
      </trkpt>
      <trkpt lat="51.473527" lon="8.831628">
        <ele>394.101074</ele>
        <time>2022-04-09T18:08:26.008Z</time>
      </trkpt>
      <trkpt lat="51.473808" lon="8.831806">
        <ele>396.813448</ele>
        <time>2022-04-09T18:08:36.587Z</time>
      </trkpt>
      <trkpt lat="51.474042" lon="8.832097">
        <ele>399.471114</ele>
        <time>2022-04-09T18:08:45.588Z</time>
      </trkpt>
      <trkpt lat="51.474625" lon="8.833331">
        <ele>405.119438</ele>
        <time>2022-04-09T18:09:07.675Z</time>
      </trkpt>
      <trkpt lat="51.474766" lon="8.833623">
        <ele>405.718661</ele>
        <time>2022-04-09T18:09:11.789Z</time>
      </trkpt>
      <trkpt lat="51.475060" lon="8.833934">
        <ele>406.635420</ele>
        <time>2022-04-09T18:09:16.161Z</time>
      </trkpt>
      <trkpt lat="51.475421" lon="8.834035">
        <ele>407.589576</ele>
        <time>2022-04-09T18:09:20.317Z</time>
      </trkpt>
      <trkpt lat="51.475471" lon="8.834045">
        <ele>407.720774</ele>
        <time>2022-04-09T18:09:20.804Z</time>
      </trkpt>
      <trkpt lat="51.475903" lon="8.834166">
        <ele>408.599808</ele>
        <time>2022-04-09T18:09:24.781Z</time>
      </trkpt>
      <trkpt lat="51.476236" lon="8.834429">
        <ele>408.692539</ele>
        <time>2022-04-09T18:09:27.820Z</time>
      </trkpt>
      <trkpt lat="51.477033" lon="8.835383">
        <ele>408.940942</ele>
        <time>2022-04-09T18:09:36.137Z</time>
      </trkpt>
      <trkpt lat="51.477339" lon="8.835568">
        <ele>409.032627</ele>
        <time>2022-04-09T18:09:39.781Z</time>
      </trkpt>
      <trkpt lat="51.477535" lon="8.835603">
        <ele>409.460248</ele>
        <time>2022-04-09T18:09:42.336Z</time>
      </trkpt>
      <trkpt lat="51.477881" lon="8.835535">
        <ele>410.216104</ele>
        <time>2022-04-09T18:09:47.229Z</time>
      </trkpt>
      <trkpt lat="51.478234" lon="8.835337">
        <ele>411.026900</ele>
        <time>2022-04-09T18:09:52.837Z</time>
      </trkpt>
      <trkpt lat="51.478578" lon="8.834984">
        <ele>411.912145</ele>
        <time>2022-04-09T18:09:59.249Z</time>
      </trkpt>
      <trkpt lat="51.478717" lon="8.834766">
        <ele>412.333473</ele>
        <time>2022-04-09T18:10:02.084Z</time>
      </trkpt>
      <trkpt lat="51.478717" lon="8.834766">
        <ele>412.333473</ele>
        <time>2022-04-09T18:10:02.129Z</time>
      </trkpt>
      <trkpt lat="51.478854" lon="8.834491">
        <ele>412.809048</ele>
        <time>2022-04-09T18:10:05.294Z</time>
      </trkpt>
      <trkpt lat="51.479009" lon="8.833965">
        <ele>413.439342</ele>
        <time>2022-04-09T18:10:10.431Z</time>
      </trkpt>
      <trkpt lat="51.479119" lon="8.833439">
        <ele>414.015580</ele>
        <time>2022-04-09T18:10:15.233Z</time>
      </trkpt>
      <trkpt lat="51.479188" lon="8.833092">
        <ele>414.393870</ele>
        <time>2022-04-09T18:10:18.298Z</time>
      </trkpt>
      <trkpt lat="51.479357" lon="8.832552">
        <ele>415.021497</ele>
        <time>2022-04-09T18:10:22.999Z</time>
      </trkpt>
      <trkpt lat="51.479643" lon="8.832124">
        <ele>415.673424</ele>
        <time>2022-04-09T18:10:27.360Z</time>
      </trkpt>
      <trkpt lat="51.480034" lon="8.831848">
        <ele>416.383602</ele>
        <time>2022-04-09T18:10:32.183Z</time>
      </trkpt>
      <trkpt lat="51.480206" lon="8.831807">
        <ele>416.672284</ele>
        <time>2022-04-09T18:10:34.209Z</time>
      </trkpt>
      <trkpt lat="51.480342" lon="8.831795">
        <ele>416.898411</ele>
        <time>2022-04-09T18:10:35.720Z</time>
      </trkpt>
      <trkpt lat="51.480638" lon="8.831864">
        <ele>417.394980</ele>
        <time>2022-04-09T18:10:39.386Z</time>
      </trkpt>
      <trkpt lat="51.481184" lon="8.832142">
        <ele>418.345924</ele>
        <time>2022-04-09T18:10:47.204Z</time>
      </trkpt>
      <trkpt lat="51.481444" lon="8.832234">
        <ele>418.787931</ele>
        <time>2022-04-09T18:10:51.020Z</time>
      </trkpt>
      <trkpt lat="51.481502" lon="8.832204">
        <ele>418.889094</ele>
        <time>2022-04-09T18:10:51.983Z</time>
      </trkpt>
      <trkpt lat="51.481696" lon="8.832505">
        <ele>419.385482</ele>
        <time>2022-04-09T18:10:55.900Z</time>
      </trkpt>
      <trkpt lat="51.482025" lon="8.832798">
        <ele>420.080523</ele>
        <time>2022-04-09T18:11:01.345Z</time>
      </trkpt>
      <trkpt lat="51.482358" lon="8.832996">
        <ele>420.736552</ele>
        <time>2022-04-09T18:11:06.096Z</time>
      </trkpt>
      <trkpt lat="51.482451" lon="8.833068">
        <ele>420.927294</ele>
        <time>2022-04-09T18:11:07.399Z</time>
      </trkpt>
      <trkpt lat="51.482920" lon="8.833630">
        <ele>422.008420</ele>
        <time>2022-04-09T18:11:14.521Z</time>
      </trkpt>
      <trkpt lat="51.483488" lon="8.834302">
        <ele>423.851335</ele>
        <time>2022-04-09T18:11:23.566Z</time>
      </trkpt>
      <trkpt lat="51.483914" lon="8.834609">
        <ele>425.144069</ele>
        <time>2022-04-09T18:11:29.995Z</time>
      </trkpt>
      <trkpt lat="51.485049" lon="8.834198">
        <ele>429.334411</ele>
        <time>2022-04-09T18:11:51.551Z</time>
      </trkpt>
      <trkpt lat="51.485862" lon="8.833914">
        <ele>433.569195</ele>
        <time>2022-04-09T18:12:11.387Z</time>
      </trkpt>
      <trkpt lat="51.487084" lon="8.834007">
        <ele>437.803163</ele>
        <time>2022-04-09T18:12:35.785Z</time>
      </trkpt>
      <trkpt lat="51.487747" lon="8.834057">
        <ele>439.219730</ele>
        <time>2022-04-09T18:12:44.622Z</time>
      </trkpt>
      <trkpt lat="51.487777" lon="8.834065">
        <ele>439.284634</ele>
        <time>2022-04-09T18:12:44.857Z</time>
      </trkpt>
      <trkpt lat="51.488655" lon="8.834318">
        <ele>439.070394</ele>
        <time>2022-04-09T18:12:51.645Z</time>
      </trkpt>
      <trkpt lat="51.489619" lon="8.834652">
        <ele>436.651667</ele>
        <time>2022-04-09T18:12:57.743Z</time>
      </trkpt>
      <trkpt lat="51.490537" lon="8.835029">
        <ele>433.483329</ele>
        <time>2022-04-09T18:13:03.328Z</time>
      </trkpt>
      <trkpt lat="51.492802" lon="8.835840">
        <ele>425.031423</ele>
        <time>2022-04-09T18:13:16.966Z</time>
      </trkpt>
      <trkpt lat="51.494997" lon="8.836074">
        <ele>419.767335</ele>
        <time>2022-04-09T18:13:30.921Z</time>
      </trkpt>
      <trkpt lat="51.495182" lon="8.836160">
        <ele>419.393229</ele>
        <time>2022-04-09T18:13:32.431Z</time>
      </trkpt>
      <trkpt lat="51.495787" lon="8.836707">
        <ele>419.970454</ele>
        <time>2022-04-09T18:13:39.070Z</time>
      </trkpt>
      <trkpt lat="51.497460" lon="8.837460">
        <ele>422.753743</ele>
        <time>2022-04-09T18:14:02.901Z</time>
      </trkpt>
      <trkpt lat="51.498047" lon="8.837594">
        <ele>424.191248</ele>
        <time>2022-04-09T18:14:12.257Z</time>
      </trkpt>
      <trkpt lat="51.501317" lon="8.838341">
        <ele>430.748497</ele>
        <time>2022-04-09T18:15:00.836Z</time>
      </trkpt>
      <trkpt lat="51.502016" lon="8.838395">
        <ele>431.243822</ele>
        <time>2022-04-09T18:15:06.856Z</time>
      </trkpt>
      <trkpt lat="51.504144" lon="8.838560">
        <ele>427.725837</ele>
        <time>2022-04-09T18:15:21.021Z</time>
      </trkpt>
      <trkpt lat="51.504802" lon="8.838771">
        <ele>425.330073</ele>
        <time>2022-04-09T18:15:25.141Z</time>
      </trkpt>
      <trkpt lat="51.507187" lon="8.839651">
        <ele>415.814742</ele>
        <time>2022-04-09T18:15:39.365Z</time>
      </trkpt>
      <trkpt lat="51.510099" lon="8.840836">
        <ele>404.572619</ele>
        <time>2022-04-09T18:15:57.033Z</time>
      </trkpt>
      <trkpt lat="51.510382" lon="8.840952">
        <ele>403.642190</ele>
        <time>2022-04-09T18:15:58.822Z</time>
      </trkpt>
      <trkpt lat="51.512661" lon="8.841886">
        <ele>397.401406</ele>
        <time>2022-04-09T18:16:13.842Z</time>
      </trkpt>
      <trkpt lat="51.514022" lon="8.842444">
        <ele>394.026366</ele>
        <time>2022-04-09T18:16:22.781Z</time>
      </trkpt>
      <trkpt lat="51.514155" lon="8.842548">
        <ele>393.671381</ele>
        <time>2022-04-09T18:16:23.727Z</time>
      </trkpt>
      <trkpt lat="51.515220" lon="8.842956">
        <ele>391.332494</ele>
        <time>2022-04-09T18:16:30.772Z</time>
      </trkpt>
      <trkpt lat="51.517696" lon="8.842813">
        <ele>386.733974</ele>
        <time>2022-04-09T18:16:47.415Z</time>
      </trkpt>
      <trkpt lat="51.520544" lon="8.842648">
        <ele>381.748416</ele>
        <time>2022-04-09T18:17:06.738Z</time>
      </trkpt>
      <trkpt lat="51.522990" lon="8.842510">
        <ele>377.243498</ele>
        <time>2022-04-09T18:17:22.773Z</time>
      </trkpt>
      <trkpt lat="51.523249" lon="8.842413">
        <ele>376.771554</ele>
        <time>2022-04-09T18:17:24.637Z</time>
      </trkpt>
      <trkpt lat="51.523395" lon="8.841440">
        <ele>376.009675</ele>
        <time>2022-04-09T18:17:29.136Z</time>
      </trkpt>
      <trkpt lat="51.523523" lon="8.839548">
        <ele>375.005489</ele>
        <time>2022-04-09T18:17:38.328Z</time>
      </trkpt>
      <trkpt lat="51.523693" lon="8.837051">
        <ele>373.308213</ele>
        <time>2022-04-09T18:17:49.811Z</time>
      </trkpt>
      <trkpt lat="51.524245" lon="8.831266">
        <ele>368.604656</ele>
        <time>2022-04-09T18:18:14.975Z</time>
      </trkpt>
      <trkpt lat="51.524704" lon="8.826690">
        <ele>367.428559</ele>
        <time>2022-04-09T18:18:39.739Z</time>
      </trkpt>
      <trkpt lat="51.524714" lon="8.826575">
        <ele>367.388683</ele>
        <time>2022-04-09T18:18:40.388Z</time>
      </trkpt>
      <trkpt lat="51.525633" lon="8.817075">
        <ele>363.390543</ele>
        <time>2022-04-09T18:19:26.954Z</time>
      </trkpt>
      <trkpt lat="51.526450" lon="8.817255">
        <ele>362.019099</ele>
        <time>2022-04-09T18:19:32.385Z</time>
      </trkpt>
      <trkpt lat="51.527989" lon="8.817594">
        <ele>358.140643</ele>
        <time>2022-04-09T18:19:42.039Z</time>
      </trkpt>
      <trkpt lat="51.529862" lon="8.817181">
        <ele>354.272032</ele>
        <time>2022-04-09T18:19:54.236Z</time>
      </trkpt>
      <trkpt lat="51.530903" lon="8.816963">
        <ele>353.631232</ele>
        <time>2022-04-09T18:20:02.792Z</time>
      </trkpt>
      <trkpt lat="51.531069" lon="8.817047">
        <ele>353.525003</ele>
        <time>2022-04-09T18:20:04.600Z</time>
      </trkpt>
      <trkpt lat="51.531141" lon="8.816825">
        <ele>353.429936</ele>
        <time>2022-04-09T18:20:05.927Z</time>
      </trkpt>
      <trkpt lat="51.531284" lon="8.816505">
        <ele>353.280372</ele>
        <time>2022-04-09T18:20:08.507Z</time>
      </trkpt>
      <trkpt lat="51.534559" lon="8.815722">
        <ele>351.086572</ele>
        <time>2022-04-09T18:20:33.828Z</time>
      </trkpt>
      <trkpt lat="51.535081" lon="8.815600">
        <ele>350.669057</ele>
        <time>2022-04-09T18:20:37.743Z</time>
      </trkpt>
      <trkpt lat="51.536344" lon="8.815304">
        <ele>349.575270</ele>
        <time>2022-04-09T18:20:47.411Z</time>
      </trkpt>
      <trkpt lat="51.538558" lon="8.814776">
        <ele>346.692139</ele>
        <time>2022-04-09T18:21:03.503Z</time>
      </trkpt>
      <trkpt lat="51.539538" lon="8.814550">
        <ele>344.320013</ele>
        <time>2022-04-09T18:21:09.767Z</time>
      </trkpt>
      <trkpt lat="51.540465" lon="8.814300">
        <ele>342.134764</ele>
        <time>2022-04-09T18:21:15.577Z</time>
      </trkpt>
      <trkpt lat="51.542684" lon="8.813700">
        <ele>338.538621</ele>
        <time>2022-04-09T18:21:30.460Z</time>
      </trkpt>
      <trkpt lat="51.543410" lon="8.820147">
        <ele>337.418249</ele>
        <time>2022-04-09T18:22:06.045Z</time>
      </trkpt>
      <trkpt lat="51.543504" lon="8.820986">
        <ele>337.486681</ele>
        <time>2022-04-09T18:22:11.363Z</time>
      </trkpt>
      <trkpt lat="51.543698" lon="8.822735">
        <ele>338.324171</ele>
        <time>2022-04-09T18:22:22.946Z</time>
      </trkpt>
      <trkpt lat="51.545742" lon="8.821812">
        <ele>340.602630</ele>
        <time>2022-04-09T18:22:47.241Z</time>
      </trkpt>
      <trkpt lat="51.546467" lon="8.821485">
        <ele>341.120540</ele>
        <time>2022-04-09T18:22:57.393Z</time>
      </trkpt>
      <trkpt lat="51.546854" lon="8.820614">
        <ele>341.142874</ele>
        <time>2022-04-09T18:23:04.277Z</time>
      </trkpt>
      <trkpt lat="51.546990" lon="8.820802">
        <ele>341.148890</ele>
        <time>2022-04-09T18:23:05.960Z</time>
      </trkpt>
      <trkpt lat="51.547269" lon="8.820987">
        <ele>341.159015</ele>
        <time>2022-04-09T18:23:08.229Z</time>
      </trkpt>
      <trkpt lat="51.547650" lon="8.821515">
        <ele>340.636649</ele>
        <time>2022-04-09T18:23:11.613Z</time>
      </trkpt>
      <trkpt lat="51.548531" lon="8.822796">
        <ele>337.330201</ele>
        <time>2022-04-09T18:23:18.929Z</time>
      </trkpt>
      <trkpt lat="51.549807" lon="8.824363">
        <ele>332.768169</ele>
        <time>2022-04-09T18:23:28.601Z</time>
      </trkpt>
      <trkpt lat="51.550397" lon="8.825088">
        <ele>330.791207</ele>
        <time>2022-04-09T18:23:33.495Z</time>
      </trkpt>
      <trkpt lat="51.550887" lon="8.825581">
        <ele>329.795822</ele>
        <time>2022-04-09T18:23:37.375Z</time>
      </trkpt>
      <trkpt lat="51.551042" lon="8.825731">
        <ele>329.484288</ele>
        <time>2022-04-09T18:23:38.604Z</time>
      </trkpt>
      <trkpt lat="51.551079" lon="8.825654">
        <ele>329.380082</ele>
        <time>2022-04-09T18:23:39.034Z</time>
      </trkpt>
      <trkpt lat="51.552989" lon="8.824288">
        <ele>325.222409</ele>
        <time>2022-04-09T18:23:53.284Z</time>
      </trkpt>
      <trkpt lat="51.554962" lon="8.823144">
        <ele>318.976663</ele>
        <time>2022-04-09T18:24:05.979Z</time>
      </trkpt>
      <trkpt lat="51.556487" lon="8.822635">
        <ele>314.250441</ele>
        <time>2022-04-09T18:24:15.405Z</time>
      </trkpt>
      <trkpt lat="51.556937" lon="8.822342">
        <ele>312.800067</ele>
        <time>2022-04-09T18:24:18.492Z</time>
      </trkpt>
      <trkpt lat="51.557595" lon="8.821730">
        <ele>311.799042</ele>
        <time>2022-04-09T18:24:23.575Z</time>
      </trkpt>
      <trkpt lat="51.558754" lon="8.821094">
        <ele>310.262198</ele>
        <time>2022-04-09T18:24:32.991Z</time>
      </trkpt>
      <trkpt lat="51.559863" lon="8.819571">
        <ele>308.693473</ele>
        <time>2022-04-09T18:24:43.515Z</time>
      </trkpt>
      <trkpt lat="51.560047" lon="8.819390">
        <ele>308.455421</ele>
        <time>2022-04-09T18:24:45.172Z</time>
      </trkpt>
      <trkpt lat="51.560239" lon="8.819314">
        <ele>308.217169</ele>
        <time>2022-04-09T18:24:46.433Z</time>
      </trkpt>
      <trkpt lat="51.564107" lon="8.817780">
        <ele>303.968101</ele>
        <time>2022-04-09T18:25:15.114Z</time>
      </trkpt>
      <trkpt lat="51.564543" lon="8.820836">
        <ele>302.777816</ele>
        <time>2022-04-09T18:25:31.353Z</time>
      </trkpt>
      <trkpt lat="51.564954" lon="8.822898">
        <ele>301.470049</ele>
        <time>2022-04-09T18:25:41.404Z</time>
      </trkpt>
      <trkpt lat="51.565210" lon="8.824178">
        <ele>299.867206</ele>
        <time>2022-04-09T18:25:46.987Z</time>
      </trkpt>
      <trkpt lat="51.565566" lon="8.827433">
        <ele>294.878378</ele>
        <time>2022-04-09T18:25:59.926Z</time>
      </trkpt>
      <trkpt lat="51.565629" lon="8.828751">
        <ele>292.898351</ele>
        <time>2022-04-09T18:26:05.019Z</time>
      </trkpt>
      <trkpt lat="51.565636" lon="8.828910">
        <ele>292.680422</ele>
        <time>2022-04-09T18:26:05.600Z</time>
      </trkpt>
      <trkpt lat="51.565635" lon="8.830751">
        <ele>290.163408</ele>
        <time>2022-04-09T18:26:13.063Z</time>
      </trkpt>
      <trkpt lat="51.565645" lon="8.831280">
        <ele>289.776418</ele>
        <time>2022-04-09T18:26:15.441Z</time>
      </trkpt>
      <trkpt lat="51.565646" lon="8.831343">
        <ele>289.750914</ele>
        <time>2022-04-09T18:26:15.767Z</time>
      </trkpt>
      <trkpt lat="51.565664" lon="8.831959">
        <ele>289.501342</ele>
        <time>2022-04-09T18:26:18.762Z</time>
      </trkpt>
      <trkpt lat="51.565475" lon="8.833601">
        <ele>288.825523</ele>
        <time>2022-04-09T18:26:27.320Z</time>
      </trkpt>
      <trkpt lat="51.565833" lon="8.836543">
        <ele>287.343129</ele>
        <time>2022-04-09T18:26:41.722Z</time>
      </trkpt>
      <trkpt lat="51.565892" lon="8.836899">
        <ele>286.749186</ele>
        <time>2022-04-09T18:26:43.970Z</time>
      </trkpt>
      <trkpt lat="51.566005" lon="8.837378">
        <ele>285.739725</ele>
        <time>2022-04-09T18:26:47.039Z</time>
      </trkpt>
      <trkpt lat="51.566059" lon="8.837608">
        <ele>285.255307</ele>
        <time>2022-04-09T18:26:48.452Z</time>
      </trkpt>
      <trkpt lat="51.566108" lon="8.837815">
        <ele>284.818881</ele>
        <time>2022-04-09T18:26:49.673Z</time>
      </trkpt>
      <trkpt lat="51.566276" lon="8.838371">
        <ele>283.600826</ele>
        <time>2022-04-09T18:26:52.965Z</time>
      </trkpt>
      <trkpt lat="51.566314" lon="8.838520">
        <ele>283.283503</ele>
        <time>2022-04-09T18:26:53.547Z</time>
      </trkpt>
      <trkpt lat="51.566346" lon="8.838656">
        <ele>282.996988</ele>
        <time>2022-04-09T18:26:54.071Z</time>
      </trkpt>
      <trkpt lat="51.566388" lon="8.838916">
        <ele>282.467696</ele>
        <time>2022-04-09T18:26:55.022Z</time>
      </trkpt>
      <trkpt lat="51.566411" lon="8.839097">
        <ele>282.103697</ele>
        <time>2022-04-09T18:26:55.668Z</time>
      </trkpt>
      <trkpt lat="51.566433" lon="8.839424">
        <ele>281.399134</ele>
        <time>2022-04-09T18:26:56.828Z</time>
      </trkpt>
      <trkpt lat="51.566555" lon="8.839684">
        <ele>280.500745</ele>
        <time>2022-04-09T18:26:57.968Z</time>
      </trkpt>
      <trkpt lat="51.566600" lon="8.840081">
        <ele>279.387839</ele>
        <time>2022-04-09T18:26:59.407Z</time>
      </trkpt>
      <trkpt lat="51.566647" lon="8.840506">
        <ele>278.197365</ele>
        <time>2022-04-09T18:27:00.981Z</time>
      </trkpt>
      <trkpt lat="51.566674" lon="8.840754">
        <ele>277.503018</ele>
        <time>2022-04-09T18:27:01.888Z</time>
      </trkpt>
      <trkpt lat="51.567110" lon="8.840624">
        <ele>275.535717</ele>
        <time>2022-04-09T18:27:04.437Z</time>
      </trkpt>
      <trkpt lat="51.567369" lon="8.840493">
        <ele>274.331184</ele>
        <time>2022-04-09T18:27:05.986Z</time>
      </trkpt>
      <trkpt lat="51.567506" lon="8.840128">
        <ele>273.280946</ele>
        <time>2022-04-09T18:27:07.507Z</time>
      </trkpt>
      <trkpt lat="51.567562" lon="8.839743">
        <ele>272.487119</ele>
        <time>2022-04-09T18:27:08.956Z</time>
      </trkpt>
      <trkpt lat="51.567604" lon="8.839329">
        <ele>271.644954</ele>
        <time>2022-04-09T18:27:10.523Z</time>
      </trkpt>
      <trkpt lat="51.567799" lon="8.839090">
        <ele>270.853178</ele>
        <time>2022-04-09T18:27:11.994Z</time>
      </trkpt>
      <trkpt lat="51.568041" lon="8.839035">
        <ele>270.063791</ele>
        <time>2022-04-09T18:27:13.480Z</time>
      </trkpt>
      <trkpt lat="51.568173" lon="8.839302">
        <ele>269.378880</ele>
        <time>2022-04-09T18:27:14.855Z</time>
      </trkpt>
      <trkpt lat="51.568200" lon="8.840437">
        <ele>267.492309</ele>
        <time>2022-04-09T18:27:19.382Z</time>
      </trkpt>
      <trkpt lat="51.568220" lon="8.841044">
        <ele>266.949456</ele>
        <time>2022-04-09T18:27:21.734Z</time>
      </trkpt>
      <trkpt lat="51.568312" lon="8.841176">
        <ele>266.772343</ele>
        <time>2022-04-09T18:27:22.492Z</time>
      </trkpt>
      <trkpt lat="51.568382" lon="8.841390">
        <ele>266.556380</ele>
        <time>2022-04-09T18:27:23.510Z</time>
      </trkpt>
      <trkpt lat="51.568594" lon="8.842040">
        <ele>265.900830</ele>
        <time>2022-04-09T18:27:26.733Z</time>
      </trkpt>
      <trkpt lat="51.568705" lon="8.842215">
        <ele>265.677539</ele>
        <time>2022-04-09T18:27:27.837Z</time>
      </trkpt>
      <trkpt lat="51.568947" lon="8.842427">
        <ele>265.281637</ele>
        <time>2022-04-09T18:27:30.165Z</time>
      </trkpt>
      <trkpt lat="51.569452" lon="8.842540">
        <ele>265.901979</ele>
        <time>2022-04-09T18:27:35.524Z</time>
      </trkpt>
      <trkpt lat="51.569595" lon="8.842522">
        <ele>266.109253</ele>
        <time>2022-04-09T18:27:37.986Z</time>
      </trkpt>
      <trkpt lat="51.570600" lon="8.842097">
        <ele>267.610862</ele>
        <time>2022-04-09T18:27:55.990Z</time>
      </trkpt>
      <trkpt lat="51.571219" lon="8.841737">
        <ele>267.984273</ele>
        <time>2022-04-09T18:28:06.707Z</time>
      </trkpt>
      <trkpt lat="51.571660" lon="8.841474">
        <ele>268.132791</ele>
        <time>2022-04-09T18:28:12.896Z</time>
      </trkpt>
      <trkpt lat="51.571833" lon="8.841310">
        <ele>268.196199</ele>
        <time>2022-04-09T18:28:15.301Z</time>
      </trkpt>
      <trkpt lat="51.572020" lon="8.840976">
        <ele>268.284428</ele>
        <time>2022-04-09T18:28:18.371Z</time>
      </trkpt>
      <trkpt lat="51.572075" lon="8.840878">
        <ele>268.310343</ele>
        <time>2022-04-09T18:28:19.245Z</time>
      </trkpt>
      <trkpt lat="51.572176" lon="8.840633">
        <ele>268.368045</ele>
        <time>2022-04-09T18:28:21.122Z</time>
      </trkpt>
      <trkpt lat="51.572381" lon="8.840382">
        <ele>268.251988</ele>
        <time>2022-04-09T18:28:23.668Z</time>
      </trkpt>
      <trkpt lat="51.573943" lon="8.839900">
        <ele>267.064984</ele>
        <time>2022-04-09T18:28:39.938Z</time>
      </trkpt>
      <trkpt lat="51.576625" lon="8.839070">
        <ele>270.552854</ele>
        <time>2022-04-09T18:29:24.285Z</time>
      </trkpt>
      <trkpt lat="51.576800" lon="8.839019">
        <ele>270.751998</ele>
        <time>2022-04-09T18:29:27.054Z</time>
      </trkpt>
      <trkpt lat="51.577731" lon="8.839006">
        <ele>271.298067</ele>
        <time>2022-04-09T18:29:39.726Z</time>
      </trkpt>
      <trkpt lat="51.578871" lon="8.839203">
        <ele>269.999708</ele>
        <time>2022-04-09T18:29:51.791Z</time>
      </trkpt>
      <trkpt lat="51.579243" lon="8.839011">
        <ele>269.557317</ele>
        <time>2022-04-09T18:29:55.411Z</time>
      </trkpt>
      <trkpt lat="51.580022" lon="8.838239">
        <ele>266.646515</ele>
        <time>2022-04-09T18:30:03.383Z</time>
      </trkpt>
      <trkpt lat="51.581069" lon="8.836865">
        <ele>261.557107</ele>
        <time>2022-04-09T18:30:15.022Z</time>
      </trkpt>
      <trkpt lat="51.581942" lon="8.835574">
        <ele>255.831980</ele>
        <time>2022-04-09T18:30:24.582Z</time>
      </trkpt>
      <trkpt lat="51.582491" lon="8.834644">
        <ele>251.633543</ele>
        <time>2022-04-09T18:30:30.897Z</time>
      </trkpt>
      <trkpt lat="51.583309" lon="8.833686">
        <ele>246.169168</ele>
        <time>2022-04-09T18:30:38.873Z</time>
      </trkpt>
      <trkpt lat="51.583672" lon="8.833145">
        <ele>244.889386</ele>
        <time>2022-04-09T18:30:42.987Z</time>
      </trkpt>
      <trkpt lat="51.584005" lon="8.833056">
        <ele>244.543780</ele>
        <time>2022-04-09T18:30:46.209Z</time>
      </trkpt>
      <trkpt lat="51.584975" lon="8.833192">
        <ele>243.546899</ele>
        <time>2022-04-09T18:30:58.849Z</time>
      </trkpt>
      <trkpt lat="51.585279" lon="8.833072">
        <ele>243.309187</ele>
        <time>2022-04-09T18:31:03.861Z</time>
      </trkpt>
      <trkpt lat="51.585765" lon="8.832783">
        <ele>243.077094</ele>
        <time>2022-04-09T18:31:11.475Z</time>
      </trkpt>
      <trkpt lat="51.586144" lon="8.832437">
        <ele>242.881907</ele>
        <time>2022-04-09T18:31:16.700Z</time>
      </trkpt>
      <trkpt lat="51.586789" lon="8.831404">
        <ele>241.517044</ele>
        <time>2022-04-09T18:31:25.624Z</time>
      </trkpt>
      <trkpt lat="51.587124" lon="8.831007">
        <ele>239.423808</ele>
        <time>2022-04-09T18:31:29.112Z</time>
      </trkpt>
      <trkpt lat="51.587802" lon="8.830185">
        <ele>235.152784</ele>
        <time>2022-04-09T18:31:35.821Z</time>
      </trkpt>
      <trkpt lat="51.588377" lon="8.829571">
        <ele>231.221993</ele>
        <time>2022-04-09T18:31:41.090Z</time>
      </trkpt>
      <trkpt lat="51.588591" lon="8.829257">
        <ele>229.401057</ele>
        <time>2022-04-09T18:31:43.335Z</time>
      </trkpt>
      <trkpt lat="51.588837" lon="8.828952">
        <ele>227.448415</ele>
        <time>2022-04-09T18:31:45.761Z</time>
      </trkpt>
      <trkpt lat="51.588881" lon="8.828908">
        <ele>227.122680</ele>
        <time>2022-04-09T18:31:46.167Z</time>
      </trkpt>
      <trkpt lat="51.589554" lon="8.828520">
        <ele>222.627419</ele>
        <time>2022-04-09T18:31:51.804Z</time>
      </trkpt>
      <trkpt lat="51.589659" lon="8.828450">
        <ele>222.035308</ele>
        <time>2022-04-09T18:31:52.423Z</time>
      </trkpt>
      <trkpt lat="51.590067" lon="8.827787">
        <ele>219.905418</ele>
        <time>2022-04-09T18:31:55.710Z</time>
      </trkpt>
      <trkpt lat="51.590109" lon="8.827717">
        <ele>219.683310</ele>
        <time>2022-04-09T18:31:56.050Z</time>
      </trkpt>
      <trkpt lat="51.590391" lon="8.827552">
        <ele>218.581011</ele>
        <time>2022-04-09T18:31:57.807Z</time>
      </trkpt>
      <trkpt lat="51.590807" lon="8.827554">
        <ele>217.052760</ele>
        <time>2022-04-09T18:32:00.371Z</time>
      </trkpt>
      <trkpt lat="51.590998" lon="8.827350">
        <ele>216.210666</ele>
        <time>2022-04-09T18:32:01.907Z</time>
      </trkpt>
      <trkpt lat="51.591335" lon="8.827402">
        <ele>215.364092</ele>
        <time>2022-04-09T18:32:04.292Z</time>
      </trkpt>
      <trkpt lat="51.591394" lon="8.827422">
        <ele>215.281572</ele>
        <time>2022-04-09T18:32:04.729Z</time>
      </trkpt>
      <trkpt lat="51.591479" lon="8.827449">
        <ele>215.162995</ele>
        <time>2022-04-09T18:32:05.321Z</time>
      </trkpt>
      <trkpt lat="51.591565" lon="8.827477">
        <ele>215.042910</ele>
        <time>2022-04-09T18:32:05.926Z</time>
      </trkpt>
      <trkpt lat="51.591783" lon="8.827558">
        <ele>214.736705</ele>
        <time>2022-04-09T18:32:07.500Z</time>
      </trkpt>
      <trkpt lat="51.592097" lon="8.827597">
        <ele>214.305681</ele>
        <time>2022-04-09T18:32:09.679Z</time>
      </trkpt>
      <trkpt lat="51.592753" lon="8.827062">
        <ele>213.299204</ele>
        <time>2022-04-09T18:32:17.293Z</time>
      </trkpt>
      <trkpt lat="51.592948" lon="8.826903">
        <ele>213.005524</ele>
        <time>2022-04-09T18:32:19.548Z</time>
      </trkpt>
      <trkpt lat="51.593596" lon="8.826826">
        <ele>212.151566</ele>
        <time>2022-04-09T18:32:26.046Z</time>
      </trkpt>
      <trkpt lat="51.593885" lon="8.826538">
        <ele>211.704849</ele>
        <time>2022-04-09T18:32:29.373Z</time>
      </trkpt>
      <trkpt lat="51.594406" lon="8.825428">
        <ele>210.694498</ele>
        <time>2022-04-09T18:32:37.972Z</time>
      </trkpt>
      <trkpt lat="51.594624" lon="8.824910">
        <ele>210.495880</ele>
        <time>2022-04-09T18:32:40.744Z</time>
      </trkpt>
      <trkpt lat="51.596227" lon="8.821619">
        <ele>210.167252</ele>
        <time>2022-04-09T18:33:03.298Z</time>
      </trkpt>
      <trkpt lat="51.596373" lon="8.821319">
        <ele>210.222205</ele>
        <time>2022-04-09T18:33:05.875Z</time>
      </trkpt>
      <trkpt lat="51.597074" lon="8.820243">
        <ele>211.079739</ele>
        <time>2022-04-09T18:33:17.310Z</time>
      </trkpt>
      <trkpt lat="51.598159" lon="8.818542">
        <ele>212.001533</ele>
        <time>2022-04-09T18:33:34.841Z</time>
      </trkpt>
      <trkpt lat="51.598943" lon="8.817925">
        <ele>211.619648</ele>
        <time>2022-04-09T18:33:42.152Z</time>
      </trkpt>
      <trkpt lat="51.599876" lon="8.817410">
        <ele>209.814526</ele>
        <time>2022-04-09T18:33:48.559Z</time>
      </trkpt>
      <trkpt lat="51.601737" lon="8.816387">
        <ele>203.730730</ele>
        <time>2022-04-09T18:34:00.333Z</time>
      </trkpt>
      <trkpt lat="51.603556" lon="8.815418">
        <ele>198.403779</ele>
        <time>2022-04-09T18:34:12.137Z</time>
      </trkpt>
      <trkpt lat="51.603605" lon="8.815322">
        <ele>198.231725</ele>
        <time>2022-04-09T18:34:12.588Z</time>
      </trkpt>
      <trkpt lat="51.603076" lon="8.814263">
        <ele>196.349958</ele>
        <time>2022-04-09T18:34:18.401Z</time>
      </trkpt>
      <trkpt lat="51.602671" lon="8.813877">
        <ele>196.101412</ele>
        <time>2022-04-09T18:34:21.764Z</time>
      </trkpt>
      <trkpt lat="51.602666" lon="8.813770">
        <ele>196.084423</ele>
        <time>2022-04-09T18:34:26.007Z</time>
      </trkpt>
      <trkpt lat="51.602661" lon="8.813685">
        <ele>196.070904</ele>
        <time>2022-04-09T18:34:29.187Z</time>
      </trkpt>
      <trkpt lat="51.602871" lon="8.813701">
        <ele>196.017312</ele>
        <time>2022-04-09T18:34:30.826Z</time>
      </trkpt>
      <trkpt lat="51.603149" lon="8.813716">
        <ele>195.946406</ele>
        <time>2022-04-09T18:34:32.965Z</time>
      </trkpt>
      <trkpt lat="51.603263" lon="8.813712">
        <ele>195.917339</ele>
        <time>2022-04-09T18:34:33.970Z</time>
      </trkpt>
      <trkpt lat="51.604469" lon="8.813782">
        <ele>196.736132</ele>
        <time>2022-04-09T18:34:47.303Z</time>
      </trkpt>
      <trkpt lat="51.604645" lon="8.813807">
        <ele>197.062565</ele>
        <time>2022-04-09T18:34:49.458Z</time>
      </trkpt>
      <trkpt lat="51.605132" lon="8.813920">
        <ele>197.971621</ele>
        <time>2022-04-09T18:34:56.455Z</time>
      </trkpt>
      <trkpt lat="51.605685" lon="8.814213">
        <ele>199.047216</ele>
        <time>2022-04-09T18:35:05.540Z</time>
      </trkpt>
      <trkpt lat="51.606188" lon="8.814645">
        <ele>199.595632</ele>
        <time>2022-04-09T18:35:14.190Z</time>
      </trkpt>
      <trkpt lat="51.606685" lon="8.815297">
        <ele>200.200139</ele>
        <time>2022-04-09T18:35:21.652Z</time>
      </trkpt>
      <trkpt lat="51.607084" lon="8.816105">
        <ele>200.699368</ele>
        <time>2022-04-09T18:35:26.779Z</time>
      </trkpt>
      <trkpt lat="51.607364" lon="8.816978">
        <ele>199.730956</ele>
        <time>2022-04-09T18:35:30.996Z</time>
      </trkpt>
      <trkpt lat="51.607768" lon="8.819122">
        <ele>197.732537</ele>
        <time>2022-04-09T18:35:40.120Z</time>
      </trkpt>
      <trkpt lat="51.607977" lon="8.820004">
        <ele>197.304995</ele>
        <time>2022-04-09T18:35:44.446Z</time>
      </trkpt>
      <trkpt lat="51.608230" lon="8.820721">
        <ele>196.931517</ele>
        <time>2022-04-09T18:35:48.557Z</time>
      </trkpt>
      <trkpt lat="51.608606" lon="8.821480">
        <ele>196.685263</ele>
        <time>2022-04-09T18:35:53.996Z</time>
      </trkpt>
      <trkpt lat="51.609063" lon="8.822141">
        <ele>197.043633</ele>
        <time>2022-04-09T18:36:00.273Z</time>
      </trkpt>
      <trkpt lat="51.609539" lon="8.822638">
        <ele>197.374592</ele>
        <time>2022-04-09T18:36:06.231Z</time>
      </trkpt>
      <trkpt lat="51.611819" lon="8.824580">
        <ele>199.827858</ele>
        <time>2022-04-09T18:36:34.940Z</time>
      </trkpt>
      <trkpt lat="51.612324" lon="8.824941">
        <ele>200.658231</ele>
        <time>2022-04-09T18:36:41.798Z</time>
      </trkpt>
      <trkpt lat="51.612699" lon="8.825000">
        <ele>201.224496</ele>
        <time>2022-04-09T18:36:46.630Z</time>
      </trkpt>
      <trkpt lat="51.612910" lon="8.824923">
        <ele>201.549644</ele>
        <time>2022-04-09T18:36:49.391Z</time>
      </trkpt>
      <trkpt lat="51.613268" lon="8.824661">
        <ele>202.180082</ele>
        <time>2022-04-09T18:36:54.598Z</time>
      </trkpt>
      <trkpt lat="51.613656" lon="8.824438">
        <ele>203.116394</ele>
        <time>2022-04-09T18:37:00.224Z</time>
      </trkpt>
      <trkpt lat="51.614677" lon="8.824182">
        <ele>205.464848</ele>
        <time>2022-04-09T18:37:15.107Z</time>
      </trkpt>
      <trkpt lat="51.616073" lon="8.823868">
        <ele>209.251711</ele>
        <time>2022-04-09T18:37:36.704Z</time>
      </trkpt>
      <trkpt lat="51.616455" lon="8.824043">
        <ele>210.363533</ele>
        <time>2022-04-09T18:37:43.338Z</time>
      </trkpt>
      <trkpt lat="51.616627" lon="8.824232">
        <ele>210.946441</ele>
        <time>2022-04-09T18:37:46.795Z</time>
      </trkpt>
      <trkpt lat="51.616886" lon="8.824856">
        <ele>211.611669</ele>
        <time>2022-04-09T18:37:54.229Z</time>
      </trkpt>
      <trkpt lat="51.617040" lon="8.826154">
        <ele>212.528674</ele>
        <time>2022-04-09T18:38:05.789Z</time>
      </trkpt>
      <trkpt lat="51.617471" lon="8.827924">
        <ele>211.812521</ele>
        <time>2022-04-09T18:38:14.003Z</time>
      </trkpt>
      <trkpt lat="51.617768" lon="8.828558">
        <ele>210.640752</ele>
        <time>2022-04-09T18:38:16.994Z</time>
      </trkpt>
      <trkpt lat="51.618282" lon="8.829170">
        <ele>209.121857</ele>
        <time>2022-04-09T18:38:20.906Z</time>
      </trkpt>
      <trkpt lat="51.618587" lon="8.830231">
        <ele>208.844316</ele>
        <time>2022-04-09T18:38:25.612Z</time>
      </trkpt>
      <trkpt lat="51.618827" lon="8.830666">
        <ele>208.800085</ele>
        <time>2022-04-09T18:38:28.661Z</time>
      </trkpt>
      <trkpt lat="51.618855" lon="8.830697">
        <ele>208.795925</ele>
        <time>2022-04-09T18:38:29.095Z</time>
      </trkpt>
      <trkpt lat="51.620610" lon="8.831639">
        <ele>210.467047</ele>
        <time>2022-04-09T18:38:53.762Z</time>
      </trkpt>
      <trkpt lat="51.621151" lon="8.831955">
        <ele>211.399572</ele>
        <time>2022-04-09T18:39:00.392Z</time>
      </trkpt>
      <trkpt lat="51.621428" lon="8.832116">
        <ele>211.775251</ele>
        <time>2022-04-09T18:39:04.123Z</time>
      </trkpt>
      <trkpt lat="51.621740" lon="8.832449">
        <ele>212.144418</ele>
        <time>2022-04-09T18:39:09.014Z</time>
      </trkpt>
      <trkpt lat="51.622077" lon="8.833152">
        <ele>212.688303</ele>
        <time>2022-04-09T18:39:15.271Z</time>
      </trkpt>
      <trkpt lat="51.622031" lon="8.833246">
        <ele>212.761596</ele>
        <time>2022-04-09T18:39:16.218Z</time>
      </trkpt>
      <trkpt lat="51.622042" lon="8.833362">
        <ele>212.833454</ele>
        <time>2022-04-09T18:39:17.062Z</time>
      </trkpt>
      <trkpt lat="51.622077" lon="8.833428">
        <ele>212.886607</ele>
        <time>2022-04-09T18:39:17.644Z</time>
      </trkpt>
      <trkpt lat="51.622160" lon="8.833428">
        <ele>212.968473</ele>
        <time>2022-04-09T18:39:18.420Z</time>
      </trkpt>
      <trkpt lat="51.622373" lon="8.834114">
        <ele>213.395074</ele>
        <time>2022-04-09T18:39:23.440Z</time>
      </trkpt>
      <trkpt lat="51.622718" lon="8.834762">
        <ele>213.436018</ele>
        <time>2022-04-09T18:39:27.995Z</time>
      </trkpt>
      <trkpt lat="51.623387" lon="8.835314">
        <ele>213.494088</ele>
        <time>2022-04-09T18:39:34.680Z</time>
      </trkpt>
      <trkpt lat="51.623541" lon="8.835314">
        <ele>213.505985</ele>
        <time>2022-04-09T18:39:35.939Z</time>
      </trkpt>
      <trkpt lat="51.623744" lon="8.835176">
        <ele>213.523008</ele>
        <time>2022-04-09T18:39:37.776Z</time>
      </trkpt>
      <trkpt lat="51.623902" lon="8.835075">
        <ele>213.669020</ele>
        <time>2022-04-09T18:39:39.238Z</time>
      </trkpt>
      <trkpt lat="51.624041" lon="8.835071">
        <ele>213.927002</ele>
        <time>2022-04-09T18:39:40.662Z</time>
      </trkpt>
      <trkpt lat="51.624480" lon="8.835643">
        <ele>214.974803</ele>
        <time>2022-04-09T18:39:46.101Z</time>
      </trkpt>
      <trkpt lat="51.625021" lon="8.835336">
        <ele>216.039207</ele>
        <time>2022-04-09T18:39:53.004Z</time>
      </trkpt>
      <trkpt lat="51.625239" lon="8.835429">
        <ele>216.457693</ele>
        <time>2022-04-09T18:39:56.955Z</time>
      </trkpt>
      <trkpt lat="51.625413" lon="8.835745">
        <ele>217.125506</ele>
        <time>2022-04-09T18:40:01.898Z</time>
      </trkpt>
      <trkpt lat="51.625781" lon="8.837406">
        <ele>223.988452</ele>
        <time>2022-04-09T18:40:29.412Z</time>
      </trkpt>
      <trkpt lat="51.625967" lon="8.838206">
        <ele>227.312739</ele>
        <time>2022-04-09T18:40:42.183Z</time>
      </trkpt>
      <trkpt lat="51.626103" lon="8.838324">
        <ele>228.298006</ele>
        <time>2022-04-09T18:40:46.217Z</time>
      </trkpt>
      <trkpt lat="51.626236" lon="8.838079">
        <ele>229.719827</ele>
        <time>2022-04-09T18:40:51.217Z</time>
      </trkpt>
      <trkpt lat="51.626399" lon="8.836775">
        <ele>235.530839</ele>
        <time>2022-04-09T18:41:13.463Z</time>
      </trkpt>
      <trkpt lat="51.626509" lon="8.835775">
        <ele>239.967494</ele>
        <time>2022-04-09T18:41:30.358Z</time>
      </trkpt>
      <trkpt lat="51.626532" lon="8.834622">
        <ele>244.982285</ele>
        <time>2022-04-09T18:41:46.584Z</time>
      </trkpt>
      <trkpt lat="51.626526" lon="8.834569">
        <ele>245.216251</ele>
        <time>2022-04-09T18:41:47.320Z</time>
      </trkpt>
      <trkpt lat="51.626363" lon="8.833713">
        <ele>249.104689</ele>
        <time>2022-04-09T18:42:00.981Z</time>
      </trkpt>
      <trkpt lat="51.625741" lon="8.832740">
        <ele>255.843717</ele>
        <time>2022-04-09T18:42:25.236Z</time>
      </trkpt>
      <trkpt lat="51.625372" lon="8.832286">
        <ele>260.316189</ele>
        <time>2022-04-09T18:42:39.900Z</time>
      </trkpt>
      <trkpt lat="51.623967" lon="8.831026">
        <ele>276.156019</ele>
        <time>2022-04-09T18:43:33.938Z</time>
      </trkpt>
      <trkpt lat="51.623337" lon="8.830211">
        <ele>284.474281</ele>
        <time>2022-04-09T18:44:02.943Z</time>
      </trkpt>
      <trkpt lat="51.622752" lon="8.829738">
        <ele>290.665735</ele>
        <time>2022-04-09T18:44:23.819Z</time>
      </trkpt>
      <trkpt lat="51.622683" lon="8.829578">
        <ele>291.568339</ele>
        <time>2022-04-09T18:44:26.667Z</time>
      </trkpt>
      <trkpt lat="51.622681" lon="8.829446">
        <ele>292.180100</ele>
        <time>2022-04-09T18:44:30.051Z</time>
      </trkpt>
      <trkpt lat="51.622711" lon="8.829338">
        <ele>292.728286</ele>
        <time>2022-04-09T18:44:32.007Z</time>
      </trkpt>
      <trkpt lat="51.622875" lon="8.829236">
        <ele>294.040254</ele>
        <time>2022-04-09T18:44:35.983Z</time>
      </trkpt>
      <trkpt lat="51.624616" lon="8.829338">
        <ele>306.217930</ele>
        <time>2022-04-09T18:45:19.937Z</time>
      </trkpt>
      <trkpt lat="51.626430" lon="8.830146">
        <ele>316.688203</ele>
        <time>2022-04-09T18:46:02.364Z</time>
      </trkpt>
      <trkpt lat="51.628847" lon="8.830579">
        <ele>324.687485</ele>
        <time>2022-04-09T18:46:47.724Z</time>
      </trkpt>
      <trkpt lat="51.629227" lon="8.830641">
        <ele>325.491581</ele>
        <time>2022-04-09T18:46:50.342Z</time>
      </trkpt>
      <trkpt lat="51.629727" lon="8.830694">
        <ele>324.196613</ele>
        <time>2022-04-09T18:46:53.454Z</time>
      </trkpt>
      <trkpt lat="51.629860" lon="8.830704">
        <ele>323.674526</ele>
        <time>2022-04-09T18:46:54.242Z</time>
      </trkpt>
      <trkpt lat="51.630289" lon="8.830678">
        <ele>321.991143</ele>
        <time>2022-04-09T18:46:56.705Z</time>
      </trkpt>
      <trkpt lat="51.630619" lon="8.830544">
        <ele>320.656677</ele>
        <time>2022-04-09T18:46:58.589Z</time>
      </trkpt>
      <trkpt lat="51.631514" lon="8.829832">
        <ele>317.608168</ele>
        <time>2022-04-09T18:47:04.324Z</time>
      </trkpt>
      <trkpt lat="51.631821" lon="8.829660">
        <ele>316.905181</ele>
        <time>2022-04-09T18:47:06.396Z</time>
      </trkpt>
      <trkpt lat="51.632198" lon="8.829598">
        <ele>316.085564</ele>
        <time>2022-04-09T18:47:09.022Z</time>
      </trkpt>
      <trkpt lat="51.632874" lon="8.829785">
        <ele>314.835313</ele>
        <time>2022-04-09T18:47:14.338Z</time>
      </trkpt>
      <trkpt lat="51.633934" lon="8.830217">
        <ele>315.525366</ele>
        <time>2022-04-09T18:47:25.561Z</time>
      </trkpt>
      <trkpt lat="51.634352" lon="8.830415">
        <ele>315.800337</ele>
        <time>2022-04-09T18:47:30.819Z</time>
      </trkpt>
      <trkpt lat="51.635308" lon="8.830870">
        <ele>316.814780</ele>
        <time>2022-04-09T18:47:42.724Z</time>
      </trkpt>
      <trkpt lat="51.635560" lon="8.831054">
        <ele>317.120884</ele>
        <time>2022-04-09T18:47:45.920Z</time>
      </trkpt>
      <trkpt lat="51.635801" lon="8.831297">
        <ele>317.435432</ele>
        <time>2022-04-09T18:47:49.133Z</time>
      </trkpt>
      <trkpt lat="51.636530" lon="8.832307">
        <ele>318.357341</ele>
        <time>2022-04-09T18:47:59.839Z</time>
      </trkpt>
      <trkpt lat="51.636893" lon="8.832632">
        <ele>318.706610</ele>
        <time>2022-04-09T18:48:04.492Z</time>
      </trkpt>
      <trkpt lat="51.636627" lon="8.827361">
        <ele>319.508562</ele>
        <time>2022-04-09T18:48:49.882Z</time>
      </trkpt>
      <trkpt lat="51.632928" lon="8.815106">
        <ele>303.936325</ele>
        <time>2022-04-09T18:50:09.232Z</time>
      </trkpt>
      <trkpt lat="51.632338" lon="8.813147">
        <ele>303.114118</ele>
        <time>2022-04-09T18:50:25.758Z</time>
      </trkpt>
      <trkpt lat="51.631855" lon="8.811545">
        <ele>301.148631</ele>
        <time>2022-04-09T18:50:36.892Z</time>
      </trkpt>
      <trkpt lat="51.631550" lon="8.810477">
        <ele>299.459893</ele>
        <time>2022-04-09T18:50:43.681Z</time>
      </trkpt>
      <trkpt lat="51.631185" lon="8.808530">
        <ele>295.106166</ele>
        <time>2022-04-09T18:50:54.062Z</time>
      </trkpt>
      <trkpt lat="51.630912" lon="8.806356">
        <ele>290.506088</ele>
        <time>2022-04-09T18:51:06.038Z</time>
      </trkpt>
      <trkpt lat="51.630558" lon="8.802110">
        <ele>283.941501</ele>
        <time>2022-04-09T18:51:30.739Z</time>
      </trkpt>
      <trkpt lat="51.629815" lon="8.796359">
        <ele>274.639385</ele>
        <time>2022-04-09T18:52:03.571Z</time>
      </trkpt>
      <trkpt lat="51.629600" lon="8.794630">
        <ele>272.852030</ele>
        <time>2022-04-09T18:52:14.133Z</time>
      </trkpt>
      <trkpt lat="51.628718" lon="8.787577">
        <ele>267.186868</ele>
        <time>2022-04-09T18:53:00.231Z</time>
      </trkpt>
      <trkpt lat="51.628490" lon="8.785983">
        <ele>264.289343</ele>
        <time>2022-04-09T18:53:09.521Z</time>
      </trkpt>
      <trkpt lat="51.627445" lon="8.777792">
        <ele>246.753701</ele>
        <time>2022-04-09T18:53:54.210Z</time>
      </trkpt>
      <trkpt lat="51.626654" lon="8.771576">
        <ele>231.814727</ele>
        <time>2022-04-09T18:54:27.686Z</time>
      </trkpt>
      <trkpt lat="51.626979" lon="8.770402">
        <ele>228.641822</ele>
        <time>2022-04-09T18:54:34.426Z</time>
      </trkpt>
      <trkpt lat="51.627510" lon="8.769222">
        <ele>223.784788</ele>
        <time>2022-04-09T18:54:41.829Z</time>
      </trkpt>
      <trkpt lat="51.628025" lon="8.768759">
        <ele>220.577546</ele>
        <time>2022-04-09T18:54:46.512Z</time>
      </trkpt>
      <trkpt lat="51.629082" lon="8.767764">
        <ele>212.642330</ele>
        <time>2022-04-09T18:54:55.936Z</time>
      </trkpt>
      <trkpt lat="51.629891" lon="8.767537">
        <ele>206.980296</ele>
        <time>2022-04-09T18:55:02.210Z</time>
      </trkpt>
      <trkpt lat="51.630063" lon="8.767569">
        <ele>205.819803</ele>
        <time>2022-04-09T18:55:03.556Z</time>
      </trkpt>
      <trkpt lat="51.630208" lon="8.767234">
        <ele>204.188086</ele>
        <time>2022-04-09T18:55:05.560Z</time>
      </trkpt>
      <trkpt lat="51.630276" lon="8.766972">
        <ele>203.053480</ele>
        <time>2022-04-09T18:55:06.948Z</time>
      </trkpt>
      <trkpt lat="51.630257" lon="8.766723">
        <ele>202.051145</ele>
        <time>2022-04-09T18:55:08.202Z</time>
      </trkpt>
      <trkpt lat="51.630194" lon="8.766665">
        <ele>201.584100</ele>
        <time>2022-04-09T18:55:08.770Z</time>
      </trkpt>
      <trkpt lat="51.629603" lon="8.766854">
        <ele>197.705885</ele>
        <time>2022-04-09T18:55:13.511Z</time>
      </trkpt>
      <trkpt lat="51.629238" lon="8.766931">
        <ele>195.336494</ele>
        <time>2022-04-09T18:55:15.498Z</time>
      </trkpt>
      <trkpt lat="51.628774" lon="8.766852">
        <ele>191.558704</ele>
        <time>2022-04-09T18:55:18.004Z</time>
      </trkpt>
      <trkpt lat="51.628212" lon="8.766545">
        <ele>186.494527</ele>
        <time>2022-04-09T18:55:21.152Z</time>
      </trkpt>
      <trkpt lat="51.627598" lon="8.766189">
        <ele>180.925777</ele>
        <time>2022-04-09T18:55:24.517Z</time>
      </trkpt>
      <trkpt lat="51.627508" lon="8.765428">
        <ele>177.353229</ele>
        <time>2022-04-09T18:55:28.040Z</time>
      </trkpt>
      <trkpt lat="51.627152" lon="8.763864">
        <ele>170.374760</ele>
        <time>2022-04-09T18:55:35.954Z</time>
      </trkpt>
      <trkpt lat="51.626996" lon="8.763133">
        <ele>167.201231</ele>
        <time>2022-04-09T18:55:39.953Z</time>
      </trkpt>
      <trkpt lat="51.627704" lon="8.762854">
        <ele>165.932015</ele>
        <time>2022-04-09T18:55:44.655Z</time>
      </trkpt>
      <trkpt lat="51.628063" lon="8.762710">
        <ele>165.287789</ele>
        <time>2022-04-09T18:55:47.327Z</time>
      </trkpt>
      <trkpt lat="51.628224" lon="8.762632">
        <ele>164.995031</ele>
        <time>2022-04-09T18:55:48.634Z</time>
      </trkpt>
      <trkpt lat="51.628244" lon="8.762621">
        <ele>164.958230</ele>
        <time>2022-04-09T18:55:48.796Z</time>
      </trkpt>
      <trkpt lat="51.628400" lon="8.762543">
        <ele>164.673799</ele>
        <time>2022-04-09T18:55:50.068Z</time>
      </trkpt>
      <trkpt lat="51.629147" lon="8.762037">
        <ele>163.874494</ele>
        <time>2022-04-09T18:55:56.435Z</time>
      </trkpt>
      <trkpt lat="51.629536" lon="8.761751">
        <ele>163.679405</ele>
        <time>2022-04-09T18:55:59.757Z</time>
      </trkpt>
      <trkpt lat="51.630157" lon="8.761302">
        <ele>163.368851</ele>
        <time>2022-04-09T18:56:05.145Z</time>
      </trkpt>
      <trkpt lat="51.630182" lon="8.761283">
        <ele>163.356239</ele>
        <time>2022-04-09T18:56:05.358Z</time>
      </trkpt>
      <trkpt lat="51.630250" lon="8.761238">
        <ele>163.322699</ele>
        <time>2022-04-09T18:56:05.954Z</time>
      </trkpt>
      <trkpt lat="51.630533" lon="8.761022">
        <ele>163.487351</ele>
        <time>2022-04-09T18:56:08.640Z</time>
      </trkpt>
      <trkpt lat="51.630584" lon="8.760986">
        <ele>163.547561</ele>
        <time>2022-04-09T18:56:09.161Z</time>
      </trkpt>
      <trkpt lat="51.630607" lon="8.760970">
        <ele>163.574651</ele>
        <time>2022-04-09T18:56:09.406Z</time>
      </trkpt>
      <trkpt lat="51.630507" lon="8.760604">
        <ele>163.843064</ele>
        <time>2022-04-09T18:56:11.905Z</time>
      </trkpt>
      <trkpt lat="51.630309" lon="8.759838">
        <ele>164.400019</ele>
        <time>2022-04-09T18:56:17.725Z</time>
      </trkpt>
      <trkpt lat="51.630142" lon="8.759592">
        <ele>164.644714</ele>
        <time>2022-04-09T18:56:20.465Z</time>
      </trkpt>
      <trkpt lat="51.629884" lon="8.759424">
        <ele>164.945629</ele>
        <time>2022-04-09T18:56:24.116Z</time>
      </trkpt>
      <trkpt lat="51.629721" lon="8.759261">
        <ele>165.153085</ele>
        <time>2022-04-09T18:56:26.768Z</time>
      </trkpt>
      <trkpt lat="51.629676" lon="8.759122">
        <ele>165.342681</ele>
        <time>2022-04-09T18:56:28.163Z</time>
      </trkpt>
      <trkpt lat="51.629641" lon="8.758840">
        <ele>165.920829</ele>
        <time>2022-04-09T18:56:30.711Z</time>
      </trkpt>
      <trkpt lat="51.629646" lon="8.758556">
        <ele>166.492007</ele>
        <time>2022-04-09T18:56:33.327Z</time>
      </trkpt>
      <trkpt lat="51.629654" lon="8.758130">
        <ele>167.348821</ele>
        <time>2022-04-09T18:56:37.315Z</time>
      </trkpt>
      <trkpt lat="51.629604" lon="8.757849">
        <ele>167.936489</ele>
        <time>2022-04-09T18:56:40.155Z</time>
      </trkpt>
      <trkpt lat="51.629458" lon="8.756998">
        <ele>169.711468</ele>
        <time>2022-04-09T18:56:49.151Z</time>
      </trkpt>
      <trkpt lat="51.629489" lon="8.756438">
        <ele>170.841753</ele>
        <time>2022-04-09T18:56:56.017Z</time>
      </trkpt>
      <trkpt lat="51.629590" lon="8.755241">
        <ele>174.756588</ele>
        <time>2022-04-09T18:57:12.078Z</time>
      </trkpt>
      <trkpt lat="51.629554" lon="8.754735">
        <ele>176.463215</ele>
        <time>2022-04-09T18:57:18.988Z</time>
      </trkpt>
      <trkpt lat="51.629478" lon="8.754488">
        <ele>177.386973</ele>
        <time>2022-04-09T18:57:23.290Z</time>
      </trkpt>
      <trkpt lat="51.629489" lon="8.754209">
        <ele>178.323744</ele>
        <time>2022-04-09T18:57:27.239Z</time>
      </trkpt>
      <trkpt lat="51.629447" lon="8.753895">
        <ele>179.400061</ele>
        <time>2022-04-09T18:57:32.745Z</time>
      </trkpt>
      <trkpt lat="51.629242" lon="8.752591">
        <ele>183.635742</ele>
        <time>2022-04-09T18:57:54.634Z</time>
      </trkpt>
      <trkpt lat="51.628959" lon="8.751853">
        <ele>186.292252</ele>
        <time>2022-04-09T18:58:08.134Z</time>
      </trkpt>
      <trkpt lat="51.628678" lon="8.751304">
        <ele>188.471342</ele>
        <time>2022-04-09T18:58:17.710Z</time>
      </trkpt>
      <trkpt lat="51.628784" lon="8.751156">
        <ele>189.163360</ele>
        <time>2022-04-09T18:58:21.000Z</time>
      </trkpt>
      <trkpt lat="51.629111" lon="8.751228">
        <ele>190.556628</ele>
        <time>2022-04-09T18:58:27.752Z</time>
      </trkpt>
      <trkpt lat="51.629290" lon="8.751356">
        <ele>191.328389</ele>
        <time>2022-04-09T18:58:31.442Z</time>
      </trkpt>
      <trkpt lat="51.629495" lon="8.751634">
        <ele>192.384359</ele>
        <time>2022-04-09T18:58:36.951Z</time>
      </trkpt>
      <trkpt lat="51.629788" lon="8.751838">
        <ele>193.642213</ele>
        <time>2022-04-09T18:58:43.786Z</time>
      </trkpt>
      <trkpt lat="51.630093" lon="8.752318">
        <ele>195.322467</ele>
        <time>2022-04-09T18:58:52.848Z</time>
      </trkpt>
      <trkpt lat="51.630677" lon="8.752916">
        <ele>198.836482</ele>
        <time>2022-04-09T18:59:07.975Z</time>
      </trkpt>
      <trkpt lat="51.631620" lon="8.753414">
        <ele>205.048472</ele>
        <time>2022-04-09T18:59:36.814Z</time>
      </trkpt>
      <trkpt lat="51.632148" lon="8.753592">
        <ele>208.283809</ele>
        <time>2022-04-09T18:59:52.403Z</time>
      </trkpt>
      <trkpt lat="51.632251" lon="8.753278">
        <ele>209.234262</ele>
        <time>2022-04-09T18:59:59.142Z</time>
      </trkpt>
      <trkpt lat="51.632422" lon="8.752800">
        <ele>210.710734</ele>
        <time>2022-04-09T19:00:08.588Z</time>
      </trkpt>
      <trkpt lat="51.633393" lon="8.751461">
        <ele>215.465725</ele>
        <time>2022-04-09T19:00:35.599Z</time>
      </trkpt>
      <trkpt lat="51.634428" lon="8.750021">
        <ele>212.371490</ele>
        <time>2022-04-09T19:00:48.181Z</time>
      </trkpt>
      <trkpt lat="51.635143" lon="8.747946">
        <ele>204.134523</ele>
        <time>2022-04-09T19:00:59.703Z</time>
      </trkpt>
      <trkpt lat="51.635484" lon="8.747201">
        <ele>200.399099</ele>
        <time>2022-04-09T19:01:04.108Z</time>
      </trkpt>
      <trkpt lat="51.635755" lon="8.746600">
        <ele>196.391729</ele>
        <time>2022-04-09T19:01:06.568Z</time>
      </trkpt>
      <trkpt lat="51.636310" lon="8.744905">
        <ele>185.609012</ele>
        <time>2022-04-09T19:01:12.763Z</time>
      </trkpt>
      <trkpt lat="51.636733" lon="8.744088">
        <ele>179.921223</ele>
        <time>2022-04-09T19:01:16.148Z</time>
      </trkpt>
      <trkpt lat="51.637248" lon="8.743332">
        <ele>174.072762</ele>
        <time>2022-04-09T19:01:19.753Z</time>
      </trkpt>
      <trkpt lat="51.637435" lon="8.743138">
        <ele>172.205716</ele>
        <time>2022-04-09T19:01:20.910Z</time>
      </trkpt>
      <trkpt lat="51.637721" lon="8.743054">
        <ele>169.765292</ele>
        <time>2022-04-09T19:01:22.467Z</time>
      </trkpt>
      <trkpt lat="51.637781" lon="8.742710">
        <ele>168.590296</ele>
        <time>2022-04-09T19:01:23.709Z</time>
      </trkpt>
      <trkpt lat="51.638164" lon="8.741280">
        <ele>168.997450</ele>
        <time>2022-04-09T19:01:31.845Z</time>
      </trkpt>
      <trkpt lat="51.638343" lon="8.740651">
        <ele>169.178344</ele>
        <time>2022-04-09T19:01:39.076Z</time>
      </trkpt>
      <trkpt lat="51.638377" lon="8.740533">
        <ele>169.212353</ele>
        <time>2022-04-09T19:01:40.570Z</time>
      </trkpt>
      <trkpt lat="51.638680" lon="8.739805">
        <ele>169.877933</ele>
        <time>2022-04-09T19:01:51.298Z</time>
      </trkpt>
      <trkpt lat="51.638990" lon="8.739296">
        <ele>170.708103</ele>
        <time>2022-04-09T19:01:58.129Z</time>
      </trkpt>
      <trkpt lat="51.639441" lon="8.738784">
        <ele>171.742916</ele>
        <time>2022-04-09T19:02:06.116Z</time>
      </trkpt>
      <trkpt lat="51.639824" lon="8.738504">
        <ele>172.531790</ele>
        <time>2022-04-09T19:02:10.396Z</time>
      </trkpt>
      <trkpt lat="51.640310" lon="8.738073">
        <ele>171.840734</ele>
        <time>2022-04-09T19:02:14.041Z</time>
      </trkpt>
      <trkpt lat="51.641548" lon="8.736505">
        <ele>168.979507</ele>
        <time>2022-04-09T19:02:24.297Z</time>
      </trkpt>
      <trkpt lat="51.642876" lon="8.734962">
        <ele>165.954812</ele>
        <time>2022-04-09T19:02:35.052Z</time>
      </trkpt>
      <trkpt lat="51.644521" lon="8.733223">
        <ele>164.601229</ele>
        <time>2022-04-09T19:02:50.245Z</time>
      </trkpt>
      <trkpt lat="51.645080" lon="8.732574">
        <ele>164.573073</ele>
        <time>2022-04-09T19:02:57.340Z</time>
      </trkpt>
      <trkpt lat="51.645580" lon="8.731715">
        <ele>164.543205</ele>
        <time>2022-04-09T19:03:03.985Z</time>
      </trkpt>
      <trkpt lat="51.645869" lon="8.730779">
        <ele>164.168183</ele>
        <time>2022-04-09T19:03:08.914Z</time>
      </trkpt>
      <trkpt lat="51.646095" lon="8.729114">
        <ele>163.421879</ele>
        <time>2022-04-09T19:03:16.532Z</time>
      </trkpt>
      <trkpt lat="51.646172" lon="8.728227">
        <ele>163.284152</ele>
        <time>2022-04-09T19:03:21.428Z</time>
      </trkpt>
      <trkpt lat="51.646194" lon="8.728034">
        <ele>163.289639</ele>
        <time>2022-04-09T19:03:22.531Z</time>
      </trkpt>
      <trkpt lat="51.646287" lon="8.726988">
        <ele>163.319182</ele>
        <time>2022-04-09T19:03:29.639Z</time>
      </trkpt>
      <trkpt lat="51.646511" lon="8.725180">
        <ele>161.918460</ele>
        <time>2022-04-09T19:03:39.426Z</time>
      </trkpt>
      <trkpt lat="51.646633" lon="8.724660">
        <ele>160.849131</ele>
        <time>2022-04-09T19:03:41.625Z</time>
      </trkpt>
      <trkpt lat="51.646914" lon="8.723896">
        <ele>159.140822</ele>
        <time>2022-04-09T19:03:44.853Z</time>
      </trkpt>
      <trkpt lat="51.647371" lon="8.723167">
        <ele>156.783242</ele>
        <time>2022-04-09T19:03:48.433Z</time>
      </trkpt>
      <trkpt lat="51.647778" lon="8.722764">
        <ele>154.441823</ele>
        <time>2022-04-09T19:03:51.069Z</time>
      </trkpt>
      <trkpt lat="51.648308" lon="8.722468">
        <ele>151.692389</ele>
        <time>2022-04-09T19:03:54.196Z</time>
      </trkpt>
      <trkpt lat="51.648904" lon="8.722351">
        <ele>148.855345</ele>
        <time>2022-04-09T19:03:57.715Z</time>
      </trkpt>
      <trkpt lat="51.649633" lon="8.722521">
        <ele>147.077767</ele>
        <time>2022-04-09T19:04:02.306Z</time>
      </trkpt>
      <trkpt lat="51.651536" lon="8.723522">
        <ele>143.087481</ele>
        <time>2022-04-09T19:04:15.764Z</time>
      </trkpt>
      <trkpt lat="51.651880" lon="8.723792">
        <ele>142.491516</ele>
        <time>2022-04-09T19:04:18.446Z</time>
      </trkpt>
      <trkpt lat="51.652204" lon="8.724190">
        <ele>141.856998</ele>
        <time>2022-04-09T19:04:21.297Z</time>
      </trkpt>
      <trkpt lat="51.652807" lon="8.724872">
        <ele>141.141125</ele>
        <time>2022-04-09T19:04:26.550Z</time>
      </trkpt>
      <trkpt lat="51.653370" lon="8.725286">
        <ele>140.553201</ele>
        <time>2022-04-09T19:04:31.174Z</time>
      </trkpt>
      <trkpt lat="51.653511" lon="8.725390">
        <ele>140.405882</ele>
        <time>2022-04-09T19:04:32.341Z</time>
      </trkpt>
      <trkpt lat="51.653873" lon="8.725396">
        <ele>140.077903</ele>
        <time>2022-04-09T19:04:35.217Z</time>
      </trkpt>
      <trkpt lat="51.654462" lon="8.725235">
        <ele>139.710845</ele>
        <time>2022-04-09T19:04:39.988Z</time>
      </trkpt>
      <trkpt lat="51.654933" lon="8.724975">
        <ele>139.404954</ele>
        <time>2022-04-09T19:04:43.793Z</time>
      </trkpt>
      <trkpt lat="51.655446" lon="8.724519">
        <ele>139.045007</ele>
        <time>2022-04-09T19:04:48.455Z</time>
      </trkpt>
      <trkpt lat="51.656262" lon="8.723477">
        <ele>138.000622</ele>
        <time>2022-04-09T19:04:56.345Z</time>
      </trkpt>
      <trkpt lat="51.656321" lon="8.723547">
        <ele>137.925074</ele>
        <time>2022-04-09T19:04:56.876Z</time>
      </trkpt>
      <trkpt lat="51.656426" lon="8.723512">
        <ele>137.814502</ele>
        <time>2022-04-09T19:04:57.631Z</time>
      </trkpt>
      <trkpt lat="51.656462" lon="8.723421">
        <ele>137.745454</ele>
        <time>2022-04-09T19:04:58.094Z</time>
      </trkpt>
      <trkpt lat="51.656443" lon="8.723266">
        <ele>137.644374</ele>
        <time>2022-04-09T19:04:58.779Z</time>
      </trkpt>
      <trkpt lat="51.656523" lon="8.723181">
        <ele>137.545565</ele>
        <time>2022-04-09T19:04:59.453Z</time>
      </trkpt>
      <trkpt lat="51.656795" lon="8.722899">
        <ele>137.212056</ele>
        <time>2022-04-09T19:05:01.670Z</time>
      </trkpt>
      <trkpt lat="51.657446" lon="8.722336">
        <ele>136.470717</ele>
        <time>2022-04-09T19:05:06.836Z</time>
      </trkpt>
      <trkpt lat="51.658634" lon="8.721433">
        <ele>135.346930</ele>
        <time>2022-04-09T19:05:16.780Z</time>
      </trkpt>
      <trkpt lat="51.658934" lon="8.721142">
        <ele>135.346930</ele>
        <time>2022-04-09T19:05:19.690Z</time>
      </trkpt>
      <trkpt lat="51.659098" lon="8.720961">
        <ele>135.346930</ele>
        <time>2022-04-09T19:05:21.439Z</time>
      </trkpt>
      <trkpt lat="51.659155" lon="8.720899">
        <ele>135.346930</ele>
        <time>2022-04-09T19:05:22.009Z</time>
      </trkpt>
      <trkpt lat="51.659146" lon="8.720809">
        <ele>135.346930</ele>
        <time>2022-04-09T19:05:25.752Z</time>
      </trkpt>
      <trkpt lat="51.659120" lon="8.720527">
        <ele>135.346930</ele>
        <time>2022-04-09T19:05:37.604Z</time>
      </trkpt>
    </trkseg>
  </trk>
</gpx>